ftp/pub/palmer/observations_modified/2019/August/AR190810_BASE.txt

Download

Sample DateTime	Unit Id	WS Avg 2min	WD Avg 2min	WGS 10min	WGD 10min	Air Temp	Rel Humidity	Dew Point	Pyranometer	Quantum	Air Pressure	Snow Level	Rainfall	PW Current	Visibility	CBase 1	CBase 2	CBase 3	Vert Vis
2019/08/10  00:00:00  BASE  8.9964   152  11.1602  155  -5.1  49    -14.3 0     0     979.9    NA       0.0000   9999     15680 0     0    
2019/08/10  00:01:00  BASE  8.22612  151  11.1602  155  -5.1  49    -14.1 0     0     979.9    NA       0.0000   9999     15650 0     0    
2019/08/10  00:02:00  BASE  8.72004  154  11.1602  155  -5.2  50    -14.0 0     0     979.8    NA       0.0000   9999     15680 0     0    
2019/08/10  00:03:00  BASE  9.03168  154  11.1602  155  -5.2  50    -13.9 0     0     979.9    NA       0.0000   9999     15650 0     0    
2019/08/10  00:04:00  BASE  8.34372  149  10.6781  150  -5.2  51    -13.7 0     0     979.9    NA       0.0000   9999     0     0     0    
2019/08/10  00:05:00  BASE  8.12028  146  10.6781  150  -5.1  51    -13.8 0     0     979.9    NA       0.0000   9999     0     0     0    
2019/08/10  00:06:00  BASE  8.76708  146  11.7659  155  -5.1  50    -14.0 0     0     979.9    NA       0.0000   9999     0     0     0    
2019/08/10  00:07:00  BASE  9.37272  146  11.7659  155  -5.1  48    -14.4 0     0     979.9    NA       0.0000   9999     0     0     0    
2019/08/10  00:08:00  BASE  9.16692  148  11.7659  155  -5.1  47    -14.6 0     0     979.9    NA       0.0000   9999     15390 0     0    
2019/08/10  00:09:00  BASE  8.74944  150  11.7659  155  -5.1  46    -14.9 0     0     979.9    NA       0.0000   9999     15450 0     0    
2019/08/10  00:10:00  BASE  8.31432  149  11.7659  155  -5.1  45    -15.1 0     0     980.0    NA       0.0000   9999     15320 0     0    
2019/08/10  00:11:00  BASE  8.31432  147  11.7659  155  -5.2  45    -15.2 0     0     980.0    NA       0.0000   9999     15290 0     0    
2019/08/10  00:12:00  BASE  8.26728  145  11.7659  155  -5.2  45    -15.2 0     0     980.0    NA       0.0000   9999     15390 0     0    
2019/08/10  00:13:00  BASE  8.43192  144  11.7659  155  -5.2  46    -15.1 0     0     980.0    NA       0.0000   9999     15550 0     0    
2019/08/10  00:14:00  BASE  8.3496   146  11.7659  155  -5.2  46    -15.0 0     0     980.0    NA       0.0000   9999     15520 0     0    
2019/08/10  00:15:00  BASE  8.0262   149  11.7659  155  -5.2  46    -14.9 0     0     980.0    NA       0.0000   9999     15650 0     0    
2019/08/10  00:16:00  BASE  8.04384  147  10.3782  153  -5.2  47    -14.7 0     0     980.0    NA       0.0000   9999     15520 0     0    
2019/08/10  00:17:00  BASE  8.526    145  10.3782  153  -5.2  47    -14.7 0     0     980.0    NA       0.0000   9999     15490 0     0    
2019/08/10  00:18:01  BASE  8.50248  146  10.1018  149  -5.2  47    -14.7 0     0     980.0    NA       0.0000   9999     15580 0     0    
2019/08/10  00:19:01  BASE  7.86744  148  9.95484  147  -5.2  47    -14.7 0     0     980.1    NA       0.0000   9999     15650 0     0    
2019/08/10  00:20:01  BASE  7.5558   148  9.95484  147  -5.2  47    -14.6 0     0     980.1    NA       0.0000   9999     15880 0     0    
2019/08/10  00:21:00  BASE  8.15556  147  10.2253  150  -5.2  48    -14.6 0     0     980.1    NA       0.0000   9999     15980 0     0    
2019/08/10  00:22:01  BASE  8.89056  147  10.2253  150  -5.1  48    -14.6 0     0     980.1    NA       0.0000   9999     15910 0     0    
2019/08/10  00:23:01  BASE  8.74944  147  10.2253  150  -5.1  48    -14.6 0     0     980.0    NA       0.0000   9999     16140 0     0    
2019/08/10  00:24:01  BASE  9.09048  145  10.7369  138  -5.1  48    -14.6 0     0     980.1    NA       0.0000   9999     16080 0     0    
2019/08/10  00:25:01  BASE  9.66672  143  10.7369  138  -5.1  47    -14.7 0     0     980.1    NA       0.0000   9999     16110 0     0    
2019/08/10  00:26:01  BASE  9.4374   143  10.7369  138  -5.1  46    -14.9 0     0     980.1    NA       0.0000   9999     0     0     0    
2019/08/10  00:27:01  BASE  8.77296  140  10.7369  138  -5.1  46    -14.9 0     0     980.2    NA       0.0000   9999     0     0     0    
2019/08/10  00:28:01  BASE  8.31432  139  10.7369  138  -5.2  46    -14.9 0     0     980.2    NA       0.0000   9999     0     0     0    
2019/08/10  00:29:01  BASE  7.98504  139  10.7369  138  -5.2  46    -15.0 0     0     980.3    NA       0.0000   9999     0     0     0    
2019/08/10  00:30:01  BASE  8.0262   141  10.7369  138  -5.2  46    -15.0 0     0     980.2    NA       0.0000   9999     0     0     0    
2019/08/10  00:31:01  BASE  7.94976  141  10.7369  138  -5.3  46    -15.0 0     0     980.3    NA       0.0000   9999     0     0     0    
2019/08/10  00:32:01  BASE  8.26728  135  10.7369  138  -5.3  46    -15.1 0     0     980.2    NA       0.0000   9999     0     0     0    
2019/08/10  00:33:01  BASE  8.9376   132  10.7369  138  -5.3  46    -15.2 0     0     980.2    NA       0.0000   9999     0     0     0    
2019/08/10  00:34:01  BASE  9.14928  133  10.7075  140  -5.3  45    -15.3 0     0     980.3    NA       0.0000   9999     0     0     0    
2019/08/10  00:35:01  BASE  9.17868  134  10.7075  140  -5.3  45    -15.4 0     0     980.3    NA       0.0000   9999     0     0     0    
2019/08/10  00:36:01  BASE  8.9082   135  10.2841  135  -5.3  44    -15.5 0     0     980.3    NA       0.0000   9999     0     0     0    
2019/08/10  00:37:01  BASE  8.78472  135  10.2841  135  -5.3  44    -15.6 0     0     980.4    NA       0.0000   9999     0     0     0    
2019/08/10  00:38:01  BASE  8.42604  135  10.2841  135  -5.3  44    -15.6 0     0     980.4    NA       0.0000   9999     0     0     0    
2019/08/10  00:39:01  BASE  8.00268  137  10.2841  135  -5.3  45    -15.5 0     0     980.4    NA       0.0000   9999     0     0     0    
2019/08/10  00:40:01  BASE  7.50288  139  10.2841  135  -5.3  45    -15.3 0     0     980.4    NA       0.0000   9999     0     0     0    
2019/08/10  00:41:01  BASE  7.51464  141  10.2841  135  -5.3  46    -15.2 0     0     980.4    NA       0.0000   9999     0     0     0    
2019/08/10  00:42:01  BASE  7.60284  143  10.2841  135  -5.3  46    -15.1 0     0     980.4    NA       0.0000   9999     0     0     0    
2019/08/10  00:43:01  BASE  6.96192  144  10.2841  135  -5.3  47    -14.9 0     0     980.4    NA       0.0000   9999     0     0     0    
2019/08/10  00:44:01  BASE  6.47976  144  10.043   140  -5.2  47    -14.8 0     0     980.4    NA       0.0000   9999     0     0     0    
2019/08/10  00:45:01  BASE  6.50328  144  10.043   140  -5.2  47    -14.7 0     0     980.4    NA       0.0000   9999     0     0     0    
2019/08/10  00:46:01  BASE  7.36176  143  9.4374   137  -5.2  48    -14.5 0     0     980.3    NA       0.0000   9999     0     0     0    
2019/08/10  00:47:01  BASE  7.81452  142  8.86116  143  -5.2  49    -14.4 0     0     980.4    NA       0.0000   9999     0     0     0    
2019/08/10  00:48:01  BASE  8.02032  143  9.04344  151  -5.2  49    -14.3 0     0     980.4    NA       0.0000   9999     0     0     0    
2019/08/10  00:49:01  BASE  7.87332  146  9.61968  153  -5.2  49    -14.3 0     0     980.4    NA       0.0000   9999     0     0     0    
2019/08/10  00:50:01  BASE  6.95016  146  9.61968  153  -5.2  49    -14.3 0     0     980.4    NA       0.0000   9999     0     0     0    
2019/08/10  00:51:01  BASE  6.8208   144  9.61968  153  -5.2  49    -14.3 0     0     980.4    NA       0.0000   9999     0     0     0    
2019/08/10  00:52:01  BASE  6.90312  146  9.61968  153  -5.2  49    -14.4 0     0     980.5    NA       0.0000   9999     0     0     0    
2019/08/10  00:53:01  BASE  6.63264  145  9.61968  153  -5.2  49    -14.3 0     0     980.5    NA       0.0000   9999     0     0     0    
2019/08/10  00:54:01  BASE  6.28572  141  9.61968  153  -5.2  49    -14.3 0     0     980.6    NA       0.0000   9999     0     0     0    
2019/08/10  00:55:01  BASE  5.65068  140  9.61968  153  -5.2  49    -14.3 0     0     980.6    NA       0.0000   9999     0     0     0    
2019/08/10  00:56:01  BASE  5.586    138  9.61968  153  -5.2  49    -14.3 0     0     980.6    NA       0.0000   9999     0     0     0    
2019/08/10  00:57:01  BASE  6.39744  140  9.61968  153  -5.2  49    -14.2 0     0     980.6    NA       0.0000   9999     0     0     0    
2019/08/10  00:58:01  BASE  6.4974   142  9.61968  153  -5.2  49    -14.2 0     0     980.6    NA       0.0000   9999     0     0     0    
2019/08/10  00:59:01  BASE  5.54484  137  7.98504  146  -5.2  49    -14.1 0     0     980.6    NA       0.0000   9999     0     0     0    
2019/08/10  01:00:01  BASE  5.09208  134  7.98504  146  -5.2  50    -14.1 0     0     980.7    NA       0.0000   9999     0     0     0    
2019/08/10  01:01:01  BASE  5.18028  136  7.44408  142  -5.2  50    -14.0 0     0     980.6    NA       0.0000   9999     0     0     0    
2019/08/10  01:02:01  BASE  5.62128  134  7.44408  142  -5.2  50    -14.0 0     0     980.6    NA       0.0000   9999     0     0     0    
2019/08/10  01:03:01  BASE  6.73848  130  9.5256   130  -5.2  51    -13.8 0     0     980.6    NA       0.0000   9999     0     0     0    
2019/08/10  01:04:01  BASE  7.35588  128  9.5256   130  -5.2  52    -13.7 0     0     980.6    NA       0.0000   9999     0     0     0    
2019/08/10  01:05:01  BASE  7.10304  125  9.5256   130  -5.3  52    -13.6 0     0     980.6    NA       0.0000   9999     0     0     0    
2019/08/10  01:06:01  BASE  7.01484  126  9.5256   130  -5.3  52    -13.7 0     0     980.6    NA       0.0000   9999     0     0     0    
2019/08/10  01:07:01  BASE  6.69732  129  9.5256   130  -5.3  52    -13.7 0     0     980.6    NA       0.0000   9999     0     0     0    
2019/08/10  01:08:01  BASE  7.29708  127  10.4664  125  -5.3  52    -13.7 0     0     980.6    NA       0.0000   9999     0     0     0    
2019/08/10  01:09:01  BASE  7.94388  129  10.4664  125  -5.3  52    -13.7 0     0     980.6    NA       0.0000   9999     0     0     0    
2019/08/10  01:10:01  BASE  7.20888  139  10.4664  125  -5.3  52    -13.5 0     0     980.6    NA       0.0000   9999     0     0     0    
2019/08/10  01:11:01  BASE  6.31512  141  10.4664  125  -5.2  53    -13.4 0     0     980.6    NA       0.0000   9999     0     0     0    
2019/08/10  01:12:01  BASE  6.27396  140  10.4664  125  -5.1  53    -13.2 0     0     980.5    NA       0.0000   9999     0     0     0    
2019/08/10  01:13:01  BASE  6.95016  148  10.4664  125  -5.1  53    -13.2 0     0     980.5    NA       0.0000   9999     0     0     0    
2019/08/10  01:14:01  BASE  6.615    156  10.4664  125  -5.0  53    -13.1 0     0     980.6    NA       0.0000   9999     0     0     0    
2019/08/10  01:15:01  BASE  5.84472  154  10.4664  125  -5.0  53    -13.1 0     0     980.7    NA       0.0000   9999     0     0     0    
2019/08/10  01:16:01  BASE  5.68596  150  10.4664  125  -5.0  53    -13.1 0     0     980.6    NA       0.0000   9999     0     0     0    
2019/08/10  01:17:01  BASE  5.82708  150  10.4664  125  -5.0  53    -13.1 0     0     980.7    NA       0.0000   9999     0     0     0    
2019/08/10  01:18:01  BASE  6.05052  154  9.28452  125  -4.9  53    -13.1 0     0     980.6    NA       0.0000   9999     0     0     0    
2019/08/10  01:19:01  BASE  6.43272  156  9.19632  141  -4.9  53    -13.1 0     0     980.6    NA       0.0000   9999     0     0     0    
2019/08/10  01:20:01  BASE  6.22104  152  9.19632  141  -4.9  53    -13.1 0     0     980.7    NA       0.0000   9999     0     0     0    
2019/08/10  01:21:01  BASE  5.9976   145  9.19632  141  -4.9  53    -13.1 0     0     980.7    NA       0.0000   9999     0     0     0    
2019/08/10  01:22:01  BASE  5.95056  149  8.92584  144  -4.9  52    -13.2 0     0     980.7    NA       0.0000   9999     0     0     0    
2019/08/10  01:23:01  BASE  5.20968  162  8.19672  158  -4.9  52    -13.2 0     0     980.8    NA       0.0000   9999     0     0     0    
2019/08/10  01:24:01  BASE  4.82748  169  8.19672  158  -4.9  53    -13.1 0     0     980.8    NA       0.0000   9999     0     0     0    
2019/08/10  01:25:01  BASE  4.58052  176  8.19672  158  -5.0  54    -12.9 0     0     980.8    NA       0.0000   9999     0     0     0    
2019/08/10  01:26:01  BASE  4.557    208  8.19672  158  -5.0  55    -12.5 0     0     980.9    NA       0.0000   9999     0     0     0    
2019/08/10  01:27:01  BASE  5.45076  228  8.19672  158  -5.0  58    -12.0 0     0     980.8    NA       0.0000   9999     0     0     0    
2019/08/10  01:28:01  BASE  6.25632  219  7.86744  218  -5.0  60    -11.6 0     0     980.8    NA       0.0000   9999     0     0     0    
2019/08/10  01:29:01  BASE  6.65616  219  7.86744  218  -5.0  62    -11.1 0     0     980.8    NA       0.0000   9999     0     0     0    
2019/08/10  01:30:01  BASE  6.98544  223  8.07912  224  -5.0  64    -10.7 0     0     980.9    NA       0.0000   9999     3710  0     0    
2019/08/10  01:31:01  BASE  6.60324  221  8.07912  224  -5.1  66    -10.4 0     0     980.9    NA       0.0000   9999     3710  0     0    
2019/08/10  01:32:01  BASE  5.77416  217  8.07912  224  -5.1  67    -10.2 0     0     981.0    NA       0.0000   9999     0     0     0    
2019/08/10  01:33:00  BASE  5.99172  221  8.07912  224  -5.1  68    -10.0 0     0     981.0    NA       0.0000   9999     0     0     0    
2019/08/10  01:34:01  BASE  6.18576  222  8.07912  224  -5.1  69    -9.8  0     0     981.0    NA       0.0000   9999     0     0     0    
2019/08/10  01:35:01  BASE  5.8212   216  8.07912  224  -5.1  70    -9.7  0     0     981.0    NA       0.0000   9999     4000  0     0    
2019/08/10  01:36:00  BASE  5.82708  217  8.07912  224  -5.1  71    -9.6  0     0     981.0    NA       0.0000   9999     0     0     0    
2019/08/10  01:37:00  BASE  6.06228  216  8.07912  224  -5.1  72    -9.4  0     0     981.0    NA       0.0000   9999     0     0     0    
2019/08/10  01:38:01  BASE  6.19752  215  8.07912  224  -5.1  72    -9.3  0     0     981.0    NA       0.0000   9999     0     0     0    
2019/08/10  01:39:00  BASE  6.3798   217  8.07912  224  -5.1  73    -9.2  0     0     981.0    NA       0.0000   9999     3870  0     0    
2019/08/10  01:40:00  BASE  6.39744  218  7.07952  219  -5.1  73    -9.2  0     0     981.0    NA       0.0000   9999     0     0     0    
2019/08/10  01:41:00  BASE  6.16224  217  7.07952  219  -5.1  73    -9.2  0     0     981.0    NA       0.0000   9999     3670  0     0    
2019/08/10  01:42:00  BASE  5.93292  212  7.07952  219  -5.0  73    -9.2  0     0     981.0    NA       0.0000   9999     3740  0     0    
2019/08/10  01:43:00  BASE  6.00936  215  7.07952  219  -5.0  73    -9.2  0     0     981.0    NA       0.0000   9999     0     0     0    
2019/08/10  01:44:00  BASE  6.09168  217  7.07952  219  -5.0  73    -9.2  0     0     980.9    NA       0.0000   9999     0     0     0    
2019/08/10  01:45:00  BASE  5.91528  213  7.07952  219  -5.0  73    -9.2  0     0     980.9    NA       0.0000   9999     0     0     0    
2019/08/10  01:46:01  BASE  5.92116  209  7.07952  219  -5.0  73    -9.1  0     0     980.9    NA       0.0000   9999     0     0     0    
2019/08/10  01:47:00  BASE  5.98584  205  7.07952  219  -5.0  73    -9.1  0     0     981.0    NA       0.0000   9999     0     0     0    
2019/08/10  01:48:00  BASE  6.33276  205  7.2618   203  -5.1  73    -9.1  0     0     981.0    NA       0.0000   9999     0     0     0    
2019/08/10  01:49:00  BASE  6.60324  207  7.2618   203  -5.1  73    -9.1  0     0     981.0    NA       0.0000   9999     0     0     0    
2019/08/10  01:50:00  BASE  6.77964  203  7.71456  206  -5.1  74    -9.1  0     0     980.9    NA       0.0000   9999     0     0     0    
2019/08/10  01:51:00  BASE  7.04424  201  7.71456  206  -5.1  74    -9.1  0     0     980.9    NA       0.0000   9999     0     0     0    
2019/08/10  01:52:00  BASE  6.79728  206  7.71456  206  -5.1  74    -9.0  0     0     980.9    NA       0.0000   9999     0     0     0    
2019/08/10  01:53:00  BASE  6.12108  209  7.71456  206  -5.1  74    -9.0  0     0     981.0    NA       0.0000   9999     0     0     0    
2019/08/10  01:54:00  BASE  5.9976   208  7.71456  206  -5.1  74    -9.1  0     0     981.0    NA       0.0000   9999     0     0     0    
2019/08/10  01:55:00  BASE  6.17988  206  7.71456  206  -5.2  74    -9.1  0     0     981.0    NA       0.0000   9999     0     0     0    
2019/08/10  01:56:00  BASE  5.44488  202  7.71456  206  -5.2  74    -9.1  0     0     981.0    NA       0.0000   9999     0     0     0    
2019/08/10  01:57:01  BASE  5.47428  200  7.71456  206  -5.2  74    -9.1  0     0     981.0    NA       0.0000   9999     0     0     0    
2019/08/10  01:58:01  BASE  6.63264  199  7.71456  206  -5.2  74    -9.2  0     0     981.0    NA       0.0000   9999     0     0     0    
2019/08/10  01:59:01  BASE  6.89724  201  7.71456  206  -5.2  73    -9.2  0     0     981.0    NA       0.0000   9999     0     0     0    
2019/08/10  02:00:01  BASE  6.5562   201  7.68516  198  -5.2  73    -9.2  0     0     981.0    NA       0.0000   9999     0     0     0    
2019/08/10  02:01:01  BASE  6.39744  202  7.3794   200  -5.1  73    -9.2  0     0     981.0    NA       0.0000   9999     0     0     0    
2019/08/10  02:02:01  BASE  6.06228  205  7.3794   200  -5.1  74    -9.1  0     0     981.0    NA       0.0000   9999     0     0     0    
2019/08/10  02:03:01  BASE  5.53308  203  7.3794   200  -5.1  74    -9.1  0     0     981.0    NA       0.0000   9999     0     0     0    
2019/08/10  02:04:01  BASE  5.63892  202  7.3794   200  -5.2  74    -9.1  0     0     981.0    NA       0.0000   9999     0     0     0    
2019/08/10  02:05:01  BASE  6.2034   206  7.3794   200  -5.2  74    -9.1  0     0     981.0    NA       0.0000   9999     0     0     0    
2019/08/10  02:06:01  BASE  6.39156  207  7.3794   200  -5.2  74    -9.1  0     0     981.0    NA       0.0000   9999     0     0     0    
2019/08/10  02:07:01  BASE  6.6444   205  7.3794   204  -5.2  74    -9.1  0     0     981.0    NA       0.0000   9999     0     0     0    
2019/08/10  02:08:01  BASE  6.9384   201  7.47348  191  -5.2  74    -9.1  0     0     981.0    NA       0.0000   9999     0     0     0    
2019/08/10  02:09:01  BASE  6.68556  198  7.47348  191  -5.2  74    -9.1  0     0     981.0    NA       0.0000   9999     0     0     0    
2019/08/10  02:10:01  BASE  6.321    197  7.47348  191  -5.2  74    -9.1  0     0     981.0    NA       0.0000   9999     0     0     0    
2019/08/10  02:11:01  BASE  6.02112  197  7.47348  191  -5.2  74    -9.1  0     0     981.0    NA       0.0000   9999     0     0     0    
2019/08/10  02:12:01  BASE  6.0564   195  7.47348  191  -5.2  74    -9.1  0     0     981.0    NA       0.0000   9999     0     0     0    
2019/08/10  02:13:01  BASE  5.80944  194  7.47348  191  -5.2  74    -9.2  0     0     981.0    NA       0.0000   9999     0     0     0    
2019/08/10  02:14:01  BASE  5.47428  197  7.47348  191  -5.3  74    -9.2  0     0     981.0    NA       0.0000   9999     0     0     0    
2019/08/10  02:15:01  BASE  6.06816  200  7.47348  191  -5.2  74    -9.1  0     0     981.0    NA       0.0000   9999     0     0     0    
2019/08/10  02:16:01  BASE  6.50916  200  7.47348  191  -5.2  74    -9.1  0     0     981.0    NA       0.0000   9999     0     0     0    
2019/08/10  02:17:01  BASE  6.30924  201  7.47348  191  -5.2  74    -9.0  0     0     981.1    NA       0.0000   9999     0     0     0    
2019/08/10  02:18:01  BASE  5.58012  204  7.2618   193  -5.2  74    -9.0  0     0     981.2    NA       0.0000   9999     0     0     0    
2019/08/10  02:19:01  BASE  5.47428  204  7.02072  195  -5.2  74    -9.0  0     0     981.2    NA       0.0000   9999     0     0     0    
2019/08/10  02:20:01  BASE  5.82708  200  7.02072  195  -5.2  74    -9.0  0     0     981.2    NA       0.0000   9999     0     0     0    
2019/08/10  02:21:01  BASE  5.60952  199  7.02072  195  -5.2  74    -9.0  0     0     981.2    NA       0.0000   9999     0     0     0    
2019/08/10  02:22:01  BASE  5.72124  199  6.98544  201  -5.2  75    -9.0  0     0     981.2    NA       0.0000   9999     0     0     0    
2019/08/10  02:23:01  BASE  5.74476  198  6.98544  201  -5.1  75    -8.9  0     0     981.2    NA       0.0000   9999     0     0     0    
2019/08/10  02:24:01  BASE  5.25672  201  6.98544  201  -5.1  75    -8.9  0     0     981.2    NA       0.0000   9999     0     0     0    
2019/08/10  02:25:01  BASE  5.36844  206  6.98544  201  -5.1  74    -8.9  0     0     981.2    NA       0.0000   9999     0     0     0    
2019/08/10  02:26:01  BASE  5.48604  204  6.65616  205  -5.1  74    -9.0  0     0     981.2    NA       0.0000   9999     0     0     0    
2019/08/10  02:27:01  BASE  5.292    202  6.65616  205  -5.0  74    -9.0  0     0     981.2    NA       0.0000   9999     0     0     0    
2019/08/10  02:28:01  BASE  5.56836  203  6.65616  205  -5.0  73    -9.1  0     0     981.1    NA       0.0000   9999     0     0     0    
2019/08/10  02:29:01  BASE  5.6742   204  6.65616  205  -5.1  73    -9.1  0     0     981.2    NA       0.0000   9999     0     0     0    
2019/08/10  02:30:01  BASE  5.42724  200  6.65616  205  -5.0  73    -9.1  0     0     981.2    NA       0.0000   9999     0     0     0    
2019/08/10  02:31:01  BASE  5.68008  193  7.05012  188  -5.1  73    -9.1  0     0     981.2    NA       0.0000   9999     0     0     0    
2019/08/10  02:32:01  BASE  5.79768  195  7.05012  188  -5.1  73    -9.1  0     0     981.1    NA       0.0000   9999     0     0     0    
2019/08/10  02:33:01  BASE  5.15088  200  7.05012  188  -5.1  73    -9.2  0     0     981.1    NA       0.0000   9999     0     0     0    
2019/08/10  02:34:01  BASE  5.145    202  7.05012  188  -5.1  72    -9.3  0     0     981.0    NA       0.0000   9999     0     0     0    
2019/08/10  02:35:01  BASE  5.81532  203  7.05012  188  -5.1  72    -9.4  0     0     981.0    NA       0.0000   9999     0     0     0    
2019/08/10  02:36:01  BASE  6.17988  203  7.05012  188  -5.1  71    -9.5  0     0     981.0    NA       0.0000   9999     0     0     0    
2019/08/10  02:37:01  BASE  6.00348  205  7.05012  188  -5.1  70    -9.7  0     0     981.0    NA       0.0000   9999     0     0     0    
2019/08/10  02:38:01  BASE  5.99172  205  7.05012  210  -5.1  70    -9.8  0     0     981.0    NA       0.0000   9999     0     0     0    
2019/08/10  02:39:01  BASE  5.77416  205  7.05012  210  -5.1  69    -9.9  0     0     981.0    NA       0.0000   9999     0     0     0    
2019/08/10  02:40:01  BASE  5.02152  201  7.05012  210  -5.0  68    -10.0 0     0     981.0    NA       0.0000   9999     0     0     0    
2019/08/10  02:41:01  BASE  4.36884  196  7.05012  210  -5.0  68    -10.1 0     0     981.1    NA       0.0000   9999     0     0     0    
2019/08/10  02:42:01  BASE  4.56288  198  7.05012  210  -5.1  67    -10.2 0     0     981.1    NA       0.0000   9999     0     0     0    
2019/08/10  02:43:01  BASE  5.50956  207  7.05012  210  -5.1  67    -10.2 0     0     981.0    NA       0.0000   9999     0     0     0    
2019/08/10  02:44:01  BASE  5.84472  208  7.05012  210  -5.1  66    -10.3 0     0     981.0    NA       0.0000   9999     0     0     0    
2019/08/10  02:45:01  BASE  5.73888  205  7.05012  210  -5.0  66    -10.4 0     0     981.0    NA       0.0000   9999     0     0     0    
2019/08/10  02:46:01  BASE  5.62128  207  7.05012  210  -5.0  65    -10.5 0     0     981.0    NA       0.0000   9999     0     0     0    
2019/08/10  02:47:01  BASE  6.18576  211  7.4088   209  -4.9  64    -10.7 0     0     981.0    NA       0.0000   9999     0     0     0    
2019/08/10  02:48:01  BASE  6.36804  206  7.4088   209  -4.9  64    -10.7 0     0     981.0    NA       0.0000   9999     0     0     0    
2019/08/10  02:49:01  BASE  5.94468  197  7.4088   209  -4.9  63    -10.8 0     0     981.0    NA       0.0000   9999     0     0     0    
2019/08/10  02:50:01  BASE  5.91528  190  7.4088   209  -4.8  61    -11.1 0     0     980.9    NA       0.0000   9999     0     0     0    
2019/08/10  02:51:01  BASE  5.91528  189  7.4088   209  -4.8  60    -11.5 0     0     980.9    NA       0.0000   9999     0     0     0    
2019/08/10  02:52:01  BASE  5.74476  185  7.4088   209  -4.8  59    -11.7 0     0     980.9    NA       0.0000   9999     0     0     0    
2019/08/10  02:53:00  BASE  5.22732  181  7.4088   209  -4.9  58    -12.0 0     0     981.0    NA       0.0000   9999     0     0     0    
2019/08/10  02:54:01  BASE  5.28024  186  7.4088   209  -4.9  57    -12.2 0     0     980.9    NA       0.0000   9999     0     0     0    
2019/08/10  02:55:01  BASE  5.83884  188  7.4088   209  -4.9  56    -12.4 0     0     980.9    NA       0.0000   9999     0     0     0    
2019/08/10  02:56:01  BASE  6.9678   187  8.71416  176  -4.9  55    -12.5 0     0     980.8    NA       0.0000   9999     0     0     0    
2019/08/10  02:57:00  BASE  7.23828  182  8.71416  176  -4.9  54    -12.9 0     0     980.9    NA       0.0000   9999     0     0     0    
2019/08/10  02:58:01  BASE  6.50328  177  8.71416  176  -4.9  52    -13.4 0     0     980.9    NA       0.0000   9999     0     0     0    
2019/08/10  02:59:00  BASE  6.62088  180  8.71416  176  -4.9  50    -13.7 0     0     981.0    NA       0.0000   9999     0     0     0    
2019/08/10  03:00:00  BASE  6.7032   182  8.71416  176  -4.9  49    -14.0 0     0     981.0    NA       0.0000   9999     0     0     0    
2019/08/10  03:01:01  BASE  7.1148   180  8.71416  176  -4.9  48    -14.2 0     0     981.0    NA       0.0000   9999     0     0     0    
2019/08/10  03:02:00  BASE  7.41468  182  8.71416  176  -4.9  48    -14.3 0     0     981.0    NA       0.0000   9999     0     0     0    
2019/08/10  03:03:00  BASE  7.1442   181  8.71416  176  -4.9  47    -14.4 0     0     981.1    NA       0.0000   9999     0     0     0    
2019/08/10  03:04:00  BASE  6.93252  178  8.71416  176  -4.8  48    -14.3 0     0     981.0    NA       0.0000   9999     0     0     0    
2019/08/10  03:05:01  BASE  6.909    179  8.71416  176  -4.8  48    -14.3 0     0     981.0    NA       0.0000   9999     0     0     0    
2019/08/10  03:06:01  BASE  7.1736   181  8.53188  182  -4.9  48    -14.3 0     0     981.0    NA       0.0000   9999     0     0     0    
2019/08/10  03:07:00  BASE  7.056    175  8.53188  182  -4.9  47    -14.4 0     0     981.0    NA       0.0000   9999     0     0     0    
2019/08/10  03:08:01  BASE  6.92664  172  8.53188  182  -4.8  47    -14.5 0     0     981.0    NA       0.0000   9999     0     0     0    
2019/08/10  03:09:00  BASE  7.44408  173  8.71416  171  -4.8  46    -14.6 0     0     981.0    NA       0.0000   9999     0     0     0    
2019/08/10  03:10:00  BASE  7.20888  168  8.71416  171  -4.8  46    -14.8 0     0     981.0    NA       0.0000   9999     0     0     0    
2019/08/10  03:11:00  BASE  6.57384  167  8.71416  171  -4.8  45    -14.9 0     0     981.0    NA       0.0000   9999     0     0     0    
2019/08/10  03:12:00  BASE  6.5856   170  8.71416  171  -4.8  45    -14.8 0     0     981.1    NA       0.0000   9999     0     0     0    
2019/08/10  03:13:00  BASE  6.321    165  8.71416  171  -4.9  46    -14.7 0     0     981.1    NA       0.0000   9999     0     0     0    
2019/08/10  03:14:01  BASE  5.68596  162  8.71416  171  -4.9  46    -14.7 0     0     981.2    NA       0.0000   9999     0     0     0    
2019/08/10  03:15:00  BASE  5.88588  166  8.71416  171  -5.0  47    -14.6 0     0     981.2    NA       0.0000   9999     0     0     0    
2019/08/10  03:16:00  BASE  6.45036  166  8.71416  171  -5.0  48    -14.4 0     0     981.2    NA       0.0000   9999     0     0     0    
2019/08/10  03:17:00  BASE  6.29748  165  8.71416  171  -5.0  48    -14.4 0     0     981.2    NA       0.0000   9999     0     0     0    
2019/08/10  03:18:00  BASE  6.027    165  8.71416  171  -5.0  47    -14.5 0     0     981.2    NA       0.0000   9999     0     0     0    
2019/08/10  03:19:00  BASE  5.9682   167  7.2618   167  -5.0  47    -14.5 0     0     981.2    NA       0.0000   9999     0     0     0    
2019/08/10  03:20:00  BASE  5.94468  171  7.2618   167  -5.1  48    -14.4 0     0     981.2    NA       0.0000   9999     0     0     0    
2019/08/10  03:21:00  BASE  5.68596  170  6.98544  166  -5.1  48    -14.4 0     0     981.2    NA       0.0000   9999     0     0     0    
2019/08/10  03:22:00  BASE  5.33904  171  6.98544  166  -5.1  48    -14.4 0     0     981.2    NA       0.0000   9999     0     0     0    
2019/08/10  03:23:00  BASE  4.95684  176  6.98544  166  -5.1  48    -14.4 0     0     981.2    NA       0.0000   9999     0     0     0    
2019/08/10  03:24:00  BASE  4.6158   175  6.98544  166  -5.1  48    -14.3 0     0     981.2    NA       0.0000   9999     0     0     0    
2019/08/10  03:25:00  BASE  4.48644  173  6.98544  166  -5.1  49    -14.3 0     0     981.2    NA       0.0000   9999     0     0     0    
2019/08/10  03:26:00  BASE  4.6452   172  6.65616  166  -5.1  49    -14.1 0     0     981.2    NA       0.0000   9999     0     0     0    
2019/08/10  03:27:00  BASE  4.998    170  6.65616  166  -5.2  50    -14.0 0     0     981.2    NA       0.0000   9999     0     0     0    
2019/08/10  03:28:00  BASE  5.18616  169  6.65616  166  -5.2  50    -13.9 0     0     981.2    NA       0.0000   9999     0     0     0    
2019/08/10  03:29:00  BASE  5.26848  169  6.53268  170  -5.2  51    -13.9 0     0     981.2    NA       0.0000   9999     0     0     0    
2019/08/10  03:30:00  BASE  5.2626   167  5.78004  162  -5.2  51    -13.8 0     0     981.2    NA       0.0000   9999     0     0     0    
2019/08/10  03:31:00  BASE  5.32728  164  5.68596  168  -5.2  51    -13.9 0     0     981.2    NA       0.0000   9999     0     0     0    
2019/08/10  03:32:01  BASE  5.35668  164  5.86824  171  -5.2  50    -14.0 0     0     981.2    NA       0.0000   9999     0     0     0    
2019/08/10  03:33:00  BASE  5.49192  161  6.62676  168  -5.2  50    -14.0 0     0     981.2    NA       0.0000   9999     0     0     0    
2019/08/10  03:34:00  BASE  5.53308  159  6.62676  168  -5.2  50    -14.0 0     0     981.2    NA       0.0000   9999     0     0     0    
2019/08/10  03:35:00  BASE  5.91528  160  7.02072  164  -5.2  50    -13.9 0     0     981.2    NA       0.0000   9999     0     0     0    
2019/08/10  03:36:00  BASE  6.28572  157  7.2324   144  -5.2  51    -13.9 0     0     981.2    NA       0.0000   9999     0     0     0    
2019/08/10  03:37:00  BASE  5.86824  154  7.2324   144  -5.2  51    -13.8 0     0     981.2    NA       0.0000   9999     0     0     0    
2019/08/10  03:38:00  BASE  5.75652  156  7.2324   144  -5.2  51    -13.8 0     0     981.2    NA       0.0000   9999     0     0     0    
2019/08/10  03:39:00  BASE  6.2916   155  8.22612  147  -5.2  51    -13.7 0     0     981.2    NA       0.0000   9999     0     0     0    
2019/08/10  03:40:00  BASE  7.09128  149  8.25552  153  -5.1  51    -13.8 0     0     981.2    NA       0.0000   9999     0     0     0    
2019/08/10  03:41:00  BASE  7.33824  145  8.74356  146  -5.1  50    -13.9 0     0     981.2    NA       0.0000   9999     0     0     0    
2019/08/10  03:42:00  BASE  7.29708  147  8.74356  146  -5.0  49    -14.0 0     0     981.3    NA       0.0000   9999     0     0     0    
2019/08/10  03:43:00  BASE  7.31472  148  8.74356  146  -5.0  49    -14.1 0     0     981.3    NA       0.0000   9999     0     0     0    
2019/08/10  03:44:00  BASE  7.0266   148  8.74356  146  -5.0  49    -14.1 0     0     981.3    NA       0.0000   9999     0     0     0    
2019/08/10  03:45:00  BASE  7.23828  151  10.3782  158  -5.0  49    -14.0 0     0     981.3    NA       0.0000   9999     0     0     0    
2019/08/10  03:46:00  BASE  8.97288  151  10.9192  150  -5.0  50    -13.8 0     0     981.2    NA       0.0000   9999     0     0     0    
2019/08/10  03:47:00  BASE  9.62556  149  10.9192  150  -5.0  50    -13.8 0     0     981.2    NA       0.0000   9999     0     0     0    
2019/08/10  03:48:00  BASE  8.74944  152  10.9192  150  -5.0  49    -14.0 0     0     981.3    NA       0.0000   9999     0     0     0    
2019/08/10  03:49:00  BASE  9.32568  157  11.5248  164  -5.0  49    -14.0 0     0     981.3    NA       0.0000   9999     0     0     0    
2019/08/10  03:50:00  BASE  10.1665  154  11.6483  136  -5.0  49    -14.1 0     0     981.3    NA       0.0000   9999     0     0     0    
2019/08/10  03:51:00  BASE  10.39    144  11.6483  136  -5.0  49    -14.2 0     0     981.3    NA       0.0000   9999     0     0     0    
2019/08/10  03:52:00  BASE  10.19    144  11.6483  136  -5.0  49    -14.0 0     0     981.3    NA       0.0000   9999     0     0     0    
2019/08/10  03:53:00  BASE  9.9372   150  11.9776  149  -5.0  50    -13.8 0     0     981.3    NA       0.0000   9999     0     0     0    
2019/08/10  03:54:00  BASE  9.97248  155  11.9776  149  -5.0  52    -13.4 0     0     981.4    NA       0.0000   9999     0     0     0    
2019/08/10  03:55:00  BASE  9.13752  166  11.9776  149  -5.1  54    -13.0 0     0     981.4    NA       0.0000   9999     0     0     0    
2019/08/10  03:56:00  BASE  8.62008  177  11.9776  149  -5.1  57    -12.4 0     0     981.5    NA       0.0000   9999     0     0     0    
2019/08/10  03:57:00  BASE  8.88468  186  11.9776  149  -5.1  60    -11.8 0     0     981.5    NA       0.0000   9999     0     0     0    
2019/08/10  03:58:00  BASE  8.67888  191  11.9776  149  -5.2  63    -11.1 0     0     981.5    NA       0.0000   9999     0     0     0    
2019/08/10  03:59:00  BASE  7.9674   191  11.9776  149  -5.3  67    -10.5 0     0     981.5    NA       0.0000   9999     0     0     0    
2019/08/10  04:00:00  BASE  7.10304  190  11.9776  149  -5.3  69    -10.1 0     0     981.6    NA       0.0000   9999     0     0     0    
2019/08/10  04:01:00  BASE  7.49112  191  11.9776  149  -5.4  71    -9.8  0     0     981.5    NA       0.0000   9999     0     0     0    
2019/08/10  04:03:00  BASE  8.89644  188  11.9776  149  -5.5  73    -9.5  0     0     981.4    NA       0.0000   9999     0     0     0    
2019/08/10  04:04:01  BASE  9.3492   191  11.0132  177  -5.5  74    -9.4  0     0     981.4    NA       0.0000   9999     0     0     0    
2019/08/10  04:05:00  BASE  9.16692  195  11.0132  177  -5.5  75    -9.3  0     0     981.4    NA       0.0000   9999     0     0     0    
2019/08/10  04:06:01  BASE  9.0258   197  11.0132  177  -5.6  76    -9.1  0     0     981.5    NA       0.0000   9999     0     0     0    
2019/08/10  04:07:01  BASE  8.48484  198  11.0132  177  -5.5  76    -9.1  0     0     981.6    NA       0.0000   9999     0     0     0    
2019/08/10  04:08:01  BASE  7.5558   192  11.0132  177  -5.6  77    -9.0  0     0     981.6    NA       0.0000   9999     0     0     0    
2019/08/10  04:09:00  BASE  7.39116  181  11.0132  177  -5.6  77    -9.0  0     0     981.5    NA       0.0000   9999     0     0     0    
2019/08/10  04:10:00  BASE  8.12028  182  11.0132  177  -5.6  78    -8.9  0     0     981.6    NA       0.0000   9999     0     0     0    
2019/08/10  04:11:00  BASE  7.57932  188  11.0132  177  -5.7  78    -8.9  0     0     981.7    NA       0.0000   9999     0     0     0    
2019/08/10  04:12:01  BASE  6.16224  183  11.0132  177  -5.7  78    -8.8  0     0     981.7    NA       0.0000   9999     0     0     0    
2019/08/10  04:13:00  BASE  6.30924  180  10.1018  203  -5.7  79    -8.8  0     0     981.7    NA       0.0000   9999     0     0     0    
2019/08/10  04:14:00  BASE  7.15008  187  10.1018  203  -5.7  79    -8.8  0     0     981.7    NA       0.0000   9999     0     0     0    
2019/08/10  04:15:00  BASE  7.5264   191  9.59028  196  -5.7  79    -8.8  0     0     981.8    NA       0.0000   9999     0     0     0    
2019/08/10  04:16:01  BASE  7.73808  195  9.56088  184  -5.7  79    -8.7  0     0     981.8    NA       0.0000   9999     0     0     0    
2019/08/10  04:17:00  BASE  7.67928  199  9.56088  184  -5.7  79    -8.7  0     0     981.8    NA       0.0000   9999     0     0     0    
2019/08/10  04:18:01  BASE  7.44408  203  9.56088  184  -5.7  80    -8.7  0     0     981.8    NA       0.0000   9999     0     0     0    
2019/08/10  04:19:00  BASE  7.75572  203  9.56088  184  -5.7  80    -8.6  0     0     981.8    NA       0.0000   9999     0     0     0    
2019/08/10  04:20:00  BASE  8.07912  203  9.3786   187  -5.7  80    -8.6  0     0     981.8    NA       0.0000   9999     0     0     0    
2019/08/10  04:21:00  BASE  7.70868  203  9.3786   187  -5.7  80    -8.6  0     0     981.8    NA       0.0000   9999     0     0     0    
2019/08/10  04:22:00  BASE  6.95604  199  9.3786   187  -5.7  80    -8.6  0     0     981.8    NA       0.0000   9999     0     0     0    
2019/08/10  04:23:00  BASE  7.35     199  9.3786   187  -5.6  80    -8.5  0     0     981.7    NA       0.0000   9999     0     0     0    
2019/08/10  04:24:00  BASE  7.57344  200  9.10224  202  -5.6  80    -8.5  0     0     981.8    NA       0.0000   9999     0     0     0    
2019/08/10  04:25:00  BASE  6.99132  201  9.10224  202  -5.6  81    -8.4  0     0     981.8    NA       0.0000   9999     0     0     0    
2019/08/10  04:26:00  BASE  7.54404  202  9.10224  202  -5.6  81    -8.4  0     0     981.8    NA       0.0000   9999     0     0     0    
2019/08/10  04:27:00  BASE  8.28492  202  9.10224  202  -5.6  81    -8.4  0     0     981.8    NA       0.0000   9999     0     0     0    
2019/08/10  04:28:00  BASE  8.42016  204  9.13752  203  -5.7  81    -8.4  0     0     981.8    NA       0.0000   9999     0     0     0    
2019/08/10  04:29:00  BASE  8.31432  205  9.13752  203  -5.6  81    -8.4  0     0     981.8    NA       0.0000   9999     0     0     0    
2019/08/10  04:30:00  BASE  7.938    203  9.13752  203  -5.6  81    -8.4  0     0     981.8    NA       0.0000   9999     0     0     0    
2019/08/10  04:31:00  BASE  7.44996  202  9.13752  203  -5.7  81    -8.4  0     0     981.9    NA       0.0000   9999     0     0     0    
2019/08/10  04:32:01  BASE  7.50876  205  9.13752  203  -5.7  81    -8.4  0     0     981.9    NA       0.0000   9999     0     0     0    
2019/08/10  04:33:00  BASE  8.6436   207  9.98424  207  -5.6  81    -8.3  0     0     981.8    NA       0.0000   9999     0     0     0    
2019/08/10  04:34:00  BASE  9.12576  208  9.98424  207  -5.7  82    -8.3  0     0     981.9    NA       0.0000   9999     0     0     0    
2019/08/10  04:35:00  BASE  8.5848   209  9.98424  207  -5.7  82    -8.3  0     0     981.9    NA       0.0000   9999     0     0     0    
2019/08/10  04:36:00  BASE  8.06736  208  9.98424  207  -5.7  82    -8.3  0     0     981.9    NA       0.0000   9999     0     0     0    
2019/08/10  04:37:00  BASE  7.30296  207  9.98424  207  -5.7  82    -8.3  0     0     982.0    NA       0.0000   9999     0     0     0    
2019/08/10  04:38:00  BASE  6.77376  209  9.98424  207  -5.7  82    -8.3  0     0     982.0    NA       0.0000   9999     0     0     0    
2019/08/10  04:39:00  BASE  6.69144  210  9.98424  207  -5.7  82    -8.3  0     0     982.1    NA       0.0000   9999     0     0     0    
2019/08/10  04:40:00  BASE  6.82668  212  9.98424  207  -5.7  82    -8.3  0     0     982.1    NA       0.0000   9999     0     0     0    
2019/08/10  04:41:01  BASE  7.15596  207  9.98424  207  -5.7  82    -8.2  0     0     982.1    NA       0.0000   9999     0     0     0    
2019/08/10  04:42:00  BASE  7.4088   202  9.98424  207  -5.7  82    -8.2  0     0     982.1    NA       0.0000   9999     0     0     0    
2019/08/10  04:43:00  BASE  7.40292  204  9.83136  212  -5.7  82    -8.2  0     0     982.1    NA       0.0000   9999     0     0     0    
2019/08/10  04:44:00  BASE  7.7616   205  9.10224  208  -5.7  83    -8.2  0     0     982.1    NA       0.0000   9999     0     0     0    
2019/08/10  04:45:00  BASE  7.9086   207  9.01404  209  -5.7  83    -8.2  0     0     982.1    NA       0.0000   9999     0     0     0    
2019/08/10  04:46:01  BASE  7.87332  209  9.01404  210  -5.7  83    -8.2  0     0     982.1    NA       0.0000   9999     0     0     0    
2019/08/10  04:47:00  BASE  8.4084   210  9.13752  210  -5.7  83    -8.1  0     0     982.1    NA       0.0000   9999     0     0     0    
2019/08/10  04:48:00  BASE  8.3496   213  9.13752  210  -5.7  83    -8.2  0     0     982.1    NA       0.0000   9999     0     0     0    
2019/08/10  04:49:00  BASE  7.89684  213  9.13752  210  -5.7  83    -8.2  0     0     982.1    NA       0.0000   9999     0     0     0    
2019/08/10  04:50:00  BASE  7.47348  211  9.13752  210  -5.7  83    -8.2  0     0     982.1    NA       0.0000   9999     0     0     0    
2019/08/10  04:51:00  BASE  7.68516  207  9.59028  201  -5.8  83    -8.2  0     0     982.1    NA       0.0000   9999     0     0     0    
2019/08/10  04:52:00  BASE  8.12028  208  9.59028  201  -5.8  83    -8.2  0     0     982.1    NA       0.0000   9999     0     0     0    
2019/08/10  04:53:00  BASE  7.70868  212  9.59028  201  -5.8  83    -8.2  0     0     982.2    NA       0.0000   9999     0     0     0    
2019/08/10  04:54:01  BASE  7.38528  213  9.59028  201  -5.8  83    -8.2  0     0     982.2    NA       0.0000   9999     0     0     0    
2019/08/10  04:55:00  BASE  7.76748  214  9.59028  201  -5.8  83    -8.2  0     0     982.2    NA       0.0000   9999     0     0     0    
2019/08/10  04:56:00  BASE  8.16732  212  9.59028  201  -5.7  83    -8.1  0     0     982.1    NA       0.0000   9999     0     0     0    
2019/08/10  04:57:00  BASE  8.232    209  9.59028  201  -5.7  84    -8.0  0     0     982.1    NA       0.0000   9999     0     0     0    
2019/08/10  04:58:00  BASE  8.27904  211  9.59028  201  -5.7  84    -8.0  0     0     982.2    NA       0.0000   9999     0     0     0    
2019/08/10  04:59:00  BASE  8.21436  212  9.59028  201  -5.7  84    -7.9  0     0     982.2    NA       0.0000   9999     0     0     0    
2019/08/10  05:00:00  BASE  8.39076  211  9.98424  205  -5.7  84    -7.9  0     0     982.1    NA       0.0000   9999     0     0     0    
2019/08/10  05:01:00  BASE  8.48484  209  9.98424  205  -5.7  84    -7.9  0     0     982.2    NA       0.0000   9999     0     0     0    
2019/08/10  05:02:00  BASE  8.03796  213  9.98424  205  -5.7  84    -8.0  0     0     982.2    NA       0.0000   9999     0     0     0    
2019/08/10  05:03:00  BASE  7.80864  214  9.98424  205  -5.7  84    -8.0  0     0     982.2    NA       0.0000   9999     0     0     0    
2019/08/10  05:04:00  BASE  7.98504  210  9.98424  205  -5.7  84    -7.9  0     0     982.2    NA       0.0000   9999     0     0     0    
2019/08/10  05:05:00  BASE  7.38528  211  9.98424  205  -5.7  84    -7.9  0     0     982.2    NA       0.0000   9999     0     0     0    
2019/08/10  05:06:00  BASE  7.59108  209  9.98424  205  -5.7  84    -8.0  0     0     982.2    NA       0.0000   9999     0     0     0    
2019/08/10  05:07:00  BASE  7.84392  206  9.98424  205  -5.6  84    -8.0  0     0     982.2    NA       0.0000   9999     0     0     0    
2019/08/10  05:08:00  BASE  6.6738   209  9.98424  205  -5.6  83    -8.0  0     0     982.3    NA       0.0000   9999     0     0     0    
2019/08/10  05:09:00  BASE  6.06228  208  9.98424  205  -5.6  83    -8.0  0     0     982.3    NA       0.0000   9999     0     0     0    
2019/08/10  05:10:00  BASE  5.92704  208  9.13752  212  -5.5  83    -8.0  0     0     982.3    NA       0.0000   9999     0     0     0    
2019/08/10  05:11:00  BASE  5.83884  211  8.98464  197  -5.5  83    -8.0  0     0     982.3    NA       0.0000   9999     0     0     0    
2019/08/10  05:12:00  BASE  5.84472  205  8.98464  197  -5.5  82    -8.0  0     0     982.3    NA       0.0000   9999     0     0     0    
2019/08/10  05:13:00  BASE  5.92116  201  8.98464  197  -5.5  82    -8.1  0     0     982.3    NA       0.0000   9999     0     0     0    
2019/08/10  05:14:00  BASE  6.24456  199  8.98464  197  -5.5  82    -8.1  0     0     982.3    NA       0.0000   9999     0     0     0    
2019/08/10  05:15:00  BASE  5.7918   192  8.98464  197  -5.5  81    -8.2  0     0     982.3    NA       0.0000   9999     0     0     0    
2019/08/10  05:16:00  BASE  5.13324  188  8.07912  206  -5.5  81    -8.3  0     0     982.3    NA       0.0000   9999     0     0     0    
2019/08/10  05:17:00  BASE  4.72164  192  7.3794   193  -5.5  80    -8.4  0     0     982.3    NA       0.0000   9999     0     0     0    
2019/08/10  05:18:00  BASE  4.85688  201  7.3794   193  -5.5  79    -8.6  0     0     982.3    NA       0.0000   9999     0     0     0    
2019/08/10  05:19:00  BASE  5.25672  186  7.3794   193  -5.5  78    -8.7  0     0     982.3    NA       0.0000   9999     0     0     0    
2019/08/10  05:20:00  BASE  5.0274   158  7.3794   193  -5.4  77    -8.9  0     0     982.3    NA       0.0000   9999     0     0     0    
2019/08/10  05:21:00  BASE  5.439    146  7.3794   193  -5.4  75    -9.1  0     0     982.3    NA       0.0000   9999     0     0     0    
2019/08/10  05:22:00  BASE  5.75064  143  7.3794   193  -5.4  74    -9.4  0     0     982.3    NA       0.0000   9999     0     0     0    
2019/08/10  05:23:00  BASE  5.44488  143  7.3794   193  -5.4  71    -9.9  0     0     982.3    NA       0.0000   9999     0     0     0    
2019/08/10  05:24:00  BASE  4.97448  144  6.86784  138  -5.5  68    -10.4 0     0     982.3    NA       0.0000   9999     0     0     0    
2019/08/10  05:25:00  BASE  4.76868  143  6.86784  138  -5.5  65    -11.0 0     0     982.3    NA       0.0000   9999     0     0     0    
2019/08/10  05:26:00  BASE  4.47468  141  6.86784  138  -5.5  62    -11.6 0     0     982.3    NA       0.0000   9999     0     0     0    
2019/08/10  05:27:00  BASE  4.12188  139  6.86784  138  -5.5  60    -12.1 0     0     982.4    NA       0.0000   9999     0     0     0    
2019/08/10  05:28:00  BASE  4.26888  138  6.86784  138  -5.5  58    -12.4 0     0     982.4    NA       0.0000   9999     0     0     0    
2019/08/10  05:29:00  BASE  4.52172  138  6.86784  138  -5.5  57    -12.6 0     0     982.4    NA       0.0000   9999     0     0     0    
2019/08/10  05:30:00  BASE  4.69812  136  6.86784  138  -5.5  57    -12.7 0     0     982.4    NA       0.0000   9999     0     0     0    
2019/08/10  05:31:00  BASE  4.82748  140  6.321    137  -5.5  57    -12.7 0     0     982.4    NA       0.0000   9999     0     0     0    
2019/08/10  05:32:00  BASE  4.4688   140  5.74476  149  -5.5  57    -12.8 0     0     982.5    NA       0.0000   9999     0     0     0    
2019/08/10  05:33:00  BASE  4.1454   131  5.74476  149  -5.5  56    -12.9 0     0     982.6    NA       0.0000   9999     0     0     0    
2019/08/10  05:34:00  BASE  4.10424  127  5.74476  149  -5.5  56    -12.9 0     0     982.6    NA       0.0000   9999     0     0     0    
2019/08/10  05:35:00  BASE  4.26888  124  5.74476  149  -5.5  56    -12.9 0     0     982.6    NA       0.0000   9999     0     0     0    
2019/08/10  05:36:00  BASE  5.41548  124  7.53228  125  -5.5  56    -12.9 0     0     982.5    NA       0.0000   9999     0     0     0    
2019/08/10  05:37:00  BASE  7.12656  130  8.77296  134  -5.6  57    -12.8 0     0     982.5    NA       0.0000   9999     0     0     0    
2019/08/10  05:38:00  BASE  7.96152  132  8.77296  134  -5.6  58    -12.6 0     0     982.5    NA       0.0000   9999     0     0     0    
2019/08/10  05:39:00  BASE  7.53228  131  8.77296  134  -5.5  58    -12.4 0     0     982.5    NA       0.0000   9999     0     0     0    
2019/08/10  05:40:00  BASE  7.02072  132  8.77296  134  -5.5  59    -12.2 0     0     982.5    NA       0.0000   9999     0     0     0    
2019/08/10  05:41:00  BASE  6.63264  136  8.77296  134  -5.5  60    -12.0 0     0     982.5    NA       0.0000   9999     0     0     0    
2019/08/10  05:42:00  BASE  6.94428  140  8.77296  134  -5.5  61    -11.8 0     0     982.5    NA       0.0000   9999     0     0     0    
2019/08/10  05:43:00  BASE  6.91488  136  8.77296  134  -5.5  62    -11.6 0     0     982.5    NA       0.0000   9999     0     0     0    
2019/08/10  05:44:00  BASE  6.1446   133  8.77296  134  -5.5  63    -11.4 0     0     982.5    NA       0.0000   9999     0     0     0    
2019/08/10  05:45:00  BASE  6.15048  137  8.77296  134  -5.5  64    -11.2 0     0     982.4    NA       0.0000   9999     0     0     0    
2019/08/10  05:46:00  BASE  5.99172  140  8.77296  134  -5.5  65    -11.1 0     0     982.4    NA       0.0000   9999     0     0     0    
2019/08/10  05:47:00  BASE  5.72712  146  8.77296  134  -5.5  65    -11.1 0     0     982.4    NA       0.0000   9999     0     0     0    
2019/08/10  05:48:00  BASE  5.88588  151  8.3202   143  -5.5  65    -11.0 0     0     982.4    NA       0.0000   9999     0     0     0    
2019/08/10  05:49:00  BASE  5.78004  156  8.3202   143  -5.5  65    -11.0 0     0     982.4    NA       0.0000   9999     0     0     0    
2019/08/10  05:50:00  BASE  5.86824  164  8.3202   143  -5.5  66    -11.0 0     0     982.4    NA       0.0000   9999     0     0     0    
2019/08/10  05:51:00  BASE  6.41508  170  8.3202   143  -5.5  66    -10.8 0     0     982.4    NA       0.0000   9999     0     0     0    
2019/08/10  05:52:00  BASE  7.15596  179  8.19672  185  -5.5  67    -10.7 0     0     982.5    NA       0.0000   9999     0     0     0    
2019/08/10  05:53:00  BASE  7.48524  198  8.3202   208  -5.5  68    -10.6 0     0     982.6    NA       0.0000   9999     0     0     0    
2019/08/10  05:54:00  BASE  7.62048  218  8.77296  219  -5.5  68    -10.4 0     0     982.6    NA       0.0000   9999     0     0     0    
2019/08/10  05:55:00  BASE  7.62048  226  8.77296  219  -5.6  70    -10.3 0     0     982.6    NA       0.0000   9999     0     0     0    
2019/08/10  05:56:00  BASE  7.7028   225  8.77296  219  -5.6  71    -10.1 0     0     982.6    NA       0.0000   9999     0     0     0    
2019/08/10  05:57:00  BASE  7.62636  225  8.77296  219  -5.7  72    -9.9  0     0     982.6    NA       0.0000   9999     0     0     0    
2019/08/10  05:58:00  BASE  7.24416  226  8.77296  219  -5.8  74    -9.7  0     0     982.7    NA       0.0000   9999     0     0     0    
2019/08/10  05:59:00  BASE  7.35     223  8.77296  219  -5.8  75    -9.5  0     0     982.7    NA       0.0000   9999     0     0     0    
2019/08/10  06:00:00  BASE  7.60284  219  8.77296  219  -5.9  77    -9.3  0     0     982.7    NA       0.0000   9999     0     0     0    
2019/08/10  06:01:00  BASE  7.5264   217  8.77296  219  -5.9  78    -9.1  0     0     982.8    NA       0.0000   9999     0     0     0    
2019/08/10  06:02:00  BASE  7.68516  217  8.77296  219  -5.9  79    -9.0  0     0     982.8    NA       0.0000   9999     0     0     0    
2019/08/10  06:03:00  BASE  7.7616   218  8.77296  219  -5.9  79    -8.9  0     0     982.8    NA       0.0000   9999     0     0     0    
2019/08/10  06:04:00  BASE  7.79688  217  8.64948  218  -5.9  80    -8.9  0     0     982.8    NA       0.0000   9999     0     0     0    
2019/08/10  06:05:00  BASE  7.82628  213  8.64948  218  -6.0  80    -8.9  0     0     982.8    NA       0.0000   9999     0     0     0    
2019/08/10  06:06:00  BASE  7.25592  209  8.64948  218  -6.0  80    -8.9  0     0     982.8    NA       0.0000   9999     0     0     0    
2019/08/10  06:07:00  BASE  7.06776  210  8.64948  218  -6.1  81    -8.9  0     0     982.8    NA       0.0000   9999     0     0     0    
2019/08/10  06:08:00  BASE  7.59108  211  8.74356  210  -6.1  81    -8.8  0     0     982.8    NA       0.0000   9999     0     0     0    
2019/08/10  06:09:00  BASE  7.97328  213  8.74356  210  -6.1  81    -8.8  0     0     982.8    NA       0.0000   9999     0     0     0    
2019/08/10  06:10:00  BASE  7.80864  214  8.74356  210  -6.1  82    -8.8  0     0     982.9    NA       0.0000   9999     0     0     0    
2019/08/10  06:11:00  BASE  7.43232  213  8.74356  210  -6.1  82    -8.7  0     0     982.9    NA       0.0000   9999     0     0     0    
2019/08/10  06:12:00  BASE  7.07364  216  8.74356  210  -6.2  82    -8.7  0     0     982.9    NA       0.0000   9999     0     0     0    
2019/08/10  06:13:00  BASE  7.36764  218  8.74356  210  -6.2  82    -8.7  0     0     982.9    NA       0.0000   9999     0     0     0    
2019/08/10  06:14:00  BASE  8.1144   217  9.04344  215  -6.2  83    -8.7  0     0     982.9    NA       0.0000   9999     0     0     0    
2019/08/10  06:15:00  BASE  7.93212  213  9.04344  215  -6.2  83    -8.7  0     0     982.9    NA       0.0000   9999     0     0     0    
2019/08/10  06:16:00  BASE  7.35     211  9.04344  215  -6.2  83    -8.7  0     0     982.9    NA       0.0000   9999     0     0     0    
2019/08/10  06:17:00  BASE  7.57344  215  9.04344  215  -6.3  83    -8.6  0     0     982.9    NA       0.0000   9999     0     0     0    
2019/08/10  06:18:00  BASE  7.98504  218  9.04344  215  -6.3  83    -8.6  0     0     982.9    NA       0.0000   9999     0     0     0    
2019/08/10  06:19:00  BASE  7.87332  215  9.04344  215  -6.3  84    -8.6  0     0     983.0    NA       0.0000   9999     0     0     0    
2019/08/10  06:20:00  BASE  7.30296  212  9.04344  215  -6.3  84    -8.6  0     0     983.1    NA       0.0000   9999     0     0     0    
2019/08/10  06:21:00  BASE  7.27944  215  9.04344  215  -6.3  84    -8.6  0     0     983.1    NA       0.0000   9999     0     0     0    
2019/08/10  06:22:00  BASE  7.70868  215  9.04344  215  -6.3  84    -8.5  0     0     983.1    NA       0.0000   9999     0     0     0    
2019/08/10  06:23:00  BASE  7.41468  210  9.04344  215  -6.3  84    -8.5  0     0     983.1    NA       0.0000   9999     0     0     0    
2019/08/10  06:24:00  BASE  6.46212  209  8.56128  220  -6.3  85    -8.5  0     0     983.2    NA       0.0000   9999     0     0     0    
2019/08/10  06:25:00  BASE  6.63264  211  8.56128  220  -6.4  85    -8.5  0     0     983.2    NA       0.0000   9999     0     0     0    
2019/08/10  06:26:00  BASE  7.36764  212  8.56128  220  -6.4  85    -8.5  0     0     983.2    NA       0.0000   9999     0     0     0    
2019/08/10  06:27:00  BASE  7.31472  212  8.56128  220  -6.4  85    -8.5  0     0     983.3    NA       0.0000   9999     0     0     0    
2019/08/10  06:28:00  BASE  7.03248  212  8.25552  215  -6.4  85    -8.5  0     0     983.3    NA       0.0000   9999     0     0     0    
2019/08/10  06:29:00  BASE  6.75024  211  8.25552  215  -6.4  85    -8.4  0     0     983.3    NA       0.0000   9999     0     0     0    
2019/08/10  06:30:00  BASE  6.9384   211  8.25552  215  -6.3  85    -8.4  0     0     983.3    NA       0.0000   9999     0     0     0    
2019/08/10  06:31:00  BASE  7.00896  207  8.25552  215  -6.3  86    -8.4  0     0     983.3    NA       0.0000   9999     0     0     0    
2019/08/10  06:32:00  BASE  7.05012  205  8.13792  209  -6.3  86    -8.3  0     0     983.3    NA       0.0000   9999     0     0     0    
2019/08/10  06:33:00  BASE  7.34412  209  8.4084   215  -6.3  86    -8.3  0     0     983.3    NA       0.0000   9999     0     0     0    
2019/08/10  06:34:00  BASE  7.10892  210  8.4084   215  -6.3  86    -8.3  0     0     983.3    NA       0.0000   9999     0     0     0    
2019/08/10  06:35:00  BASE  6.98544  206  8.4084   215  -6.4  86    -8.3  0     0     983.3    NA       0.0000   9999     0     0     0    
2019/08/10  06:36:00  BASE  7.07364  209  8.4084   215  -6.4  86    -8.3  0     0     983.3    NA       0.0000   9999     0     0     0    
2019/08/10  06:37:00  BASE  7.09128  212  8.4084   215  -6.3  86    -8.2  0     0     983.3    NA       0.0000   9999     0     0     0    
2019/08/10  06:38:00  BASE  7.15008  212  8.4084   215  -6.4  87    -8.2  0     0     983.3    NA       0.0000   9999     0     0     0    
2019/08/10  06:39:00  BASE  7.23828  212  8.4084   215  -6.4  87    -8.2  0     0     983.3    NA       0.0000   9999     0     0     0    
2019/08/10  06:40:00  BASE  7.12656  211  8.4084   215  -6.4  87    -8.2  0     0     983.3    NA       0.0000   9999     0     0     0    
2019/08/10  06:41:00  BASE  7.15008  208  8.4084   215  -6.4  87    -8.2  0     0     983.2    NA       0.0000   9999     0     0     0    
2019/08/10  06:42:00  BASE  7.19124  205  8.4084   215  -6.4  87    -8.2  0     0     983.3    NA       0.0000   9999     0     0     0    
2019/08/10  06:43:00  BASE  6.93252  207  8.07912  208  -6.4  87    -8.1  0     0     983.3    NA       0.0000   9999     0     0     0    
2019/08/10  06:44:00  BASE  7.35     212  8.4378   212  -6.4  88    -8.1  0     0     983.3    NA       0.0000   9999     0     0     0    
2019/08/10  06:45:00  BASE  7.77924  216  8.71416  218  -6.4  88    -8.1  0     0     983.3    NA       0.0000   9999     0     0     0    
2019/08/10  06:46:00  BASE  7.938    217  8.92584  214  -6.4  88    -8.1  0     0     983.4    NA       0.0000   9999     0     0     0    
2019/08/10  06:47:00  BASE  7.79688  215  8.92584  214  -6.4  88    -8.0  0     0     983.4    NA       0.0000   9999     0     0     0    
2019/08/10  06:48:00  BASE  7.59696  217  8.92584  214  -6.4  88    -8.0  0     0     983.4    NA       0.0000   9999     0     0     0    
2019/08/10  06:49:00  BASE  7.7616   218  8.92584  214  -6.4  89    -8.0  0     0     983.5    NA       0.0000   9999     0     0     0    
2019/08/10  06:50:00  BASE  7.84392  217  8.92584  214  -6.4  89    -7.9  0     0     983.4    NA       0.0000   9999     0     0     0    
2019/08/10  06:51:00  BASE  7.91448  215  8.92584  214  -6.4  89    -7.9  0     0     983.4    NA       0.0000   9999     0     0     0    
2019/08/10  06:52:00  BASE  7.9086   215  8.92584  214  -6.4  90    -7.9  0     0     983.5    NA       0.0000   9999     0     0     0    
2019/08/10  06:53:00  BASE  7.63812  216  8.92584  214  -6.5  90    -7.9  0     0     983.5    NA       0.0000   9999     0     0     0    
2019/08/10  06:54:00  BASE  7.5852   215  8.92584  214  -6.5  90    -7.9  0     0     983.5    NA       0.0000   9999     0     0     0    
2019/08/10  06:55:00  BASE  7.89096  214  8.92584  214  -6.5  90    -7.9  0     0     983.5    NA       0.0000   9999     0     0     0    
2019/08/10  06:56:00  BASE  7.85568  217  8.80236  217  -6.5  90    -7.8  0     0     983.5    NA       0.0000   9999     0     0     0    
2019/08/10  06:57:00  BASE  7.72632  215  8.80236  217  -6.5  91    -7.8  0     0     983.5    NA       0.0000   9999     0     0     0    
2019/08/10  06:58:00  BASE  7.33824  210  8.80236  217  -6.6  91    -7.8  0     0     983.5    NA       0.0000   9999     0     0     0    
2019/08/10  06:59:00  BASE  7.03248  209  8.80236  217  -6.6  91    -7.8  0     0     983.6    NA       0.0000   9999     0     0     0    
2019/08/10  07:00:00  BASE  7.30884  213  8.80236  217  -6.6  91    -7.8  0     0     983.6    NA       0.0000   9999     0     0     0    
2019/08/10  07:01:00  BASE  7.45584  218  8.80236  217  -6.6  91    -7.8  0     0     983.7    NA       0.0000   9999     0     0     0    
2019/08/10  07:02:00  BASE  7.54992  222  8.80236  217  -6.6  91    -7.8  0     0     983.7    NA       0.0000   9999     0     0     0    
2019/08/10  07:03:00  BASE  7.90272  223  8.80236  217  -6.6  91    -7.8  0     0     983.7    NA       0.0000   9999     0     0     0    
2019/08/10  07:04:00  BASE  8.232    221  8.80236  217  -6.6  91    -7.8  0     0     983.7    NA       0.0000   9999     0     0     0    
2019/08/10  07:05:00  BASE  7.75572  215  8.71416  220  -6.6  91    -7.8  0     0     983.7    NA       0.0000   9999     0     0     0    
2019/08/10  07:06:00  BASE  7.1442   208  8.71416  220  -6.6  92    -7.8  0     0     983.7    NA       0.0000   9999     0     0     0    
2019/08/10  07:07:00  BASE  6.68556  208  8.71416  220  -6.6  92    -7.7  0     0     983.7    NA       0.0000   9999     0     0     0    
2019/08/10  07:08:00  BASE  6.75612  213  8.71416  220  -6.6  92    -7.7  0     0     983.7    NA       0.0000   9999     0     0     0    
2019/08/10  07:09:00  BASE  7.38528  217  8.71416  220  -6.6  92    -7.7  0     0     983.7    NA       0.0000   9999     0     0     0    
2019/08/10  07:10:00  BASE  7.33824  212  8.71416  220  -6.6  92    -7.7  0     0     983.7    NA       0.0000   9999     0     0     0    
2019/08/10  07:11:00  BASE  7.35     207  8.71416  220  -6.6  92    -7.7  0     0     983.7    NA       0.0000   9999     0     0     0    
2019/08/10  07:12:00  BASE  7.54992  211  8.71416  220  -6.6  92    -7.7  0     0     983.7    NA       0.0000   9999     0     0     0    
2019/08/10  07:13:00  BASE  7.97328  218  9.04344  225  -6.6  92    -7.7  0     0     983.7    NA       0.0000   9999     0     0     0    
2019/08/10  07:14:00  BASE  8.4966   223  9.31392  228  -6.6  92    -7.7  0     0     983.7    NA       0.0000   9999     0     0     0    
2019/08/10  07:15:00  BASE  8.20848  219  9.31392  228  -6.7  92    -7.7  0     0     983.7    NA       0.0000   9999     0     0     0    
2019/08/10  07:16:00  BASE  7.99092  219  9.31392  228  -6.7  92    -7.7  0     0     983.7    NA       0.0000   9999     0     0     0    
2019/08/10  07:17:00  BASE  8.13204  220  9.31392  228  -6.7  92    -7.7  0     0     983.7    NA       0.0000   9999     0     0     0    
2019/08/10  07:18:00  BASE  7.92624  215  9.31392  228  -6.7  93    -7.7  0     0     983.7    NA       0.0000   9999     0     0     0    
2019/08/10  07:19:00  BASE  8.2614   215  9.3786   217  -6.7  93    -7.7  0     0     983.7    NA       0.0000   9999     0     0     0    
2019/08/10  07:20:00  BASE  8.673    215  9.3786   219  -6.7  93    -7.6  0     0     983.8    NA       0.0000   9999     0     0     0    
2019/08/10  07:21:00  BASE  8.09088  213  9.3786   219  -6.7  93    -7.6  0     0     983.8    NA       0.0000   9999     0     0     0    
2019/08/10  07:22:00  BASE  7.53228  217  9.3786   219  -6.7  93    -7.6  0     0     983.9    NA       0.0000   9999     0     0     0    
2019/08/10  07:23:00  BASE  7.82628  220  9.3786   219  -6.7  93    -7.6  0     0     983.9    NA       0.0000   9999     0     0     0    
2019/08/10  07:24:00  BASE  7.87332  215  9.3786   219  -6.7  93    -7.6  0     0     983.9    NA       0.0000   9999     0     0     0    
2019/08/10  07:25:00  BASE  7.9086   213  9.3786   219  -6.7  93    -7.6  0     0     983.9    NA       0.0000   9999     0     0     0    
2019/08/10  07:26:00  BASE  8.10852  215  9.3786   219  -6.7  93    -7.6  0     0     983.9    NA       0.0000   9999     0     0     0    
2019/08/10  07:27:00  BASE  8.1144   216  9.3786   219  -6.7  93    -7.6  0     0     983.9    NA       0.0000   9999     0     0     0    
2019/08/10  07:28:00  BASE  8.07912  219  9.3786   219  -6.7  93    -7.7  0     0     983.9    NA       0.0000   9999     0     0     0    
2019/08/10  07:29:00  BASE  7.13244  217  9.3786   219  -6.7  93    -7.7  0     0     984.0    NA       0.0000   9999     0     0     0    
2019/08/10  07:30:00  BASE  6.77964  212  8.98464  210  -6.7  93    -7.7  0     0     984.0    NA       0.0000   9999     0     0     0    
2019/08/10  07:31:00  BASE  7.16772  212  8.77296  220  -6.7  93    -7.7  0     0     984.0    NA       0.0000   9999     0     0     0    
2019/08/10  07:32:00  BASE  7.69692  217  8.77296  220  -6.7  93    -7.7  0     0     984.0    NA       0.0000   9999     0     0     0    
2019/08/10  07:33:00  BASE  8.10264  220  8.77296  220  -6.7  93    -7.7  0     0     984.0    NA       0.0000   9999     0     0     0    
2019/08/10  07:34:00  BASE  7.66164  221  8.77296  220  -6.8  93    -7.7  0     0     984.0    NA       0.0000   9999     0     0     0    
2019/08/10  07:35:00  BASE  7.07364  216  8.77296  220  -6.8  93    -7.7  0     0     984.0    NA       0.0000   9999     0     0     0    
2019/08/10  07:36:00  BASE  6.84432  212  9.13752  215  -6.7  93    -7.7  0     0     984.0    NA       0.0000   9999     0     0     0    
2019/08/10  07:37:00  BASE  7.33236  213  9.13752  215  -6.7  93    -7.7  0     0     984.0    NA       0.0000   9999     0     0     0    
2019/08/10  07:38:00  BASE  7.69104  213  9.13752  215  -6.7  93    -7.7  0     0     984.1    NA       0.0000   9999     0     0     0    
2019/08/10  07:39:00  BASE  7.75572  214  9.13752  215  -6.7  93    -7.6  0     0     984.0    NA       0.0000   9999     0     0     0    
2019/08/10  07:40:00  BASE  7.2324   212  9.13752  215  -6.7  93    -7.6  0     0     984.1    NA       0.0000   9999     0     0     0    
2019/08/10  07:41:00  BASE  6.83256  210  9.13752  215  -6.7  94    -7.6  0     0     984.1    NA       0.0000   9999     0     0     0    
2019/08/10  07:42:01  BASE  7.2618   211  9.13752  215  -6.7  94    -7.5  0     0     984.1    NA       0.0000   9999     0     0     0    
2019/08/10  07:43:00  BASE  7.23828  213  9.13752  215  -6.7  94    -7.5  0     0     984.1    NA       0.0000   9999     0     0     0    
2019/08/10  07:44:00  BASE  6.94428  213  9.13752  215  -6.7  94    -7.5  0     0     984.1    NA       0.0000   9999     0     0     0    
2019/08/10  07:45:00  BASE  6.73848  208  9.13752  215  -6.7  94    -7.6  0     0     984.1    NA       0.0000   9999     0     0     0    
2019/08/10  07:46:00  BASE  6.56208  212  9.13752  215  -6.8  93    -7.6  0     0     984.1    NA       0.0000   9999     0     0     0    
2019/08/10  07:47:00  BASE  6.83256  220  8.59068  215  -6.8  93    -7.7  0     0     984.1    NA       0.0000   9999     0     0     0    
2019/08/10  07:48:00  BASE  6.86784  216  8.59068  215  -6.8  93    -7.7  0     0     984.1    NA       0.0000   9999     0     0     0    
2019/08/10  07:49:00  BASE  6.82668  214  8.59068  215  -6.8  93    -7.7  0     0     984.1    NA       0.0000   9999     0     0     0    
2019/08/10  07:50:00  BASE  7.1442   216  8.59068  215  -6.8  93    -7.7  0     0     984.1    NA       0.0000   9999     0     0     0    
2019/08/10  07:51:00  BASE  7.25592  215  8.59068  215  -6.7  93    -7.7  0     0     984.1    NA       0.0000   9999     0     0     0    
2019/08/10  07:52:00  BASE  7.1442   213  7.83216  214  -6.8  93    -7.7  0     0     984.1    NA       0.0000   9999     0     0     0    
2019/08/10  07:53:00  BASE  6.63852  212  7.83216  214  -6.8  93    -7.7  0     0     984.1    NA       0.0000   9999     0     0     0    
2019/08/10  07:54:00  BASE  6.25632  215  7.83216  214  -6.8  93    -7.7  0     0     984.1    NA       0.0000   9999     0     0     0    
2019/08/10  07:55:00  BASE  6.468    212  7.83216  214  -6.8  93    -7.7  0     0     984.1    NA       0.0000   9999     0     0     0    
2019/08/10  07:56:00  BASE  6.33276  206  7.83216  214  -6.7  93    -7.7  0     0     984.2    NA       0.0000   9999     0     0     0    
2019/08/10  07:57:00  BASE  5.91528  206  7.83216  214  -6.7  93    -7.7  0     0     984.2    NA       0.0000   9999     0     0     0    
2019/08/10  07:58:00  BASE  6.01524  205  7.83216  214  -6.7  93    -7.7  0     0     984.2    NA       0.0000   9999     0     0     0    
2019/08/10  07:59:00  BASE  5.93292  202  7.83216  214  -6.8  93    -7.7  0     0     984.2    NA       0.0000   9999     0     0     0    
2019/08/10  08:00:00  BASE  6.25044  205  7.83216  214  -6.8  93    -7.7  0     0     984.2    NA       0.0000   9999     0     0     0    
2019/08/10  08:01:00  BASE  6.71496  209  7.59108  228  -6.8  93    -7.7  0     0     984.2    NA       0.0000   9999     0     0     0    
2019/08/10  08:02:00  BASE  6.03288  208  7.59108  228  -6.8  93    -7.7  0     0     984.3    NA       0.0000   9999     0     0     0    
2019/08/10  08:03:00  BASE  5.50956  212  7.59108  228  -6.8  93    -7.7  0     0     984.3    NA       0.0000   9999     0     0     0    
2019/08/10  08:04:00  BASE  5.586    215  7.53228  209  -6.7  93    -7.7  0     0     984.3    NA       0.0000   9999     0     0     0    
2019/08/10  08:05:00  BASE  5.75652  208  7.53228  209  -6.7  93    -7.7  0     0     984.3    NA       0.0000   9999     0     0     0    
2019/08/10  08:06:00  BASE  6.16812  206  7.53228  209  -6.8  93    -7.7  0     0     984.4    NA       0.0000   9999     0     0     0    
2019/08/10  08:07:00  BASE  6.33864  212  7.53228  209  -6.8  93    -7.7  0     0     984.4    NA       0.0000   9999     0     0     0    
2019/08/10  08:08:00  BASE  6.26808  216  7.53228  209  -6.7  93    -7.7  0     0     984.3    NA       0.0000   9999     0     0     0    
2019/08/10  08:09:00  BASE  6.174    215  7.53228  209  -6.7  93    -7.7  0     0     984.4    NA       0.0000   9999     0     0     0    
2019/08/10  08:10:00  BASE  5.95644  215  7.3206   218  -6.7  93    -7.7  0     0     984.4    NA       0.0000   9999     0     0     0    
2019/08/10  08:11:00  BASE  5.81532  214  7.3206   218  -6.7  93    -7.6  0     0     984.5    NA       0.0000   9999     0     0     0    
2019/08/10  08:12:00  BASE  5.6742   214  7.3206   218  -6.7  93    -7.6  0     0     984.5    NA       0.0000   9999     0     0     0    
2019/08/10  08:13:00  BASE  5.91528  215  7.3206   218  -6.7  93    -7.6  0     0     984.5    NA       0.0000   9999     0     0     0    
2019/08/10  08:14:00  BASE  6.16224  214  7.3206   218  -6.7  93    -7.6  0     0     984.5    NA       0.0000   9999     0     0     0    
2019/08/10  08:15:00  BASE  5.92116  220  7.3206   218  -6.7  93    -7.6  0     0     984.5    NA       0.0000   9999     1610  0     0    
2019/08/10  08:16:00  BASE  5.92704  221  7.3206   218  -6.7  93    -7.6  0     0     984.5    NA       0.0000   9999     0     0     0    
2019/08/10  08:17:00  BASE  6.16224  216  7.13832  209  -6.7  93    -7.6  0     0     984.5    NA       0.0000   9999     0     0     0    
2019/08/10  08:18:00  BASE  5.74476  217  7.13832  209  -6.7  93    -7.6  0     0     984.5    NA       0.0000   9999     0     0     0    
2019/08/10  08:19:00  BASE  5.46252  216  7.13832  209  -6.7  93    -7.6  0     0     984.5    NA       0.0000   9999     0     0     0    
2019/08/10  08:20:00  BASE  5.31552  211  7.13832  209  -6.7  93    -7.7  0     0     984.6    NA       0.0000   9999     0     0     0    
2019/08/10  08:21:00  BASE  5.12736  214  7.13832  209  -6.7  93    -7.7  0     0     984.6    NA       0.0000   9999     0     0     0    
2019/08/10  08:22:00  BASE  5.24496  216  7.13832  209  -6.7  93    -7.7  0     0     984.6    NA       0.0000   9999     1570  0     0    
2019/08/10  08:23:00  BASE  5.25672  216  6.80316  213  -6.7  93    -7.7  0     0     984.6    NA       0.0000   9999     0     0     0    
2019/08/10  08:24:00  BASE  5.439    217  6.74436  215  -6.6  92    -7.7  0     0     984.6    NA       0.0000   9999     0     0     0    
2019/08/10  08:25:00  BASE  5.39196  220  6.74436  215  -6.6  92    -7.7  0     0     984.7    NA       0.0000   9999     0     0     0    
2019/08/10  08:26:00  BASE  5.16264  219  6.74436  215  -6.6  92    -7.7  0     0     984.7    NA       0.0000   9999     0     0     0    
2019/08/10  08:27:00  BASE  5.19204  212  6.3504   213  -6.7  92    -7.7  0     0     984.7    NA       0.0000   9999     0     0     0    
2019/08/10  08:28:00  BASE  4.89216  209  6.3504   213  -6.7  92    -7.8  0     0     984.7    NA       0.0000   9999     0     0     0    
2019/08/10  08:29:00  BASE  4.4982   213  6.02112  215  -6.7  92    -7.8  0     0     984.8    NA       0.0000   9999     0     0     0    
2019/08/10  08:30:00  BASE  4.73928  220  6.02112  215  -6.7  92    -7.8  0     0     984.8    NA       0.0000   9999     0     0     0    
2019/08/10  08:31:00  BASE  5.19204  224  6.02112  225  -6.7  92    -7.8  0     0     984.8    NA       0.0000   9999     1210  0     0    
2019/08/10  08:32:00  BASE  5.47428  220  6.02112  225  -6.7  92    -7.7  0     0     984.8    NA       0.0000   9999     0     0     0    
2019/08/10  08:33:00  BASE  5.62716  217  6.02112  225  -6.7  92    -7.7  0     0     984.8    NA       0.0000   9999     0     0     0    
2019/08/10  08:34:00  BASE  5.63304  218  6.68556  215  -6.7  92    -7.7  0     0     984.8    NA       0.0000   9999     0     0     0    
2019/08/10  08:35:00  BASE  5.39784  216  6.68556  215  -6.7  93    -7.7  0     0     984.8    NA       0.0000   9999     1540  0     0    
2019/08/10  08:36:00  BASE  4.89216  217  6.68556  215  -6.7  93    -7.6  0     0     984.8    NA       0.0000   9999     1310  0     0    
2019/08/10  08:37:00  BASE  5.0274   217  6.68556  215  -6.6  93    -7.6  0     0     984.8    NA       0.0000   9999     1310  0     0    
2019/08/10  08:38:00  BASE  5.16852  209  6.68556  215  -6.6  93    -7.6  0     0     984.9    NA       0.0000   9999     1640  0     0    
2019/08/10  08:39:00  BASE  4.7334   211  6.68556  215  -6.6  93    -7.6  0     0     984.9    NA       0.0000   9999     1610  0     0    
2019/08/10  08:40:00  BASE  4.4394   211  6.68556  215  -6.6  93    -7.6  0     0     984.9    NA       0.0000   9999     1510  0     0    
2019/08/10  08:41:00  BASE  4.31004  204  6.68556  215  -6.6  93    -7.6  0     0     984.9    NA       0.0000   9999     0     0     0    
2019/08/10  08:42:00  BASE  4.25712  207  6.68556  215  -6.7  93    -7.6  0     0     984.9    NA       0.0000   9999     1640  0     0    
2019/08/10  08:43:00  BASE  4.58052  214  6.68556  215  -6.7  93    -7.6  0     0     984.9    NA       0.0000   9999     0     0     0    
2019/08/10  08:44:00  BASE  5.10972  216  6.68556  215  -6.7  93    -7.6  0     0     984.9    NA       0.0000   9999     0     0     0    
2019/08/10  08:45:00  BASE  4.98624  215  6.13872  208  -6.6  93    -7.6  0     0     984.9    NA       0.0000   9999     1900  0     0    
2019/08/10  08:46:00  BASE  4.93332  213  6.13872  208  -6.6  93    -7.6  0     0     985.0    NA       0.0000   9999     0     0     0    
2019/08/10  08:47:00  BASE  4.65696  214  5.74476  211  -6.6  92    -7.6  0     0     985.1    NA       0.0000   9999     0     0     0    
2019/08/10  08:48:00  BASE  4.0278   214  5.74476  211  -6.5  92    -7.6  0     0     985.1    NA       0.0000   9999     0     0     0    
2019/08/10  08:49:00  BASE  4.16304  210  5.74476  211  -6.5  92    -7.6  0     0     985.1    NA       0.0000   9999     0     0     0    
2019/08/10  08:50:00  BASE  4.49232  209  5.74476  211  -6.5  92    -7.6  0     0     985.0    NA       0.0000   9999     0     0     0    
2019/08/10  08:51:00  BASE  4.41     208  5.74476  211  -6.5  92    -7.6  0     0     985.0    NA       0.0000   9999     0     0     0    
2019/08/10  08:52:00  BASE  4.56876  209  5.74476  214  -6.5  92    -7.6  0     0     985.0    NA       0.0000   9999     1870  0     0    
2019/08/10  08:53:00  BASE  5.02152  213  5.74476  214  -6.5  91    -7.7  0     0     984.9    NA       0.0000   9999     0     0     0    
2019/08/10  08:54:00  BASE  5.46252  210  6.07992  204  -6.5  91    -7.7  0     0     984.9    NA       0.0000   9999     1740  0     0    
2019/08/10  08:55:00  BASE  5.28024  209  6.07992  204  -6.5  91    -7.7  0     0     985.0    NA       0.0000   9999     0     0     0    
2019/08/10  08:56:00  BASE  4.92156  209  6.07992  204  -6.5  91    -7.7  0     0     985.0    NA       0.0000   9999     0     0     0    
2019/08/10  08:57:00  BASE  5.16264  214  6.07992  204  -6.5  91    -7.7  0     0     985.1    NA       0.0000   9999     0     0     0    
2019/08/10  08:58:00  BASE  5.4978   220  6.10932  222  -6.5  91    -7.7  0     0     985.0    NA       0.0000   9999     0     0     0    
2019/08/10  08:59:00  BASE  5.63304  215  6.13872  222  -6.5  91    -7.7  0     0     985.1    NA       0.0000   9999     0     0     0    
2019/08/10  09:00:00  BASE  5.733    213  6.44448  216  -6.5  91    -7.7  0     0     985.1    NA       0.0000   9999     0     0     0    
2019/08/10  09:01:00  BASE  5.88     216  6.44448  216  -6.5  91    -7.7  0     0     985.1    NA       0.0000   9999     0     0     0    
2019/08/10  09:02:00  BASE  5.57424  210  6.44448  216  -6.4  91    -7.7  0     0     985.1    NA       0.0000   9999     0     0     0    
2019/08/10  09:03:00  BASE  5.292    205  6.44448  216  -6.4  91    -7.7  0     0     985.1    NA       0.0000   9999     0     0     0    
2019/08/10  09:04:00  BASE  5.04504  211  6.44448  216  -6.4  91    -7.6  0     0     985.1    NA       0.0000   9999     0     0     0    
2019/08/10  09:05:00  BASE  5.10384  213  6.44448  216  -6.4  91    -7.6  0     0     985.1    NA       0.0000   9999     1740  0     0    
2019/08/10  09:06:00  BASE  5.60364  210  6.47388  206  -6.4  91    -7.6  0     0     985.1    NA       0.0000   9999     0     0     0    
2019/08/10  09:07:00  BASE  5.78592  212  6.47388  206  -6.4  91    -7.6  0     0     985.1    NA       0.0000   9999     2030  0     0    
2019/08/10  09:08:00  BASE  5.86236  215  6.47388  221  -6.4  91    -7.6  0     0     985.1    NA       0.0000   9999     0     0     0    
2019/08/10  09:09:00  BASE  6.13872  217  7.05012  216  -6.4  91    -7.6  0     0     985.1    NA       0.0000   9999     0     0     0    
2019/08/10  09:10:00  BASE  6.79728  218  7.77336  222  -6.4  91    -7.7  0     0     985.1    NA       0.0000   9999     0     0     0    
2019/08/10  09:11:00  BASE  7.03248  218  7.77336  222  -6.4  91    -7.7  0     0     985.1    NA       0.0000   9999     0     0     0    
2019/08/10  09:12:00  BASE  6.66792  217  7.77336  222  -6.4  91    -7.7  0     0     985.1    NA       0.0000   9999     0     0     0    
2019/08/10  09:13:00  BASE  6.24456  217  7.77336  222  -6.4  91    -7.6  0     0     985.1    NA       0.0000   9999     0     0     0    
2019/08/10  09:14:00  BASE  6.31512  216  7.77336  222  -6.4  91    -7.6  0     0     985.1    NA       0.0000   9999     0     0     0    
2019/08/10  09:15:00  BASE  6.89724  217  8.25552  221  -6.4  91    -7.6  0     0     985.1    NA       0.0000   9999     0     0     0    
2019/08/10  09:16:00  BASE  7.33824  220  8.25552  221  -6.4  92    -7.6  0     0     985.1    NA       0.0000   9999     0     0     0    
2019/08/10  09:17:00  BASE  7.056    223  8.25552  221  -6.5  92    -7.6  0     0     985.1    NA       0.0000   9999     0     0     0    
2019/08/10  09:18:00  BASE  6.615    224  8.25552  221  -6.5  92    -7.6  0     0     985.0    NA       0.0000   9999     0     0     0    
2019/08/10  09:19:00  BASE  6.84432  221  8.3202   222  -6.5  92    -7.6  0     0     985.0    NA       0.0000   9999     0     0     0    
2019/08/10  09:20:00  BASE  7.10304  221  8.3202   222  -6.5  92    -7.5  0     0     985.0    NA       0.0000   9999     0     0     0    
2019/08/10  09:21:00  BASE  6.98544  221  8.3202   222  -6.5  93    -7.5  0     0     985.0    NA       0.0000   9999     0     0     0    
2019/08/10  09:22:00  BASE  6.86784  223  8.3202   222  -6.5  93    -7.5  0     0     985.0    NA       0.0000   9999     0     0     0    
2019/08/10  09:23:00  BASE  7.03248  222  8.3202   222  -6.5  93    -7.5  0     0     985.0    NA       0.0000   9999     0     0     0    
2019/08/10  09:24:00  BASE  7.23828  219  8.3202   222  -6.6  93    -7.5  0     0     985.1    NA       0.0000   9999     0     0     0    
2019/08/10  09:25:00  BASE  7.07952  220  8.3202   222  -6.6  93    -7.5  0     0     985.1    NA       0.0000   9999     0     0     0    
2019/08/10  09:26:00  BASE  6.69144  220  8.3202   222  -6.6  93    -7.5  0     0     985.1    NA       0.0000   9999     0     0     0    
2019/08/10  09:27:00  BASE  6.79728  221  8.3202   222  -6.6  94    -7.5  0     0     984.7    NA       0.0000   9999     0     0     0    
2019/08/10  09:28:00  BASE  7.33824  225  8.3202   222  -6.6  94    -7.5  0     0     984.3    NA       0.0000   9999     0     0     0    
2019/08/10  09:29:00  BASE  7.05012  225  7.95564  226  -6.7  94    -7.5  0     0     985.1    NA       0.0000   9999     0     0     0    
2019/08/10  09:30:00  BASE  6.5562   226  7.95564  226  -6.7  94    -7.5  0     0     985.0    NA       0.0000   9999     0     0     0    
2019/08/10  09:31:00  BASE  6.97368  225  8.4084   218  -6.8  94    -7.6  0     0     985.1    NA       0.0000   9999     0     0     0    
2019/08/10  09:32:00  BASE  6.75024  219  8.4084   218  -6.8  94    -7.6  0     0     985.1    NA       0.0000   9999     0     0     0    
2019/08/10  09:33:00  BASE  6.7914   223  8.4084   218  -6.8  94    -7.6  0     0     985.1    NA       0.0000   9999     0     0     0    
2019/08/10  09:34:00  BASE  7.42644  229  8.4084   218  -6.8  94    -7.6  0     0     985.1    NA       0.0000   9999     0     0     0    
2019/08/10  09:35:00  BASE  7.203    227  8.4084   218  -6.8  94    -7.6  0     0     985.1    NA       0.0000   9999     0     0     0    
2019/08/10  09:36:00  BASE  6.87372  226  8.4084   218  -6.7  94    -7.5  0     0     985.1    NA       0.0000   9999     0     0     0    
2019/08/10  09:37:00  BASE  6.92664  225  8.4084   218  -6.7  94    -7.5  0     0     985.1    NA       0.0000   9999     0     0     0    
2019/08/10  09:38:00  BASE  6.82668  221  8.4084   218  -6.7  94    -7.5  0     0     985.2    NA       0.0000   9999     0     0     0    
2019/08/10  09:39:00  BASE  6.6738   221  8.4084   218  -6.7  94    -7.5  0     0     985.1    NA       0.0000   9999     0     0     0    
2019/08/10  09:40:00  BASE  6.8796   223  8.4084   218  -6.7  94    -7.5  0     0     985.1    NA       0.0000   9999     0     0     0    
2019/08/10  09:41:00  BASE  7.19712  222  8.4084   220  -6.6  94    -7.4  0     0     985.2    NA       0.0000   9999     0     0     0    
2019/08/10  09:42:00  BASE  7.56168  223  8.4084   220  -6.6  94    -7.4  0     0     985.2    NA       0.0000   9999     0     0     0    
2019/08/10  09:43:00  BASE  7.50288  222  8.4084   220  -6.6  94    -7.4  0     0     985.2    NA       0.0000   9999     0     0     0    
2019/08/10  09:44:00  BASE  7.53816  220  8.4084   220  -6.6  94    -7.4  0     0     985.2    NA       0.0000   9999     0     0     0    
2019/08/10  09:45:00  BASE  7.73808  222  8.4084   220  -6.6  94    -7.4  0     0     985.2    NA       0.0000   9999     0     0     0    
2019/08/10  09:46:00  BASE  7.6146   221  8.53188  212  -6.6  94    -7.4  0     0     985.2    NA       0.0000   9999     0     0     0    
2019/08/10  09:47:00  BASE  7.68516  217  8.53188  212  -6.6  94    -7.4  0     0     985.1    NA       0.0000   9999     0     0     0    
2019/08/10  09:48:00  BASE  7.36176  213  8.53188  212  -6.6  94    -7.4  0     0     985.2    NA       0.0000   9999     0     0     0    
2019/08/10  09:49:00  BASE  6.82668  213  8.53188  212  -6.6  94    -7.4  0     0     985.2    NA       0.0000   9999     0     0     0    
2019/08/10  09:50:00  BASE  7.2618   214  8.53188  212  -6.6  94    -7.4  0     0     985.2    NA       0.0000   9999     0     0     0    
2019/08/10  09:51:00  BASE  7.38528  213  8.53188  212  -6.6  94    -7.4  0     0     985.2    NA       0.0000   9999     0     0     0    
2019/08/10  09:52:00  BASE  7.41468  213  8.53188  212  -6.6  94    -7.4  0     0     985.1    NA       0.0000   9999     0     0     0    
2019/08/10  09:53:00  BASE  7.13832  213  8.53188  212  -6.6  93    -7.5  0     0     985.2    NA       0.0000   9999     0     0     0    
2019/08/10  09:54:00  BASE  6.81492  212  8.53188  212  -6.6  93    -7.5  0     0     985.1    NA       0.0000   9999     0     0     0    
2019/08/10  09:55:00  BASE  7.30296  213  8.53188  212  -6.6  93    -7.5  0     0     985.1    NA       0.0000   9999     0     0     0    
2019/08/10  09:56:00  BASE  6.85608  212  8.53188  212  -6.6  93    -7.5  0     0     985.2    NA       0.0000   9999     0     0     0    
2019/08/10  09:57:00  BASE  6.65028  212  8.4378   209  -6.6  93    -7.5  0     0     985.2    NA       0.0000   9999     0     0     0    
2019/08/10  09:58:00  BASE  7.07364  215  8.4378   209  -6.6  93    -7.5  0     0     985.2    NA       0.0000   9999     0     0     0    
2019/08/10  09:59:00  BASE  6.97956  215  8.4378   209  -6.6  93    -7.5  0     0     985.2    NA       0.0000   9999     0     0     0    
2019/08/10  10:00:00  BASE  6.70908  215  8.4378   209  -6.6  93    -7.5  0     0     985.2    NA       0.0000   9999     0     0     0    
2019/08/10  10:01:00  BASE  6.63852  218  8.4378   209  -6.5  93    -7.5  0     0     985.2    NA       0.0000   9999     0     0     0    
2019/08/10  10:02:00  BASE  6.86196  220  8.4378   209  -6.5  93    -7.5  0     0     985.2    NA       0.0000   9999     0     0     0    
2019/08/10  10:03:00  BASE  7.03836  218  8.4378   209  -6.5  92    -7.5  0     0     985.2    NA       0.0000   9999     0     0     0    
2019/08/10  10:04:00  BASE  6.7326   213  8.07912  211  -6.5  92    -7.5  0     0     985.2    NA       0.0000   9999     0     0     0    
2019/08/10  10:05:00  BASE  6.5268   215  7.92624  216  -6.5  92    -7.6  0     0     985.2    NA       0.0000   9999     0     0     0    
2019/08/10  10:06:00  BASE  6.5856   217  7.92624  216  -6.5  92    -7.6  0     0     985.3    NA       0.0000   9999     0     0     0    
2019/08/10  10:07:00  BASE  6.50328  217  7.92624  216  -6.5  92    -7.6  0     0     985.3    NA       0.0000   9999     0     0     0    
2019/08/10  10:08:00  BASE  6.615    214  7.83216  221  -6.5  92    -7.6  0     0     985.2    NA       0.0000   9999     0     0     0    
2019/08/10  10:09:00  BASE  6.85608  208  7.83216  206  -6.5  92    -7.7  0     0     985.3    NA       0.0000   9999     0     0     0    
2019/08/10  10:10:00  BASE  7.00308  208  7.83216  206  -6.5  91    -7.7  0     0     985.3    NA       0.0000   9999     0     0     0    
2019/08/10  10:11:00  BASE  6.95604  212  7.83216  206  -6.5  91    -7.7  0     0     985.3    NA       0.0000   9999     0     0     0    
2019/08/10  10:12:00  BASE  6.80316  212  7.83216  206  -6.5  91    -7.7  0     0     985.3    NA       0.0000   9999     0     0     0    
2019/08/10  10:13:00  BASE  7.0854   211  7.92624  212  -6.5  91    -7.7  0     0     985.3    NA       0.0000   9999     0     0     0    
2019/08/10  10:14:00  BASE  7.27356  213  7.92624  212  -6.5  91    -7.7  0     0     985.3    NA       0.0000   9999     0     0     0    
2019/08/10  10:15:00  BASE  7.35588  215  8.3202   210  -6.5  91    -7.7  0     0     985.3    NA       0.0000   9999     0     0     0    
2019/08/10  10:16:00  BASE  7.50876  213  8.3202   210  -6.5  91    -7.7  0     0     985.3    NA       0.0000   9999     0     0     0    
2019/08/10  10:17:00  BASE  7.40292  211  8.3202   210  -6.5  91    -7.7  0     0     985.3    NA       0.0000   9999     0     0     0    
2019/08/10  10:18:00  BASE  7.21476  214  8.3202   210  -6.5  91    -7.7  0     0     985.3    NA       0.0000   9999     0     0     0    
2019/08/10  10:19:00  BASE  7.27356  217  8.3202   210  -6.5  91    -7.7  0     0     985.3    NA       0.0000   9999     0     0     0    
2019/08/10  10:20:00  BASE  7.47348  216  8.3202   210  -6.4  91    -7.7  0     0     985.2    NA       0.0000   9999     0     0     0    
2019/08/10  10:21:00  BASE  7.52052  220  8.3202   210  -6.4  91    -7.7  0     0     985.2    NA       0.0000   9999     0     0     0    
2019/08/10  10:22:00  BASE  7.51464  222  8.3202   210  -6.4  91    -7.7  0     0     985.2    NA       0.0000   9999     0     0     0    
2019/08/10  10:23:00  BASE  7.30884  220  8.3202   210  -6.4  91    -7.7  0     0     985.3    NA       0.0000   9999     0     0     0    
2019/08/10  10:24:00  BASE  7.1442   219  8.3202   210  -6.4  91    -7.7  0     0     985.3    NA       0.0000   9999     0     0     0    
2019/08/10  10:25:00  BASE  7.21476  217  8.10852  222  -6.4  91    -7.7  0     0     985.3    NA       0.0000   9999     0     0     0    
2019/08/10  10:26:00  BASE  7.87332  217  8.80236  216  -6.4  91    -7.6  0     0     985.3    NA       0.0000   9999     0     0     0    
2019/08/10  10:27:00  BASE  8.2026   218  8.80236  216  -6.4  91    -7.6  0     0     985.3    NA       0.0000   9999     0     0     0    
2019/08/10  10:28:00  BASE  7.62048  221  8.80236  216  -6.3  91    -7.6  0     0     985.3    NA       0.0000   9999     0     0     0    
2019/08/10  10:29:00  BASE  7.15596  225  8.80236  216  -6.3  91    -7.6  0     0     985.4    NA       0.0000   9999     0     0     0    
2019/08/10  10:30:00  BASE  6.85608  226  8.80236  216  -6.3  91    -7.6  0     0     985.4    NA       0.0000   9999     0     0     0    
2019/08/10  10:31:00  BASE  6.82668  226  8.80236  216  -6.4  91    -7.6  0     0     985.4    NA       0.0000   9999     0     0     0    
2019/08/10  10:32:00  BASE  6.91488  226  8.80236  216  -6.4  91    -7.6  0     0     985.4    NA       0.0000   9999     0     0     0    
2019/08/10  10:33:00  BASE  6.91488  224  8.80236  216  -6.4  91    -7.6  0     0     985.4    NA       0.0000   9999     0     0     0    
2019/08/10  10:34:00  BASE  7.39704  216  8.80236  216  -6.4  91    -7.6  0     0     985.4    NA       0.0000   9999     0     0     0    
2019/08/10  10:35:00  BASE  7.2324   208  8.80236  216  -6.4  92    -7.6  0     0     985.4    NA       0.0000   9999     0     0     0    
2019/08/10  10:36:00  BASE  6.37392  205  8.67888  208  -6.4  92    -7.5  0     0     985.4    NA       0.0000   9999     0     0     0    
2019/08/10  10:37:00  BASE  4.80984  210  8.67888  208  -6.3  92    -7.4  0     0     985.4    NA       0.0000   9999     0     0     0    
2019/08/10  10:38:00  BASE  4.28652  221  8.67888  208  -6.2  92    -7.3  0     0     985.4    NA       0.0000   9999     0     0     0    
2019/08/10  10:39:00  BASE  4.99212  213  8.67888  208  -6.2  92    -7.3  0     0     985.5    NA       0.0000   9999     0     0     0    
2019/08/10  10:40:00  BASE  3.36924  181  8.67888  208  -6.1  91    -7.3  0     0     985.5    NA       0.0000   9999     0     0     0    
2019/08/10  10:41:00  BASE  2.35788  157  8.67888  208  -6.1  91    -7.4  0     0     985.6    NA       0.0000   9999     0     0     0    
2019/08/10  10:42:00  BASE  2.69892  157  8.67888  208  -6.2  90    -7.5  0     0     985.6    NA       0.0000   9999     0     0     0    
2019/08/10  10:43:00  BASE  2.21676  163  8.67888  208  -6.2  90    -7.6  0     0     985.6    NA       0.0000   9999     0     0     0    
2019/08/10  10:44:00  BASE  1.76988  166  7.56168  205  -6.3  89    -7.7  0     0     985.6    NA       0.0000   9999     0     0     0    
2019/08/10  10:45:00  BASE  1.43472  170  7.56168  205  -6.3  89    -7.8  0     0     985.6    NA       0.0000   9999     0     0     0    
2019/08/10  10:46:00  BASE  1.18776  179  6.92664  194  -6.4  89    -7.9  0     0     985.6    NA       0.0000   9999     0     0     0    
2019/08/10  10:47:00  BASE  1.09956  179  6.92664  194  -6.3  88    -7.9  0     0     985.6    NA       0.0000   9999     0     0     0    
2019/08/10  10:48:00  BASE  1.09956  177  6.92664  194  -6.3  88    -7.9  0     0     985.6    NA       0.0000   9999     0     0     0    
2019/08/10  10:49:00  BASE  1.029    175  3.26928  158  -6.2  88    -7.9  0     0     985.6    NA       0.0000   9999     0     0     0    
2019/08/10  10:50:00  BASE  0.86436  167  3.26928  158  -6.2  88    -7.9  0     0     985.6    NA       0.0000   9999     0     0     0    
2019/08/10  10:51:00  BASE  0.84084  163  3.087    162  -6.2  88    -7.9  0     0     985.6    NA       0.0000   9999     0     0     0    
2019/08/10  10:52:00  BASE  0.92316  161  2.1756   174  -6.3  88    -7.9  0     0     985.4    NA       0.0000   9999     0     0     0    
2019/08/10  10:53:00  BASE  1.01724  154  2.0286   174  -6.3  88    -7.9  0     0     985.6    NA       0.0000   9999     0     0     0    
2019/08/10  10:54:00  BASE  1.07604  150  1.48176  170  -6.3  88    -7.9  0     0     985.6    NA       0.0000   9999     0     0     0    
2019/08/10  10:55:00  BASE  1.0878   139  1.39356  126  -6.3  88    -8.0  0     0     985.6    NA       0.0000   9999     0     0     0    
2019/08/10  10:56:00  BASE  1.24068  128  1.48176  133  -6.3  88    -7.9  0     0     985.6    NA       0.0000   9999     0     0     0    
2019/08/10  10:57:00  BASE  1.39356  124  1.51116  121  -6.3  88    -7.9  0     0     985.7    NA       0.0000   9999     0     0     0    
2019/08/10  10:58:00  BASE  1.4112   122  1.51116  126  -6.3  88    -7.9  0     0     985.7    NA       0.0000   9999     0     0     0    
2019/08/10  10:59:00  BASE  1.48764  125  1.63464  128  -6.3  88    -7.9  0     0     985.7    NA       0.0000   9999     0     0     0    
2019/08/10  11:00:00  BASE  1.56996  126  1.63464  121  -6.3  88    -7.9  0     0     985.7    NA       0.0000   9999     0     0     0    
2019/08/10  11:01:00  BASE  1.7346   122  2.1462   122  -6.4  88    -8.0  0     0     985.7    NA       0.0000   9999     0     0     0    
2019/08/10  11:02:00  BASE  2.0874   120  2.45196  119  -6.4  88    -8.1  0     0     985.7    NA       0.0000   9999     0     0     0    
2019/08/10  11:03:00  BASE  2.24028  120  2.45196  119  -6.5  88    -8.2  0     0     985.7    NA       0.0000   9999     0     0     0    
2019/08/10  11:04:00  BASE  2.27556  123  2.48136  124  -6.6  88    -8.3  0     0     985.8    NA       0.0000   9999     0     0     0    
2019/08/10  11:05:00  BASE  2.29908  125  2.48136  124  -6.7  88    -8.4  0     0     985.8    NA       0.0000   9999     0     0     0    
2019/08/10  11:06:00  BASE  2.33436  127  2.59896  128  -6.9  88    -8.5  0     0     985.8    NA       0.0000   9999     0     0     0    
2019/08/10  11:07:00  BASE  2.42844  132  2.63424  136  -7.0  88    -8.6  0     0     985.8    NA       0.0000   9999     0     0     0    
2019/08/10  11:08:00  BASE  2.48724  135  3.02232  137  -7.1  88    -8.7  0     0     985.9    NA       0.0000   9999     0     0     0    
2019/08/10  11:09:00  BASE  2.64012  133  3.087    130  -7.1  88    -8.8  0     0     985.9    NA       0.0000   9999     0     0     0    
2019/08/10  11:10:00  BASE  2.8812   129  3.2046   129  -7.1  88    -8.8  0     0     985.9    NA       0.0000   9999     0     0     0    
2019/08/10  11:11:00  BASE  3.18108  126  3.56916  128  -7.2  88    -8.8  0     0     986.0    NA       0.0000   9999     0     0     0    
2019/08/10  11:12:00  BASE  3.6162   127  4.2042   134  -7.2  88    -8.8  0     0     986.0    NA       0.0000   9999     0     0     0    
2019/08/10  11:13:00  BASE  3.66912  128  4.2042   134  -7.2  88    -8.9  0     0     986.0    NA       0.0000   9999     0     0     0    
2019/08/10  11:14:00  BASE  3.381    127  4.2042   134  -7.2  88    -8.8  0     0     986.0    NA       0.0000   9999     0     0     0    
2019/08/10  11:15:00  BASE  3.19284  128  4.2042   134  -7.1  88    -8.8  0     0     986.0    NA       0.0000   9999     0     0     0    
2019/08/10  11:16:00  BASE  2.91648  128  4.2042   134  -7.1  88    -8.7  0     0     986.0    NA       0.0000   9999     0     0     0    
2019/08/10  11:17:00  BASE  2.7342   125  4.2042   134  -7.0  88    -8.7  0     0     986.0    NA       0.0000   9999     0     0     0    
2019/08/10  11:18:00  BASE  2.62836  122  4.2042   134  -7.1  88    -8.8  0     0     986.0    NA       0.0000   9999     0     0     0    
2019/08/10  11:19:00  BASE  2.64012  110  4.2042   134  -7.2  87    -9.0  0     0     986.0    NA       0.0000   9999     0     0     0    
2019/08/10  11:20:00  BASE  3.10464  86   4.2042   134  -7.3  87    -9.1  0     0     986.0    NA       0.0000   9999     0     0     0    
2019/08/10  11:21:00  BASE  3.63384  64   4.2042   134  -7.5  86    -9.4  0     0     986.0    NA       0.0000   9999     0     0     0    
2019/08/10  11:22:00  BASE  3.56916  59   4.1454   67   -7.6  86    -9.6  0     0     986.0    NA       0.0000   9999     0     0     0    
2019/08/10  11:23:00  BASE  3.28692  65   4.1454   67   -7.7  86    -9.6  0     0     986.0    NA       0.0000   9999     0     0     0    
2019/08/10  11:24:00  BASE  3.28692  68   4.1454   67   -7.8  86    -9.7  0     0     986.0    NA       0.0000   9999     0     0     0    
2019/08/10  11:25:00  BASE  3.45744  64   4.1454   67   -7.9  87    -9.7  0     0     986.0    NA       0.0000   9999     0     0     0    
2019/08/10  11:26:00  BASE  3.33984  64   4.1454   67   -7.8  87    -9.6  0     0     986.0    NA       0.0000   9999     0     0     0    
2019/08/10  11:27:00  BASE  2.95764  68   4.1454   67   -7.8  88    -9.5  0     0     986.0    NA       0.0000   9999     0     0     0    
2019/08/10  11:28:00  BASE  2.57544  71   4.1454   67   -7.9  88    -9.5  0     0     986.1    NA       0.0000   9999     0     0     0    
2019/08/10  11:29:00  BASE  2.28144  76   4.1454   67   -8.0  88    -9.6  0     0     986.1    NA       0.0000   9999     0     0     0    
2019/08/10  11:30:00  BASE  2.56956  64   4.02192  53   -8.1  88    -9.7  0     0     986.2    NA       0.0000   9999     0     0     0    
2019/08/10  11:31:00  BASE  3.53388  48   5.2332   40   -8.2  88    -9.8  0     0     986.2    NA       0.0000   9999     0     0     0    
2019/08/10  11:32:00  BASE  4.35708  44   5.2332   40   -8.3  89    -9.8  0     0     986.2    NA       0.0000   9999     0     0     0    
2019/08/10  11:33:00  BASE  4.86864  43   6.41508  35   -8.3  89    -9.7  0     0     986.2    NA       0.0000   9999     0     0     0    
2019/08/10  11:34:00  BASE  5.42724  41   6.41508  35   -8.3  90    -9.6  0     0     986.2    NA       0.0000   9999     0     0     0    
2019/08/10  11:35:00  BASE  5.91528  41   7.16772  43   -8.2  90    -9.5  0     0     986.2    NA       0.0000   9999     0     0     0    
2019/08/10  11:36:00  BASE  6.00348  43   7.16772  43   -8.1  91    -9.3  0     0     986.2    NA       0.0000   9999     0     0     0    
2019/08/10  11:37:00  BASE  5.65068  43   7.16772  43   -8.1  91    -9.2  0     0     986.2    NA       0.0000   9999     0     0     0    
2019/08/10  11:38:00  BASE  5.37432  40   7.16772  43   -8.0  92    -9.2  0     0     986.2    NA       0.0000   9999     0     0     0    
2019/08/10  11:39:00  BASE  5.21556  36   7.16772  43   -8.0  92    -9.1  0     0     986.3    NA       0.0000   9999     0     0     0    
2019/08/10  11:40:00  BASE  5.09796  35   7.16772  43   -8.1  92    -9.2  0     0     986.2    NA       0.0000   9999     0     0     0    
2019/08/10  11:41:00  BASE  5.04504  33   7.16772  43   -8.2  92    -9.2  0     0     986.3    NA       0.0000   9999     0     0     0    
2019/08/10  11:42:00  BASE  4.97448  31   7.16772  43   -8.2  92    -9.2  0     0     986.3    NA       0.0000   9999     0     0     0    
2019/08/10  11:43:00  BASE  5.0568   36   7.16772  43   -8.2  92    -9.2  0     0     986.3    NA       0.0000   9999     0     0     0    
2019/08/10  11:44:00  BASE  4.99212  41   7.16772  43   -8.3  92    -9.3  0     0     986.4    NA       0.0000   9999     0     0     0    
2019/08/10  11:45:00  BASE  4.66284  47   6.10932  39   -8.3  92    -9.3  0     0     986.4    NA       0.0000   9999     0     0     0    
2019/08/10  11:46:00  BASE  4.557    51   6.07992  48   -8.4  92    -9.4  0     0     986.5    NA       0.0000   9999     0     0     0    
2019/08/10  11:47:00  BASE  5.12148  50   6.13872  49   -8.5  92    -9.5  0     0     986.5    NA       0.0000   9999     0     0     0    
2019/08/10  11:48:00  BASE  5.45664  48   6.16812  47   -8.6  91    -9.8  0     0     986.5    NA       0.0000   9999     0     0     0    
2019/08/10  11:49:00  BASE  5.439    48   6.16812  53   -8.7  91    -9.9  0     0     986.5    NA       0.0000   9999     0     0     0    
2019/08/10  11:50:00  BASE  5.59776  50   6.16812  53   -8.7  90    -10.0 0     0     986.6    NA       0.0000   9999     0     0     0    
2019/08/10  11:51:00  BASE  5.19204  50   6.16812  53   -8.7  88    -10.2 1     0     986.6    NA       0.0000   9999     0     0     0    
2019/08/10  11:52:00  BASE  4.48056  52   6.16812  53   -8.6  87    -10.4 1     0     986.6    NA       0.0000   9999     0     0     0    
2019/08/10  11:53:00  BASE  3.7044   62   6.16812  53   -8.6  85    -10.6 1     0     986.6    NA       0.0000   9999     0     0     0    
2019/08/10  11:54:00  BASE  3.47508  70   6.16812  53   -8.6  84    -10.9 1     0     986.6    NA       0.0000   9999     0     0     0    
2019/08/10  11:55:01  BASE  3.49272  74   6.16812  53   -8.7  82    -11.1 1     0     986.6    NA       0.0000   9999     0     0     0    
2019/08/10  11:56:00  BASE  3.6162   84   6.16812  53   -8.7  81    -11.4 1     0     986.6    NA       0.0000   9999     0     0     0    
2019/08/10  11:57:00  BASE  3.58092  105  6.16812  53   -8.7  79    -11.6 1     0     986.6    NA       0.0000   9999     0     0     0    
2019/08/10  11:58:00  BASE  4.2924   108  6.16812  53   -8.7  77    -11.9 1     0     986.6    NA       0.0000   9999     0     0     0    
2019/08/10  11:59:00  BASE  5.10972  101  5.99172  48   -8.6  75    -12.3 1     0     986.6    NA       0.0000   9999     0     0     0    
2019/08/10  12:00:01  BASE  4.6452   100  5.86824  98   -8.7  72    -12.8 1     0     986.6    NA       0.0000   9999     0     0     0    
2019/08/10  12:01:01  BASE  4.1454   105  5.86824  98   -8.8  70    -13.3 1     0     986.7    NA       0.0000   9999     0     0     0    
2019/08/10  12:02:01  BASE  3.77496  110  5.86824  98   -8.8  68    -13.7 1     0     986.7    NA       0.0000   9999     0     0     0    
2019/08/10  12:03:01  BASE  3.4104   112  5.86824  98   -8.7  66    -14.0 2     0     986.7    NA       0.0000   9999     0     0     0    
2019/08/10  12:04:01  BASE  3.39276  121  5.86824  98   -8.7  64    -14.3 2     0     986.7    NA       0.0000   9999     0     0     0    
2019/08/10  12:05:01  BASE  3.6162   124  5.86824  98   -8.6  63    -14.5 2     0     986.7    NA       0.0000   9999     0     0     0    
2019/08/10  12:06:01  BASE  3.7044   106  5.86824  98   -8.5  61    -14.6 2     0     986.7    NA       0.0000   9999     0     0     0    
2019/08/10  12:07:01  BASE  3.63384  98   5.86824  98   -8.5  60    -14.9 2     0     986.8    NA       0.0000   9999     0     0     0    
2019/08/10  12:08:01  BASE  3.53976  107  5.3214   102  -8.6  59    -15.2 2     0     986.8    NA       0.0000   9999     0     0     0    
2019/08/10  12:09:01  BASE  3.73968  112  4.78044  99   -8.7  59    -15.3 2     0     986.8    NA       0.0000   9999     0     0     0    
2019/08/10  12:10:01  BASE  3.81024  118  4.44528  95   -8.8  59    -15.4 3     0     986.8    NA       0.0000   9999     0     0     0    
2019/08/10  12:11:01  BASE  3.675    121  4.44528  95   -8.9  59    -15.4 3     0     986.8    NA       0.0000   9999     0     0     0    
2019/08/10  12:12:01  BASE  3.54564  126  4.44528  95   -8.7  59    -15.2 3     0     986.8    NA       0.0000   9999     0     0     0    
2019/08/10  12:13:01  BASE  3.69852  130  4.44528  95   -8.6  59    -15.1 3     0     986.8    NA       0.0000   9999     0     0     0    
2019/08/10  12:14:01  BASE  4.02192  130  4.62756  126  -8.4  59    -14.9 3     0     986.9    NA       0.0000   9999     0     0     0    
2019/08/10  12:15:01  BASE  4.45116  129  5.80944  122  -8.2  59    -14.9 3     0     986.9    NA       0.0000   9999     0     0     0    
2019/08/10  12:16:01  BASE  4.56876  128  5.80944  122  -8.0  58    -14.8 3     0     987.0    NA       0.0000   9999     0     0     0    
2019/08/10  12:17:01  BASE  4.18068  124  5.80944  122  -7.8  57    -14.9 3     0     987.0    NA       0.0000   9999     0     0     0    
2019/08/10  12:18:01  BASE  3.82788  120  5.80944  122  -7.7  56    -15.0 4     0     987.0    NA       0.0000   9999     0     0     0    
2019/08/10  12:19:00  BASE  3.72204  117  5.80944  122  -7.6  55    -15.2 4     0     987.0    NA       0.0000   9999     0     0     0    
2019/08/10  12:20:00  BASE  3.77496  110  5.80944  122  -7.6  54    -15.3 4     0     987.0    NA       0.0000   9999     0     0     0    
2019/08/10  12:21:00  BASE  3.66912  109  5.80944  122  -7.8  53    -15.6 4     0     987.0    NA       0.0000   9999     0     0     0    
2019/08/10  12:22:00  BASE  3.80436  113  5.80944  122  -8.0  53    -15.8 4     0     986.9    NA       0.0000   9999     0     0     0    
2019/08/10  12:23:00  BASE  4.29828  106  5.80944  122  -8.1  53    -16.0 4     0     987.0    NA       0.0000   9999     0     0     0    
2019/08/10  12:24:00  BASE  4.83924  90   6.05052  73   -8.4  53    -16.3 4     0     987.1    NA       0.0000   9999     0     0     0    
2019/08/10  12:25:00  BASE  5.4978   82   6.2034   86   -8.7  53    -16.5 5     0     987.0    NA       0.0000   9999     0     0     0    
2019/08/10  12:26:00  BASE  5.63892  83   6.2034   86   -8.9  53    -16.7 5     0     987.1    NA       0.0000   9999     0     0     0    
2019/08/10  12:27:00  BASE  5.29788  86   6.2034   86   -9.1  54    -16.8 5     0     987.1    NA       0.0000   9999     0     0     0    
2019/08/10  12:28:00  BASE  5.36256  88   6.41508  91   -9.2  54    -16.8 5     0     987.0    NA       0.0000   9999     0     0     0    
2019/08/10  12:29:00  BASE  6.01524  91   7.35     95   -9.2  54    -16.8 5     0     987.1    NA       0.0000   9999     0     0     0    
2019/08/10  12:30:00  BASE  6.48564  94   7.35     95   -9.2  54    -16.8 5     0     987.1    NA       0.0000   9999     0     0     0    
2019/08/10  12:31:00  BASE  6.37392  93   7.35     95   -9.2  55    -16.6 6     0     987.1    NA       0.0000   9999     0     0     0    
2019/08/10  12:32:00  BASE  6.44448  96   7.35     95   -9.1  54    -16.7 6     0     987.1    NA       0.0000   9999     0     0     0    
2019/08/10  12:33:01  BASE  6.1152   98   7.35     95   -9.1  54    -16.7 6     0     987.1    NA       0.0000   9999     0     0     0    
2019/08/10  12:34:01  BASE  5.33904  89   7.35     95   -9.0  54    -16.7 6     0     987.1    NA       0.0000   9999     0     0     0    
2019/08/10  12:35:01  BASE  5.4978   84   7.35     95   -8.9  53    -16.6 7     0     987.1    NA       0.0000   9999     0     0     0    
2019/08/10  12:36:00  BASE  5.80944  84   7.35     95   -8.8  53    -16.7 7     0     987.1    NA       0.0000   9999     0     0     0    
2019/08/10  12:37:00  BASE  5.73888  86   7.35     95   -8.7  53    -16.6 7     0     987.2    NA       0.0000   9999     0     0     0    
2019/08/10  12:38:01  BASE  6.174    84   7.35     95   -8.6  52    -16.6 7     0     987.2    NA       0.0000   9999     0     0     0    
2019/08/10  12:39:01  BASE  6.25632  86   7.3206   94   -8.5  52    -16.6 8     0     987.2    NA       0.0000   9999     0     0     0    
2019/08/10  12:40:01  BASE  5.68008  90   7.05012  106  -8.4  52    -16.5 8     0     987.3    NA       0.0000   9999     0     0     0    
2019/08/10  12:41:01  BASE  5.27436  91   7.05012  106  -8.4  51    -16.6 8     0     987.3    NA       0.0000   9999     0     0     0    
2019/08/10  12:42:01  BASE  5.39196  91   6.98544  79   -8.4  51    -16.7 9     0     987.3    NA       0.0000   9999     0     0     0    
2019/08/10  12:43:01  BASE  5.30964  88   6.98544  79   -8.5  51    -16.8 9     0     987.3    NA       0.0000   9999     0     0     0    
2019/08/10  12:44:01  BASE  5.43312  84   7.2618   81   -8.6  51    -16.8 10    0     987.2    NA       0.0000   9999     0     0     0    
2019/08/10  12:45:01  BASE  6.13872  84   7.2618   81   -8.6  52    -16.7 10    0     987.2    NA       0.0000   9999     0     0     0    
2019/08/10  12:46:01  BASE  6.3798   84   7.2618   81   -8.5  52    -16.6 11    0     987.2    NA       0.0000   9999     0     0     0    
2019/08/10  12:47:01  BASE  6.45036  84   7.4088   88   -8.4  52    -16.6 11    0     987.2    NA       0.0000   9999     0     0     0    
2019/08/10  12:48:01  BASE  6.65028  88   7.62048  92   -8.3  51    -16.6 12    0     987.3    NA       0.0000   9999     0     0     0    
2019/08/10  12:49:01  BASE  7.02072  90   7.98504  84   -8.1  51    -16.5 13    0     987.3    NA       0.0000   9999     0     0     0    
2019/08/10  12:50:01  BASE  7.39704  87   7.98504  84   -8.0  50    -16.6 13    0     987.3    NA       0.0000   9999     0     0     0    
2019/08/10  12:51:01  BASE  7.30884  86   7.98504  84   -8.0  50    -16.7 14    0     987.3    NA       0.0000   9999     0     0     0    
2019/08/10  12:52:01  BASE  6.7914   86   7.98504  84   -7.9  50    -16.6 14    0     987.4    NA       0.0000   9999     0     0     0    
2019/08/10  12:53:01  BASE  6.32688  87   7.98504  84   -7.9  49    -16.6 15    0     987.4    NA       0.0000   9999     0     0     0    
2019/08/10  12:54:01  BASE  6.27396  88   7.98504  84   -7.8  49    -16.6 16    0     987.4    NA       0.0000   9999     0     0     0    
2019/08/10  12:55:01  BASE  6.12108  87   7.98504  84   -7.9  49    -16.8 16    0     987.4    NA       0.0000   9999     0     0     0    
2019/08/10  12:56:01  BASE  5.7036   92   7.98504  84   -8.1  49    -16.9 17    0     987.4    NA       0.0000   9999     0     0     0    
2019/08/10  12:57:01  BASE  5.42724  96   7.98504  84   -8.3  50    -16.9 17    0     987.4    NA       0.0000   9999     0     0     0    
2019/08/10  12:58:01  BASE  5.95056  88   7.98504  84   -8.4  50    -16.9 18    0     987.4    NA       0.0000   9999     0     0     0    
2019/08/10  12:59:01  BASE  6.83844  84   7.89684  84   -8.5  51    -16.9 18    0     987.4    NA       0.0000   9999     0     0     0    
2019/08/10  13:00:01  BASE  6.77964  84   7.80276  89   -8.4  51    -16.7 19    0     987.5    NA       0.0000   9999     0     0     0    
2019/08/10  13:01:01  BASE  6.69732  86   7.71456  90   -8.3  51    -16.7 20    0     987.6    NA       0.0000   9999     0     0     0    
2019/08/10  13:02:01  BASE  6.9678   89   7.71456  91   -8.1  50    -16.7 20    0     987.6    NA       0.0000   9999     0     0     0    
2019/08/10  13:03:01  BASE  6.70908  89   7.71456  91   -8.0  50    -16.7 21    0     987.7    NA       0.0000   9999     0     0     0    
2019/08/10  13:04:01  BASE  6.57384  88   7.71456  91   -8.0  49    -16.8 21    0     987.7    NA       0.0000   9999     0     0     0    
2019/08/10  13:05:01  BASE  6.42684  84   7.71456  91   -8.0  49    -16.9 22    0     987.7    NA       0.0000   9999     0     0     0    
2019/08/10  13:06:01  BASE  6.7326   82   8.2908   85   -8.0  49    -16.9 22    0     987.7    NA       0.0000   9999     0     0     0    
2019/08/10  13:07:01  BASE  7.16772  85   8.2908   85   -8.0  49    -16.9 23    0     987.7    NA       0.0000   9999     0     0     0    
2019/08/10  13:08:01  BASE  6.89136  86   8.2908   85   -8.0  49    -16.9 23    0     987.7    NA       0.0000   9999     0     0     0    
2019/08/10  13:09:01  BASE  6.50916  89   8.2908   85   -8.1  49    -16.9 24    0     987.8    NA       0.0000   9999     0     0     0    
2019/08/10  13:10:01  BASE  6.16812  92   8.2908   85   -8.1  49    -16.9 24    0     987.8    NA       0.0000   9999     0     0     0    
2019/08/10  13:11:01  BASE  6.5856   89   8.2908   85   -8.2  50    -16.9 25    0     987.8    NA       0.0000   9999     0     0     0    
2019/08/10  13:12:01  BASE  6.95604  87   8.2908   85   -8.1  50    -16.8 25    0     987.8    NA       0.0000   9999     0     0     0    
2019/08/10  13:13:01  BASE  6.75024  88   8.2908   85   -8.1  50    -16.8 26    0     987.9    NA       0.0000   9999     0     0     0    
2019/08/10  13:14:01  BASE  6.50916  92   8.2908   85   -8.0  50    -16.7 26    0     987.9    NA       0.0000   9999     0     0     0    
2019/08/10  13:15:01  BASE  6.2622   95   8.2908   85   -8.0  49    -16.8 27    0     987.9    NA       0.0000   9999     0     0     0    
2019/08/10  13:16:01  BASE  6.02112  97   7.74396  83   -8.0  49    -16.9 27    0     987.9    NA       0.0000   9999     0     0     0    
2019/08/10  13:17:01  BASE  5.71536  94   7.50288  89   -8.1  49    -16.9 28    0     987.9    NA       0.0000   9999     0     0     0    
2019/08/10  13:18:01  BASE  5.53896  90   7.4088   87   -8.2  49    -17.0 28    0     987.9    NA       0.0000   9999     0     0     0    
2019/08/10  13:19:01  BASE  6.0564   92   7.50288  96   -8.3  49    -17.1 29    0     987.9    NA       0.0000   9999     0     0     0    
2019/08/10  13:20:01  BASE  6.7032   96   7.50288  96   -8.5  50    -17.1 29    0     987.9    NA       0.0000   9999     0     0     0    
2019/08/10  13:21:01  BASE  6.67968  93   7.50288  96   -8.6  50    -17.0 30    0     987.9    NA       0.0000   9999     0     0     0    
2019/08/10  13:22:01  BASE  6.36216  89   7.50288  96   -8.6  51    -17.1 30    0     987.9    NA       0.0000   9999     0     0     0    
2019/08/10  13:23:01  BASE  6.48564  90   7.50288  96   -8.7  51    -17.0 30    0     987.9    NA       0.0000   9999     0     0     0    
2019/08/10  13:24:01  BASE  6.4974   93   7.50288  96   -8.6  51    -16.9 31    0     987.9    NA       0.0000   9999     0     0     0    
2019/08/10  13:25:01  BASE  6.06816  95   7.50288  96   -8.4  50    -16.9 31    0     988.0    NA       0.0000   9999     0     0     0    
2019/08/10  13:26:01  BASE  5.58012  98   7.50288  96   -8.4  50    -17.0 32    0     988.0    NA       0.0000   9999     0     0     0    
2019/08/10  13:27:01  BASE  5.91528  102  7.92624  105  -8.3  49    -17.1 32    0     988.0    NA       0.0000   9999     0     0     0    
2019/08/10  13:28:01  BASE  6.92664  102  7.92624  105  -8.3  49    -17.1 33    0     988.1    NA       0.0000   9999     0     0     0    
2019/08/10  13:29:01  BASE  7.20888  98   7.92624  105  -8.5  49    -17.3 33    0     988.2    NA       0.0000   9999     0     0     0    
2019/08/10  13:30:01  BASE  7.24416  96   7.92624  105  -8.8  50    -17.4 33    0     988.2    NA       0.0000   9999     0     0     0    
2019/08/10  13:31:01  BASE  6.92076  98   7.92624  105  -9.0  51    -17.4 34    0     988.1    NA       0.0000   9999     0     0     0    
2019/08/10  13:32:01  BASE  6.25632  98   7.92624  105  -9.0  52    -17.2 34    0     988.1    NA       0.0000   9999     0     0     0    
2019/08/10  13:33:01  BASE  6.34452  94   7.92624  105  -9.0  52    -17.1 35    0     988.0    NA       0.0000   9999     0     0     0    
2019/08/10  13:34:01  BASE  6.48564  94   7.92624  105  -8.9  52    -17.0 35    0     988.1    NA       0.0000   9999     0     0     0    
2019/08/10  13:35:01  BASE  6.27984  100  7.92624  105  -8.7  52    -16.8 35    0     988.1    NA       0.0000   9999     0     0     0    
2019/08/10  13:36:01  BASE  6.83256  99   7.92624  105  -8.5  51    -16.8 36    0     988.2    NA       0.0000   9999     0     0     0    
2019/08/10  13:37:01  BASE  7.44996  91   7.89684  89   -8.4  50    -17.0 36    0     988.2    NA       0.0000   9999     0     0     0    
2019/08/10  13:38:01  BASE  7.23828  89   7.89684  89   -8.4  49    -17.2 36    0     988.2    NA       0.0000   9999     0     0     0    
2019/08/10  13:39:01  BASE  6.60324  94   7.89684  89   -8.5  49    -17.3 36    0     988.2    NA       0.0000   9999     0     0     0    
2019/08/10  13:40:01  BASE  6.27396  102  7.89684  89   -8.6  49    -17.3 37    0     988.3    NA       0.0000   9999     0     0     0    
2019/08/10  13:41:01  BASE  6.13284  106  7.89684  89   -8.6  50    -17.3 37    0     988.3    NA       0.0000   9999     0     0     0    
2019/08/10  13:42:01  BASE  5.55072  106  7.89684  89   -8.5  50    -17.1 37    0     988.3    NA       0.0000   9999     0     0     0    
2019/08/10  13:43:01  BASE  5.72124  103  7.89684  89   -8.3  50    -17.0 38    0     988.3    NA       0.0000   9999     0     0     0    
2019/08/10  13:44:01  BASE  6.31512  102  7.89684  89   -8.1  49    -16.9 38    0     988.3    NA       0.0000   9999     0     0     0    
2019/08/10  13:45:01  BASE  6.39744  104  7.89684  89   -8.0  49    -16.7 39    0     988.4    NA       0.0000   9999     0     0     0    
2019/08/10  13:46:01  BASE  6.56208  97   7.89684  89   -8.0  49    -16.8 40    0     988.4    NA       0.0000   9999     0     0     0    
2019/08/10  13:47:01  BASE  6.31512  91   7.65576  86   -8.1  49    -16.8 43    0     988.4    NA       0.0000   9999     0     0     0    
2019/08/10  13:48:01  BASE  5.83296  91   7.19712  86   -8.2  50    -16.9 46    0     988.4    NA       0.0000   9999     0     0     0    
2019/08/10  13:49:01  BASE  5.733    90   7.19712  86   -8.4  50    -17.1 49    0     988.4    NA       0.0000   9999     0     0     0    
2019/08/10  13:50:01  BASE  6.04464  93   7.19712  86   -8.7  50    -17.4 53    0     988.3    NA       0.0000   9999     0     0     0    
2019/08/10  13:51:01  BASE  6.47388  95   7.19712  86   -8.9  50    -17.5 57    0     988.4    NA       0.0000   9999     0     0     0    
2019/08/10  13:52:01  BASE  6.75024  94   7.19712  86   -9.1  50    -17.6 61    0     988.4    NA       0.0000   9999     0     0     0    
2019/08/10  13:53:01  BASE  6.62088  95   7.19712  86   -9.2  51    -17.6 63    0     988.4    NA       0.0000   9999     0     0     0    
2019/08/10  13:54:01  BASE  6.1446   100  7.19712  86   -9.2  51    -17.4 65    0     988.4    NA       0.0000   9999     0     0     0    
2019/08/10  13:55:01  BASE  6.10344  106  7.19712  86   -9.1  52    -17.2 67    0     988.4    NA       0.0000   9999     0     0     0    
2019/08/10  13:56:01  BASE  6.31512  103  7.16772  88   -9.0  52    -17.1 69    0     988.5    NA       0.0000   9999     0     0     0    
2019/08/10  13:57:01  BASE  6.26808  99   7.13832  96   -8.9  52    -17.1 71    0     988.5    NA       0.0000   9999     0     0     0    
2019/08/10  13:58:01  BASE  5.98584  104  7.13832  96   -8.8  51    -17.0 73    0     988.5    NA       0.0000   9999     0     0     0    
2019/08/10  13:59:01  BASE  6.04464  110  7.13832  96   -8.8  51    -17.0 74    0     988.5    NA       0.0000   9999     0     0     0    
2019/08/10  14:00:01  BASE  5.83296  107  7.13832  96   -8.7  51    -17.0 77    0     988.5    NA       0.0000   9999     0     0     0    
2019/08/10  14:01:01  BASE  5.6742   102  7.13832  96   -8.5  51    -16.9 79    0     988.5    NA       0.0000   9999     0     0     0    
2019/08/10  14:02:01  BASE  6.32688  103  7.3794   102  -8.3  51    -16.8 80    0     988.5    NA       0.0000   9999     0     0     0    
2019/08/10  14:03:01  BASE  6.92664  108  7.59108  109  -8.1  50    -16.7 81    0     988.5    NA       0.0000   9999     0     0     0    
2019/08/10  14:04:01  BASE  6.94428  104  7.59108  109  -8.0  50    -16.6 82    0     988.6    NA       0.0000   9999     0     0     0    
2019/08/10  14:05:01  BASE  6.66792  94   7.59108  109  -8.0  49    -16.8 83    0     988.7    NA       0.0000   9999     0     0     0    
2019/08/10  14:06:01  BASE  6.615    93   7.59108  109  -8.1  49    -16.9 85    0     988.7    NA       0.0000   9999     0     0     0    
2019/08/10  14:07:01  BASE  6.36216  99   7.59108  109  -8.3  49    -17.1 86    0     988.7    NA       0.0000   9999     0     0     0    
2019/08/10  14:08:01  BASE  6.2328   102  7.59108  109  -8.4  50    -17.1 86    0     988.7    NA       0.0000   9999     0     0     0    
2019/08/10  14:09:01  BASE  6.4974   101  7.62048  101  -8.5  50    -17.1 87    0     988.7    NA       0.0000   9999     0     0     0    
2019/08/10  14:10:01  BASE  6.89724  99   7.62048  101  -8.5  50    -17.1 88    0     988.7    NA       0.0000   9999     0     0     0    
2019/08/10  14:11:01  BASE  7.19124  98   7.62048  101  -8.4  50    -17.1 88    0     988.7    NA       0.0000   9999     0     0     0    
2019/08/10  14:12:01  BASE  7.21476  98   7.62048  101  -8.5  50    -17.2 88    0     988.7    NA       0.0000   9999     0     0     0    
2019/08/10  14:13:01  BASE  7.19712  97   7.62048  101  -8.6  50    -17.2 89    0     988.7    NA       0.0000   9999     0     0     0    
2019/08/10  14:14:01  BASE  6.93252  95   7.62048  101  -8.7  50    -17.2 89    0     988.7    NA       0.0000   9999     0     0     0    
2019/08/10  14:15:01  BASE  6.55032  93   7.62048  101  -8.8  51    -17.2 89    0     988.7    NA       0.0000   9999     0     0     0    
2019/08/10  14:16:01  BASE  6.71496  91   7.62048  101  -8.8  51    -17.2 90    0     988.7    NA       0.0000   9999     0     0     0    
2019/08/10  14:17:01  BASE  6.83256  90   7.62048  101  -8.9  51    -17.2 91    0     988.8    NA       0.0000   9999     0     0     0    
2019/08/10  14:18:01  BASE  6.29748  93   7.62048  101  -8.9  51    -17.2 92    0     988.9    NA       0.0000   9999     0     0     0    
2019/08/10  14:19:01  BASE  5.92704  99   7.59108  103  -9.0  51    -17.2 93    0     988.9    NA       0.0000   9999     0     0     0    
2019/08/10  14:20:01  BASE  6.05052  105  7.59108  103  -9.1  52    -17.2 94    0     988.9    NA       0.0000   9999     0     0     0    
2019/08/10  14:21:01  BASE  6.16224  109  7.59108  103  -9.1  53    -17.0 95    0     988.9    NA       0.0000   9999     0     0     0    
2019/08/10  14:22:01  BASE  6.13284  106  7.59108  103  -9.0  53    -16.8 97    0     988.9    NA       0.0000   9999     0     0     0    
2019/08/10  14:23:01  BASE  6.468    97   7.3794   93   -8.9  53    -16.7 98    0     988.9    NA       0.0000   9999     0     0     0    
2019/08/10  14:24:01  BASE  6.46212  91   7.3794   93   -8.7  53    -16.6 100   0     988.9    NA       0.0000   9999     0     0     0    
2019/08/10  14:25:01  BASE  5.95644  90   7.3794   93   -8.6  53    -16.6 102   0     988.9    NA       0.0000   9999     0     0     0    
2019/08/10  14:26:01  BASE  5.66244  92   7.3206   94   -8.6  52    -16.7 104   0     988.9    NA       0.0000   9999     0     0     0    
2019/08/10  14:27:01  BASE  6.20928  92   7.44408  92   -8.6  52    -16.8 105   0     988.9    NA       0.0000   9999     0     0     0    
2019/08/10  14:28:01  BASE  6.82668  92   7.62048  93   -8.7  51    -16.9 107   0     988.9    NA       0.0000   9999     0     0     0    
2019/08/10  14:29:01  BASE  6.6738   94   7.62048  93   -8.7  51    -17.1 108   0     989.0    NA       0.0000   9999     0     0     0    
2019/08/10  14:30:01  BASE  6.8208   96   7.62048  93   -8.9  51    -17.1 109   0     989.0    NA       0.0000   9999     0     0     0    
2019/08/10  14:31:01  BASE  7.21476  100  7.65576  103  -9.0  51    -17.2 110   0     989.0    NA       0.0000   9999     0     0     0    
2019/08/10  14:32:01  BASE  7.30884  102  7.65576  103  -9.0  52    -17.1 111   0     989.1    NA       0.0000   9999     0     0     0    
2019/08/10  14:33:01  BASE  7.18536  99   7.65576  103  -9.0  52    -17.0 111   0     989.1    NA       0.0000   9999     0     0     0    
2019/08/10  14:34:01  BASE  7.1148   96   7.65576  103  -8.9  52    -17.0 112   0     989.1    NA       0.0000   9999     0     0     0    
2019/08/10  14:35:01  BASE  6.68556  96   7.65576  103  -8.8  52    -17.0 112   0     989.1    NA       0.0000   9999     0     0     0    
2019/08/10  14:36:01  BASE  6.3504   98   7.65576  103  -8.7  52    -16.9 113   0     989.1    NA       0.0000   9999     0     0     0    
2019/08/10  14:37:01  BASE  6.65616  97   7.65576  103  -8.6  51    -16.9 114   0     989.1    NA       0.0000   9999     0     0     0    
2019/08/10  14:38:01  BASE  7.10892  98   7.65576  103  -8.7  51    -17.0 114   0     989.1    NA       0.0000   9999     0     0     0    
2019/08/10  14:39:01  BASE  7.03248  102  7.65576  103  -8.6  51    -17.0 115   0     989.1    NA       0.0000   9999     0     0     0    
2019/08/10  14:40:01  BASE  6.7326   103  7.65576  103  -8.7  51    -17.1 115   0     989.1    NA       0.0000   9999     0     0     0    
2019/08/10  14:41:01  BASE  7.02072  97   7.77336  94   -8.8  51    -17.1 116   0     989.1    NA       0.0000   9999     0     0     0    
2019/08/10  14:42:01  BASE  7.10892  93   7.77336  94   -8.8  51    -17.1 117   0     989.2    NA       0.0000   9999     0     0     0    
2019/08/10  14:43:01  BASE  6.62676  97   7.77336  94   -8.9  51    -17.2 117   0     989.2    NA       0.0000   9999     0     0     0    
2019/08/10  14:44:01  BASE  6.51504  102  7.77336  94   -8.9  51    -17.1 118   0     989.2    NA       0.0000   9999     0     0     0    
2019/08/10  14:45:01  BASE  6.8796   106  7.77336  94   -8.9  52    -17.1 119   0     989.2    NA       0.0000   9999     0     0     0    
2019/08/10  14:46:01  BASE  6.86196  105  7.77336  94   -8.9  52    -17.0 120   0     989.2    NA       0.0000   9999     0     0     0    
2019/08/10  14:47:01  BASE  6.42684  94   7.77336  94   -8.8  52    -16.9 120   0     989.3    NA       0.0000   9999     0     0     0    
2019/08/10  14:48:01  BASE  6.3504   90   7.77336  94   -8.7  52    -16.8 120   0     989.3    NA       0.0000   9999     0     0     0    
2019/08/10  14:49:01  BASE  6.49152  94   7.77336  94   -8.7  52    -16.8 121   0     989.4    NA       0.0000   9999     0     0     0    
2019/08/10  14:50:01  BASE  6.66792  96   7.77336  94   -8.7  52    -16.8 122   0     989.4    NA       0.0000   9999     0     0     0    
2019/08/10  14:51:01  BASE  6.65616  99   7.47348  98   -8.6  51    -16.9 123   0     989.4    NA       0.0000   9999     0     0     0    
2019/08/10  14:52:01  BASE  6.06228  102  7.47348  98   -8.6  51    -17.0 123   0     989.5    NA       0.0000   9999     0     0     0    
2019/08/10  14:53:01  BASE  6.18576  99   7.47348  98   -8.7  51    -17.0 124   0     989.5    NA       0.0000   9999     0     0     0    
2019/08/10  14:54:01  BASE  6.91488  94   7.59108  94   -8.6  51    -17.0 125   0     989.5    NA       0.0000   9999     0     0     0    
2019/08/10  14:55:01  BASE  7.2324   92   7.74396  86   -8.7  51    -17.1 125   0     989.5    NA       0.0000   9999     0     0     0    
2019/08/10  14:56:01  BASE  6.99132  91   7.74396  86   -8.6  51    -17.1 126   0     989.5    NA       0.0000   9999     0     0     0    
2019/08/10  14:57:01  BASE  7.0266   92   8.04384  92   -8.6  51    -17.0 127   0     989.5    NA       0.0000   9999     0     0     0    
2019/08/10  14:58:01  BASE  7.36176  92   8.04384  92   -8.5  50    -17.0 127   0     989.6    NA       0.0000   9999     0     0     0    
2019/08/10  14:59:01  BASE  7.13832  91   8.04384  92   -8.5  50    -17.0 128   0     989.6    NA       0.0000   9999     0     0     0    
2019/08/10  15:00:01  BASE  6.74436  91   8.04384  92   -8.3  50    -16.9 129   0     989.6    NA       0.0000   9999     0     0     0    
2019/08/10  15:01:01  BASE  6.66204  95   8.04384  92   -8.3  50    -16.9 130   0     989.6    NA       0.0000   9999     0     0     0    
2019/08/10  15:02:01  BASE  6.7914   98   8.04384  92   -8.3  50    -16.9 130   0     989.6    NA       0.0000   9999     0     0     0    
2019/08/10  15:03:01  BASE  6.56208  102  8.04384  92   -8.4  50    -16.9 131   0     989.7    NA       0.0000   9999     0     0     0    
2019/08/10  15:04:01  BASE  6.56208  106  8.04384  92   -8.5  51    -16.8 132   0     989.7    NA       0.0000   9999     0     0     0    
2019/08/10  15:05:01  BASE  6.73848  100  8.04384  92   -8.5  52    -16.7 132   0     989.7    NA       0.0000   9999     0     0     0    
2019/08/10  15:06:01  BASE  6.90312  93   8.04384  92   -8.5  52    -16.7 133   0     989.7    NA       0.0000   9999     0     0     0    
2019/08/10  15:07:01  BASE  6.92664  92   7.65576  95   -8.6  52    -16.8 134   0     989.7    NA       0.0000   9999     0     0     0    
2019/08/10  15:08:01  BASE  6.86196  92   7.74396  93   -8.7  52    -16.8 135   0     989.7    NA       0.0000   9999     0     0     0    
2019/08/10  15:09:01  BASE  7.10892  94   7.74396  93   -8.7  51    -17.0 135   0     989.7    NA       0.0000   9999     0     0     0    
2019/08/10  15:10:01  BASE  6.95016  99   7.74396  93   -8.7  51    -17.1 135   0     989.7    NA       0.0000   9999     0     0     0    
2019/08/10  15:11:01  BASE  6.57384  103  7.74396  93   -8.8  51    -17.1 135   0     989.7    NA       0.0000   9999     0     0     0    
2019/08/10  15:12:01  BASE  6.50328  107  7.74396  93   -8.8  51    -17.1 136   0     989.7    NA       0.0000   9999     0     0     0    
2019/08/10  15:13:01  BASE  6.66204  109  7.74396  93   -8.7  52    -16.9 136   0     989.7    NA       0.0000   9999     0     0     0    
2019/08/10  15:14:01  BASE  6.72084  111  7.74396  93   -8.6  52    -16.8 137   0     989.7    NA       0.0000   9999     0     0     0    
2019/08/10  15:15:01  BASE  6.5562   108  7.74396  93   -8.5  51    -16.8 137   0     989.7    NA       0.0000   9999     0     0     0    
2019/08/10  15:16:01  BASE  6.19752  103  7.74396  93   -8.4  51    -16.8 138   0     989.7    NA       0.0000   9999     0     0     0    
2019/08/10  15:17:01  BASE  5.75652  103  7.74396  93   -8.3  51    -16.7 139   0     989.7    NA       0.0000   9999     0     0     0    
2019/08/10  15:18:01  BASE  6.05052  102  7.74396  93   -8.3  51    -16.8 139   0     989.7    NA       0.0000   9999     0     0     0    
2019/08/10  15:19:01  BASE  6.13872  105  7.3794   107  -8.3  50    -16.8 140   0     989.7    NA       0.0000   9999     0     0     0    
2019/08/10  15:20:01  BASE  5.75652  112  7.3794   107  -8.2  50    -16.7 140   0     989.8    NA       0.0000   9999     0     0     0    
2019/08/10  15:21:01  BASE  5.89764  113  7.3794   107  -8.1  50    -16.7 141   0     989.8    NA       0.0000   9999     0     0     0    
2019/08/10  15:22:01  BASE  6.45624  110  8.10852  103  -8.0  49    -16.8 142   0     989.8    NA       0.0000   9999     0     0     0    
2019/08/10  15:23:01  BASE  6.7914   105  8.25552  101  -7.9  49    -16.8 143   0     989.9    NA       0.0000   9999     0     0     0    
2019/08/10  15:24:01  BASE  5.98584  101  8.25552  101  -7.9  48    -16.9 143   0     989.9    NA       0.0000   9999     0     0     0    
2019/08/10  15:25:01  BASE  5.439    106  8.25552  101  -7.9  48    -17.0 143   0     990.0    NA       0.0000   9999     0     0     0    
2019/08/10  15:26:01  BASE  5.91528  109  8.25552  101  -7.9  48    -17.1 143   0     990.0    NA       0.0000   9999     0     0     0    
2019/08/10  15:27:00  BASE  5.78004  105  8.25552  101  -8.0  48    -17.0 144   0     990.0    NA       0.0000   9999     0     0     0    
2019/08/10  15:28:01  BASE  5.66244  104  8.25552  101  -8.0  48    -17.1 144   0     990.1    NA       0.0000   9999     0     0     0    
2019/08/10  15:29:00  BASE  6.19752  102  8.25552  101  -8.1  48    -17.1 145   0     990.1    NA       0.0000   9999     0     0     0    
2019/08/10  15:30:00  BASE  6.07404  100  8.25552  101  -8.1  49    -17.1 145   0     990.2    NA       0.0000   9999     0     0     0    
2019/08/10  15:31:01  BASE  5.72712  100  8.25552  101  -8.1  49    -17.0 146   0     990.2    NA       0.0000   9999     0     0     0    
2019/08/10  15:32:01  BASE  6.0858   99   8.25552  101  -8.2  49    -17.1 147   0     990.3    NA       0.0000   9999     0     0     0    
2019/08/10  15:33:00  BASE  6.39744  96   7.4088   87   -8.2  49    -17.1 147   0     990.3    NA       0.0000   9999     0     0     0    
2019/08/10  15:34:01  BASE  6.06816  97   7.4088   87   -8.2  49    -17.1 148   0     990.3    NA       0.0000   9999     0     0     0    
2019/08/10  15:35:00  BASE  5.81532  103  7.4088   87   -8.3  49    -17.1 148   0     990.3    NA       0.0000   9999     0     0     0    
2019/08/10  15:36:01  BASE  5.68008  107  7.4088   87   -8.3  49    -17.0 149   0     990.2    NA       0.0000   9999     0     0     0    
2019/08/10  15:37:00  BASE  5.85648  111  7.4088   87   -8.3  50    -17.0 149   0     990.2    NA       0.0000   9999     0     0     0    
2019/08/10  15:38:01  BASE  6.36216  107  7.4088   87   -8.3  50    -17.0 149   0     990.2    NA       0.0000   9999     0     0     0    
2019/08/10  15:39:00  BASE  6.28572  100  7.4088   87   -8.2  50    -16.9 149   0     990.2    NA       0.0000   9999     0     0     0    
2019/08/10  15:40:01  BASE  5.8212   96   7.4088   87   -8.2  49    -16.9 150   0     990.3    NA       0.0000   9999     0     0     0    
2019/08/10  15:41:01  BASE  5.60364  99   7.4088   87   -8.1  49    -16.9 150   0     990.3    NA       0.0000   9999     0     0     0    
2019/08/10  15:42:01  BASE  5.7036   101  7.13832  89   -8.1  49    -17.0 150   0     990.3    NA       0.0000   9999     0     0     0    
2019/08/10  15:43:01  BASE  5.87412  99   7.02072  110  -8.2  49    -17.0 151   0     990.3    NA       0.0000   9999     0     0     0    
2019/08/10  15:44:01  BASE  6.321    95   7.16772  91   -8.2  49    -17.0 151   0     990.3    NA       0.0000   9999     0     0     0    
2019/08/10  15:45:01  BASE  6.43272  93   7.16772  91   -8.2  49    -17.0 152   0     990.4    NA       0.0000   9999     0     0     0    
2019/08/10  15:46:01  BASE  5.95644  94   7.16772  91   -8.3  49    -17.1 152   0     990.4    NA       0.0000   9999     0     0     0    
2019/08/10  15:47:01  BASE  5.84472  97   7.16772  91   -8.4  49    -17.1 152   0     990.4    NA       0.0000   9999     0     0     0    
2019/08/10  15:48:01  BASE  5.76828  98   7.16772  91   -8.3  49    -17.1 153   0     990.4    NA       0.0000   9000     0     0     0    
2019/08/10  15:49:01  BASE  5.66832  100  7.16772  91   -8.3  49    -17.2 153   0     990.4    NA       0.0000   9999     0     0     0    
2019/08/10  15:50:01  BASE  5.586    98   7.16772  91   -8.4  49    -17.3 153   0     990.4    NA       0.0000   9999     0     0     0    
2019/08/10  15:51:01  BASE  5.38608  98   7.16772  91   -8.4  49    -17.3 153   0     990.4    NA       0.0000   9999     0     0     0    
2019/08/10  15:52:01  BASE  5.27436  103  7.16772  91   -8.4  49    -17.2 154   0     990.4    NA       0.0000   9999     0     0     0    
2019/08/10  15:53:01  BASE  5.49192  100  7.16772  91   -8.4  49    -17.2 154   0     990.4    NA       0.0000   9999     0     0     0    
2019/08/10  15:54:01  BASE  5.71536  101  6.80316  94   -8.4  50    -17.0 154   0     990.5    NA       0.0000   9999     0     0     0    
2019/08/10  15:55:01  BASE  5.42724  107  6.80316  94   -8.3  50    -17.0 153   0     990.6    NA       0.0000   9999     0     0     0    
2019/08/10  15:56:01  BASE  5.07444  103  6.80316  94   -8.3  49    -17.0 154   0     990.7    NA       0.0000   9999     0     0     0    
2019/08/10  15:57:01  BASE  4.7334   98   6.80316  94   -8.3  49    -17.0 155   0     990.7    NA       0.0000   9999     0     0     0    
2019/08/10  15:58:01  BASE  5.00976  93   6.80316  94   -8.1  49    -16.9 154   0     990.7    NA       0.0000   9999     0     0     0    
2019/08/10  15:59:01  BASE  5.49192  84   6.44448  87   -7.9  49    -16.8 155   0     990.7    NA       0.0000   9999     0     0     0    
2019/08/10  16:00:01  BASE  5.39196  82   6.3504   87   -7.7  48    -16.8 155   0     990.7    NA       0.0000   9999     0     0     0    
2019/08/10  16:01:01  BASE  4.70988  87   6.3504   87   -7.5  48    -16.6 156   0     990.8    NA       0.0000   9999     0     0     0    
2019/08/10  16:02:01  BASE  4.35708  92   6.3504   87   -7.3  47    -16.6 156   0     990.8    NA       0.0000   9999     0     0     0    
2019/08/10  16:03:01  BASE  4.43352  98   6.3504   87   -7.2  47    -16.7 157   0     990.8    NA       0.0000   9999     0     0     0    
2019/08/10  16:04:01  BASE  4.33944  95   6.3504   87   -7.3  47    -16.9 157   0     990.8    NA       0.0000   9999     0     0     0    
2019/08/10  16:05:01  BASE  4.88628  84   6.3504   87   -7.5  47    -16.9 157   0     990.8    NA       0.0000   9999     0     0     0    
2019/08/10  16:06:01  BASE  5.44488  83   6.3504   87   -7.5  47    -16.8 157   0     990.9    NA       0.0000   9999     0     0     0    
2019/08/10  16:07:00  BASE  5.04504  88   6.3504   87   -7.5  48    -16.8 158   0     990.9    NA       0.0000   9999     0     0     0    
2019/08/10  16:08:01  BASE  4.06896  100  6.321    76   -7.4  48    -16.7 158   0     990.9    NA       0.0000   9999     0     0     0    
2019/08/10  16:09:00  BASE  4.10424  103  6.2622   80   -7.2  47    -16.6 158   0     990.9    NA       0.0000   9999     0     0     0    
2019/08/10  16:10:01  BASE  4.30416  98   6.2622   80   -7.2  46    -16.7 158   0     990.9    NA       0.0000   9999     0     0     0    
2019/08/10  16:11:00  BASE  4.32768  100  6.2622   80   -7.2  46    -16.8 158   0     990.9    NA       0.0000   9999     0     0     0    
2019/08/10  16:12:01  BASE  4.28064  99   6.2622   80   -7.2  46    -16.9 159   0     991.0    NA       0.0000   9999     0     0     0    
2019/08/10  16:13:00  BASE  3.54564  100  6.2622   80   -7.2  46    -16.9 159   0     991.0    NA       0.0000   9999     0     0     0    
2019/08/10  16:14:01  BASE  3.60444  109  6.2622   80   -7.3  46    -16.9 136   0     991.0    NA       0.0000   9999     0     0     0    
2019/08/10  16:15:00  BASE  4.55112  114  6.2622   80   -7.3  46    -17.0 134   0     991.0    NA       0.0000   9999     0     0     0    
2019/08/10  16:16:01  BASE  5.35668  109  6.3504   103  -7.3  46    -17.1 159   0     991.0    NA       0.0000   9999     0     0     0    
2019/08/10  16:17:00  BASE  4.82748  108  6.3504   103  -7.4  46    -17.1 160   0     991.0    NA       0.0000   9999     0     0     0    
2019/08/10  16:18:00  BASE  4.02192  122  6.3504   103  -7.4  46    -17.1 160   0     991.1    NA       0.0000   9999     0     0     0    
2019/08/10  16:19:00  BASE  4.04544  128  6.3504   103  -7.3  45    -17.1 160   0     991.2    NA       0.0000   9999     0     0     0    
2019/08/10  16:20:00  BASE  4.21596  124  6.3504   103  -7.2  45    -17.1 160   0     991.2    NA       0.0000   9999     0     0     0    
2019/08/10  16:21:00  BASE  4.13952  125  6.3504   103  -7.1  45    -17.1 160   0     991.2    NA       0.0000   9999     0     0     0    
2019/08/10  16:22:00  BASE  3.49272  122  6.3504   103  -7.1  45    -17.1 160   0     991.3    NA       0.0000   9999     0     0     0    
2019/08/10  16:23:00  BASE  3.0282   119  6.3504   103  -7.2  45    -17.2 160   0     991.3    NA       0.0000   9999     0     0     0    
2019/08/10  16:24:00  BASE  3.26928  107  6.3504   103  -7.2  45    -17.2 160   0     991.3    NA       0.0000   9999     0     0     0    
2019/08/10  16:25:00  BASE  3.53388  101  6.3504   103  -7.3  45    -17.2 161   0     991.3    NA       0.0000   9999     0     0     0    
2019/08/10  16:26:00  BASE  3.51036  109  5.65656  101  -7.3  45    -17.3 161   0     991.4    NA       0.0000   9999     0     0     0    
2019/08/10  16:27:00  BASE  3.6456   105  5.02152  85   -7.4  45    -17.3 161   0     991.4    NA       0.0000   9999     0     0     0    
2019/08/10  16:28:01  BASE  3.81024  90   5.02152  85   -7.5  45    -17.3 161   0     991.4    NA       0.0000   9999     0     0     0    
2019/08/10  16:29:00  BASE  4.16304  91   5.02152  85   -7.4  45    -17.2 162   0     991.5    NA       0.0000   9999     0     0     0    
2019/08/10  16:30:00  BASE  4.704    103  5.86824  97   -7.3  45    -17.3 162   0     991.5    NA       0.0000   9999     0     0     0    
2019/08/10  16:31:00  BASE  4.57464  102  5.86824  97   -7.3  45    -17.3 162   0     991.5    NA       0.0000   9999     0     0     0    
2019/08/10  16:32:00  BASE  3.69264  103  5.86824  97   -7.2  44    -17.4 163   0     991.5    NA       0.0000   9999     0     0     0    
2019/08/10  16:33:00  BASE  2.7636   107  5.86824  97   -7.1  43    -17.5 163   0     991.5    NA       0.0000   9999     0     0     0    
2019/08/10  16:34:00  BASE  2.83416  99   5.86824  97   -7.2  43    -17.5 163   0     991.4    NA       0.0000   9999     0     0     0    
2019/08/10  16:35:00  BASE  4.26888  95   5.86824  99   -7.2  44    -17.5 163   0     991.5    NA       0.0000   9999     0     0     0    
2019/08/10  16:36:01  BASE  4.99212  102  6.2034   104  -7.3  44    -17.6 164   0     991.5    NA       0.0000   9999     0     0     0    
2019/08/10  16:37:00  BASE  4.87452  104  6.2034   104  -7.3  44    -17.6 164   0     991.5    NA       0.0000   9999     0     0     0    
2019/08/10  16:38:01  BASE  4.81572  102  6.2034   104  -7.4  44    -17.5 164   0     991.5    NA       0.0000   9999     0     0     0    
2019/08/10  16:39:00  BASE  4.704    106  6.2034   104  -7.5  45    -17.5 164   0     991.5    NA       0.0000   9999     0     0     0    
2019/08/10  16:40:00  BASE  5.8506   107  7.53228  103  -7.6  45    -17.4 165   0     991.5    NA       0.0000   9999     0     0     0    
2019/08/10  16:41:00  BASE  6.71496  95   7.53228  103  -7.7  46    -17.3 165   0     991.5    NA       0.0000   9999     0     0     0    
2019/08/10  16:42:00  BASE  5.9094   84   7.53228  103  -7.5  46    -17.2 165   0     991.5    NA       0.0000   9999     0     0     0    
2019/08/10  16:43:00  BASE  4.76868  79   7.53228  103  -7.2  45    -17.2 164   0     991.6    NA       0.0000   9999     0     0     0    
2019/08/10  16:44:00  BASE  4.28064  83   7.53228  103  -7.0  44    -17.3 165   0     991.6    NA       0.0000   9999     0     0     0    
2019/08/10  16:45:00  BASE  4.41588  97   7.53228  103  -6.8  43    -17.3 164   0     991.6    NA       0.0000   9999     0     0     0    
2019/08/10  16:46:00  BASE  3.80436  107  7.53228  103  -6.8  42    -17.4 164   0     991.6    NA       0.0000   9999     0     0     0    
2019/08/10  16:47:00  BASE  2.42844  94   7.53228  103  -6.8  42    -17.5 164   0     991.6    NA       0.0000   9999     0     0     0    
2019/08/10  16:48:00  BASE  1.65228  94   7.53228  103  -7.1  43    -17.6 162   0     991.6    NA       0.0000   9999     0     0     0    
2019/08/10  16:49:00  BASE  1.74636  95   7.53228  103  -7.3  44    -17.6 161   0     991.7    NA       0.0000   9999     0     0     0    
2019/08/10  16:50:00  BASE  1.9992   85   7.2912   91   -7.4  44    -17.5 159   0     991.7    NA       0.0000   9999     0     0     0    
2019/08/10  16:51:00  BASE  2.1756   68   6.07992  84   -7.5  45    -17.4 157   0     991.7    NA       0.0000   9999     0     0     0    
2019/08/10  16:52:00  BASE  3.06348  47   5.99172  103  -7.5  46    -17.1 157   0     991.8    NA       0.0000   9999     0     0     0    
2019/08/10  16:53:00  BASE  4.39824  53   5.99172  103  -7.4  47    -16.7 157   0     991.8    NA       0.0000   9999     0     0     0    
2019/08/10  16:54:01  BASE  5.08032  62   7.3794   66   -7.3  48    -16.4 158   0     991.8    NA       0.0000   9999     0     0     0    
2019/08/10  16:55:00  BASE  5.81532  64   7.3794   66   -7.2  49    -16.1 159   0     991.8    NA       0.0000   9999     0     0     0    
2019/08/10  16:56:00  BASE  6.36804  65   7.3794   66   -7.2  49    -16.0 159   0     991.8    NA       0.0000   9999     0     0     0    
2019/08/10  16:57:00  BASE  6.32688  72   7.3794   66   -7.2  49    -16.0 159   0     991.8    NA       0.0000   9999     0     0     0    
2019/08/10  16:58:01  BASE  6.2034   74   7.3794   66   -7.2  49    -16.2 160   0     991.9    NA       0.0000   9999     0     0     0    
2019/08/10  16:59:00  BASE  5.92116  64   7.3794   66   -7.2  48    -16.3 159   0     991.9    NA       0.0000   9999     0     0     0    
2019/08/10  17:00:00  BASE  5.77416  57   7.3794   66   -7.2  49    -16.2 158   0     991.9    NA       0.0000   9999     0     0     0    
2019/08/10  17:01:00  BASE  5.65656  64   7.3794   66   -7.3  49    -16.2 159   0     992.0    NA       0.0000   9999     0     0     0    
2019/08/10  17:02:01  BASE  5.28024  68   7.3794   66   -7.3  49    -16.1 159   0     992.0    NA       0.0000   9999     0     0     0    
2019/08/10  17:03:00  BASE  5.12148  67   7.3794   66   -7.3  50    -16.0 160   0     992.0    NA       0.0000   9999     0     0     0    
2019/08/10  17:04:00  BASE  5.39784  76   7.3794   66   -7.3  50    -15.9 159   0     992.0    NA       0.0000   9999     0     0     0    
2019/08/10  17:05:00  BASE  5.89764  86   7.13832  75   -7.4  50    -16.0 159   0     992.0    NA       0.0000   9999     0     0     0    
2019/08/10  17:06:00  BASE  6.2916   87   8.07912  92   -7.5  50    -16.2 159   0     992.0    NA       0.0000   9999     0     0     0    
2019/08/10  17:07:01  BASE  6.0858   89   8.07912  92   -7.3  49    -16.3 158   0     992.0    NA       0.0000   9999     0     0     0    
2019/08/10  17:08:00  BASE  6.04464  83   8.07912  92   -7.2  48    -16.5 157   0     992.0    NA       0.0000   9999     0     0     0    
2019/08/10  17:09:00  BASE  6.56796  72   8.07912  92   -7.1  46    -16.7 158   0     992.0    NA       0.0000   9999     0     0     0    
2019/08/10  17:10:00  BASE  6.59148  71   8.07912  92   -6.8  45    -16.8 158   0     992.0    NA       0.0000   9999     0     0     0    
2019/08/10  17:11:00  BASE  6.96192  73   8.13792  80   -6.7  45    -16.8 158   0     992.0    NA       0.0000   9999     0     0     0    
2019/08/10  17:12:00  BASE  7.15596  73   8.13792  80   -6.6  44    -16.8 158   0     992.0    NA       0.0000   9999     0     0     0    
2019/08/10  17:13:00  BASE  6.99132  68   8.13792  80   -6.5  44    -16.8 157   0     992.0    NA       0.0000   9999     0     0     0    
2019/08/10  17:14:00  BASE  6.97956  61   8.13792  80   -6.5  44    -16.8 158   0     992.0    NA       0.0000   9999     0     0     0    
2019/08/10  17:15:00  BASE  6.32688  63   8.13792  80   -6.5  44    -16.8 157   0     992.0    NA       0.0000   9999     0     0     0    
2019/08/10  17:16:00  BASE  5.4096   75   8.13792  80   -6.5  43    -16.9 157   0     992.1    NA       0.0000   9999     0     0     0    
2019/08/10  17:17:00  BASE  4.7628   81   8.13792  80   -6.6  43    -17.1 156   0     992.1    NA       0.0000   9999     0     0     0    
2019/08/10  17:18:00  BASE  4.78632  72   8.13792  80   -6.8  44    -17.0 155   0     992.1    NA       0.0000   9999     0     0     0    
2019/08/10  17:19:00  BASE  5.08032  65   8.13792  80   -6.9  45    -16.9 155   0     992.1    NA       0.0000   9999     0     0     0    
2019/08/10  17:20:00  BASE  5.42136  68   8.13792  80   -7.0  46    -16.7 154   0     992.1    NA       0.0000   9999     0     0     0    
2019/08/10  17:21:00  BASE  5.5272   69   8.04384  67   -7.1  47    -16.5 154   0     992.1    NA       0.0000   9999     0     0     0    
2019/08/10  17:22:00  BASE  5.4978   68   8.04384  67   -7.0  47    -16.3 154   0     992.1    NA       0.0000   9999     0     0     0    
2019/08/10  17:23:00  BASE  5.3508   66   7.59108  56   -6.9  47    -16.3 154   0     992.1    NA       0.0000   9999     0     0     0    
2019/08/10  17:24:00  BASE  4.86864  68   6.321    62   -6.8  47    -16.4 153   0     992.1    NA       0.0000   9999     0     0     0    
2019/08/10  17:25:00  BASE  4.86276  73   6.2034   85   -6.8  46    -16.5 152   0     992.1    NA       0.0000   9999     0     0     0    
2019/08/10  17:26:00  BASE  4.7922   84   6.2034   85   -6.7  45    -16.6 152   0     992.1    NA       0.0000   9999     0     0     0    
2019/08/10  17:27:00  BASE  4.08072  91   6.2034   85   -6.8  45    -16.8 151   0     992.2    NA       0.0000   9999     0     0     0    
2019/08/10  17:28:00  BASE  4.4394   89   6.2622   89   -6.9  45    -16.9 150   0     992.2    NA       0.0000   9999     0     0     0    
2019/08/10  17:29:00  BASE  5.28024  86   6.2622   89   -7.0  45    -16.9 150   0     992.2    NA       0.0000   9999     0     0     0    
2019/08/10  17:30:00  BASE  4.91568  78   6.2622   89   -6.9  44    -17.1 150   0     992.2    NA       0.0000   9999     0     0     0    
2019/08/10  17:31:00  BASE  4.01016  72   6.2622   89   -6.8  44    -17.1 150   0     992.2    NA       0.0000   9999     0     0     0    
2019/08/10  17:32:00  BASE  4.01016  79   6.2622   89   -6.8  44    -17.0 149   0     992.2    NA       0.0000   9999     0     0     0    
2019/08/10  17:33:00  BASE  4.12188  91   6.2622   89   -6.7  44    -17.0 149   0     992.2    NA       0.0000   9999     0     0     0    
2019/08/10  17:34:00  BASE  3.675    97   6.2622   89   -6.7  43    -17.1 148   0     992.2    NA       0.0000   9999     0     0     0    
2019/08/10  17:35:00  BASE  3.4104   87   6.2622   89   -6.7  44    -17.0 147   0     992.3    NA       0.0000   9999     0     0     0    
2019/08/10  17:36:00  BASE  3.2928   84   6.2622   89   -6.7  44    -17.0 147   0     992.3    NA       0.0000   9999     0     0     0    
2019/08/10  17:37:00  BASE  3.4398   91   6.2622   89   -6.7  43    -17.1 146   0     992.3    NA       0.0000   9999     0     0     0    
2019/08/10  17:38:00  BASE  3.54564  88   6.2328   81   -6.8  44    -17.1 146   0     992.3    NA       0.0000   9999     0     0     0    
2019/08/10  17:39:00  BASE  3.58092  81   4.99212  79   -7.0  45    -17.0 145   0     992.3    NA       0.0000   9999     0     0     0    
2019/08/10  17:40:00  BASE  3.74556  76   4.78044  87   -7.1  45    -16.9 144   0     992.3    NA       0.0000   9999     0     0     0    
2019/08/10  17:41:00  BASE  3.72792  70   4.78044  87   -7.2  46    -16.8 143   0     992.3    NA       0.0000   9999     0     0     0    
2019/08/10  17:42:00  BASE  3.16932  61   4.75104  90   -7.3  48    -16.5 143   0     992.3    NA       0.0000   9999     0     0     0    
2019/08/10  17:43:00  BASE  2.75772  62   4.29828  98   -7.3  49    -16.3 142   0     992.3    NA       0.0000   9999     0     0     0    
2019/08/10  17:44:00  BASE  2.84592  72   4.29828  98   -7.3  49    -16.1 141   0     992.3    NA       0.0000   9999     0     0     0    
2019/08/10  17:45:00  BASE  3.1458   81   4.29828  98   -7.3  50    -16.0 141   0     992.4    NA       0.0000   9999     0     0     0    
2019/08/10  17:46:00  BASE  3.19284  71   4.263    87   -7.3  50    -15.9 141   0     992.4    NA       0.0000   9999     0     0     0    
2019/08/10  17:47:00  BASE  2.89296  51   4.08072  73   -7.3  50    -15.8 140   0     992.4    NA       0.0000   9999     0     0     0    
2019/08/10  17:48:00  BASE  2.6754   45   4.08072  73   -7.2  50    -15.9 140   0     992.4    NA       0.0000   9999     0     0     0    
2019/08/10  17:49:00  BASE  2.54604  51   4.08072  73   -7.2  50    -15.8 139   0     992.4    NA       0.0000   9999     0     0     0    
2019/08/10  17:50:00  BASE  2.37552  58   4.05132  66   -7.1  50    -15.8 139   0     992.4    NA       0.0000   9999     0     0     0    
2019/08/10  17:51:00  BASE  2.2638   59   3.99252  83   -7.1  50    -15.8 138   0     992.4    NA       0.0000   9999     0     0     0    
2019/08/10  17:52:00  BASE  2.29908  56   3.99252  83   -7.1  50    -15.9 137   0     992.4    NA       0.0000   9999     0     0     0    
2019/08/10  17:53:00  BASE  2.48136  58   3.99252  83   -7.2  50    -15.9 136   0     992.5    NA       0.0000   9999     0     0     0    
2019/08/10  17:54:00  BASE  2.8812   59   3.99252  83   -7.2  50    -15.8 135   0     992.6    NA       0.0000   9999     0     0     0    
2019/08/10  17:55:00  BASE  2.98116  57   3.35748  53   -7.1  50    -15.7 135   0     992.6    NA       0.0000   9999     0     0     0    
2019/08/10  17:56:00  BASE  2.3814   57   3.35748  53   -7.0  51    -15.5 134   0     992.7    NA       0.0000   9999     0     0     0    
2019/08/10  17:57:00  BASE  1.2348   59   3.35748  53   -6.9  51    -15.3 133   0     992.7    NA       0.0000   9999     0     0     0    
2019/08/10  17:58:00  BASE  0.81144  49   3.35748  53   -6.8  51    -15.2 132   0     992.7    NA       0.0000   9999     0     0     0    
2019/08/10  17:59:00  BASE  0.50568  46   3.35748  53   -6.8  52    -15.1 132   0     992.7    NA       0.0000   9999     0     0     0    
2019/08/10  18:00:00  BASE  0.41748  49   3.35748  53   -6.9  52    -15.1 131   0     992.7    NA       0.0000   9999     0     0     0    
2019/08/10  18:01:00  BASE  1.56996  41   3.35748  53   -7.0  53    -15.0 130   0     992.7    NA       0.0000   9999     0     0     0    
2019/08/10  18:02:00  BASE  1.9992   45   3.35748  53   -7.1  54    -14.8 130   0     992.7    NA       0.0000   9999     0     0     0    
2019/08/10  18:03:00  BASE  1.75812  76   3.35748  53   -7.1  55    -14.6 129   0     992.7    NA       0.0000   9999     0     0     0    
2019/08/10  18:04:00  BASE  1.90512  112  3.35748  53   -7.3  56    -14.5 128   0     992.7    NA       0.0000   9999     0     0     0    
2019/08/10  18:05:00  BASE  2.56956  107  4.08072  91   -7.4  57    -14.4 128   0     992.8    NA       0.0000   9999     0     0     0    
2019/08/10  18:06:00  BASE  3.35748  94   4.08072  91   -7.6  58    -14.5 127   0     992.8    NA       0.0000   9999     0     0     0    
2019/08/10  18:07:00  BASE  3.52212  90   4.08072  91   -7.6  57    -14.6 126   0     992.8    NA       0.0000   9999     0     0     0    
2019/08/10  18:08:00  BASE  3.087    90   4.08072  91   -7.7  57    -14.8 125   0     992.8    NA       0.0000   9999     0     0     0    
2019/08/10  18:09:00  BASE  2.3814   89   4.08072  91   -7.6  56    -14.9 124   0     992.8    NA       0.0000   9999     0     0     0    
2019/08/10  18:10:00  BASE  2.69892  80   4.08072  91   -7.4  55    -15.0 124   0     992.8    NA       0.0000   9999     0     0     0    
2019/08/10  18:11:00  BASE  3.37512  73   4.08072  91   -7.2  54    -15.1 124   0     992.8    NA       0.0000   9999     0     0     0    
2019/08/10  18:12:00  BASE  3.42216  74   4.08072  91   -7.1  53    -15.2 123   0     992.9    NA       0.0000   9999     0     0     0    
2019/08/10  18:13:00  BASE  3.4398   78   4.08072  91   -7.1  52    -15.4 123   0     992.9    NA       0.0000   9999     0     0     0    
2019/08/10  18:14:00  BASE  3.63384  80   4.08072  91   -7.1  51    -15.5 122   0     992.9    NA       0.0000   9999     0     0     0    
2019/08/10  18:15:00  BASE  3.84552  78   4.116    82   -7.2  50    -15.9 121   0     992.9    NA       0.0000   9999     0     0     0    
2019/08/10  18:16:00  BASE  4.06308  77   4.50996  77   -7.3  49    -16.2 120   0     992.9    NA       0.0000   9999     0     0     0    
2019/08/10  18:17:00  BASE  4.12776  75   4.50996  77   -7.4  48    -16.5 119   0     992.9    NA       0.0000   9999     0     0     0    
2019/08/10  18:18:00  BASE  4.05132  72   4.50996  77   -7.5  48    -16.7 118   0     992.9    NA       0.0000   9999     0     0     0    
2019/08/10  18:19:00  BASE  3.9984   69   4.50996  77   -7.4  47    -16.8 117   0     993.0    NA       0.0000   9999     0     0     0    
2019/08/10  18:20:00  BASE  3.80436  73   4.50996  77   -7.2  46    -17.0 116   0     993.0    NA       0.0000   9999     0     0     0    
2019/08/10  18:21:00  BASE  3.54564  75   4.50996  77   -7.2  45    -17.1 115   0     993.1    NA       0.0000   9999     0     0     0    
2019/08/10  18:22:00  BASE  3.62796  74   4.50996  77   -7.1  45    -17.2 114   0     993.2    NA       0.0000   9999     0     0     0    
2019/08/10  18:23:00  BASE  3.72204  75   4.50996  77   -7.1  44    -17.2 113   0     993.2    NA       0.0000   9999     0     0     0    
2019/08/10  18:24:00  BASE  3.71028  74   4.50996  77   -7.2  44    -17.3 112   0     993.2    NA       0.0000   9999     0     0     0    
2019/08/10  18:25:00  BASE  3.9396   74   4.50996  77   -7.2  45    -17.2 111   0     993.2    NA       0.0000   9999     0     0     0    
2019/08/10  18:26:00  BASE  3.91608  83   4.41588  73   -7.2  45    -17.2 111   0     993.3    NA       0.0000   9999     0     0     0    
2019/08/10  18:27:00  BASE  3.83964  91   4.35708  67   -7.2  45    -17.2 109   0     993.3    NA       0.0000   9999     0     0     0    
2019/08/10  18:28:00  BASE  4.05132  91   4.83924  96   -7.3  44    -17.4 108   0     993.4    NA       0.0000   9999     0     0     0    
2019/08/10  18:29:00  BASE  4.37472  88   4.83924  96   -7.4  44    -17.5 107   0     993.4    NA       0.0000   9999     0     0     0    
2019/08/10  18:30:00  BASE  4.63932  87   5.2332   84   -7.4  44    -17.6 106   0     993.4    NA       0.0000   9999     0     0     0    
2019/08/10  18:31:00  BASE  4.4982   89   5.2332   84   -7.4  44    -17.7 105   0     993.4    NA       0.0000   9999     0     0     0    
2019/08/10  18:32:00  BASE  3.97488  91   5.2332   84   -7.2  43    -17.8 104   0     993.4    NA       0.0000   9999     0     0     0    
2019/08/10  18:33:00  BASE  3.68088  88   5.2332   84   -7.1  42    -17.8 102   0     993.4    NA       0.0000   9999     0     0     0    
2019/08/10  18:34:00  BASE  3.66912  80   5.2332   84   -6.9  41    -17.8 101   0     993.5    NA       0.0000   9999     0     0     0    
2019/08/10  18:35:00  BASE  3.90432  78   5.2332   84   -6.7  40    -17.9 100   0     993.5    NA       0.0000   9999     0     0     0    
2019/08/10  18:36:00  BASE  3.99252  79   5.2332   84   -6.6  40    -18.0 99    0     993.5    NA       0.0000   9999     0     0     0    
2019/08/10  18:37:00  BASE  3.6456   79   5.2332   84   -6.7  40    -18.0 98    0     993.5    NA       0.0000   9999     0     0     0    
2019/08/10  18:38:00  BASE  3.675    82   5.2332   84   -6.9  41    -17.9 97    0     993.5    NA       0.0000   9999     0     0     0    
2019/08/10  18:39:00  BASE  3.37512  87   5.2332   84   -6.9  41    -17.8 95    0     993.5    NA       0.0000   9999     0     0     0    
2019/08/10  18:40:00  BASE  2.75184  85   4.59816  74   -6.8  41    -17.8 94    0     993.5    NA       0.0000   9999     0     0     0    
2019/08/10  18:41:00  BASE  2.65776  81   4.59816  74   -6.7  41    -17.9 93    0     993.6    NA       0.0000   9999     0     0     0    
2019/08/10  18:42:00  BASE  2.64012  78   4.59816  74   -6.5  40    -17.9 92    0     993.6    NA       0.0000   9999     0     0     0    
2019/08/10  18:43:00  BASE  2.51076  75   4.59816  74   -6.4  39    -18.1 91    0     993.6    NA       0.0000   9999     0     0     0    
2019/08/10  18:44:00  BASE  2.74596  74   4.59816  74   -6.4  39    -18.1 90    0     993.6    NA       0.0000   9999     0     0     0    
2019/08/10  18:45:00  BASE  3.21636  75   4.35708  86   -6.5  39    -18.1 89    0     993.5    NA       0.0000   9999     0     0     0    
2019/08/10  18:46:00  BASE  3.18108  74   4.35708  86   -6.5  40    -17.9 88    0     993.5    NA       0.0000   9999     0     0     0    
2019/08/10  18:47:00  BASE  3.02232  73   4.35708  86   -6.5  40    -18.0 87    0     993.5    NA       0.0000   9999     0     0     0    
2019/08/10  18:48:00  BASE  3.18108  74   3.65736  90   -6.5  40    -18.0 84    0     993.5    NA       0.0000   9999     0     0     0    
2019/08/10  18:49:00  BASE  3.39276  73   3.72204  78   -6.4  39    -18.0 83    0     993.5    NA       0.0000   9999     0     0     0    
2019/08/10  18:50:00  BASE  3.48096  75   3.72204  77   -6.5  39    -18.0 83    0     993.5    NA       0.0000   9999     0     0     0    
2019/08/10  18:51:00  BASE  3.39276  76   3.72204  77   -6.6  40    -18.0 82    0     993.6    NA       0.0000   9999     0     0     0    
2019/08/10  18:52:00  BASE  3.33984  76   3.75144  75   -6.6  40    -18.0 81    0     993.6    NA       0.0000   9999     0     0     0    
2019/08/10  18:53:00  BASE  3.28692  82   3.78084  94   -6.7  40    -17.9 79    0     993.7    NA       0.0000   9999     0     0     0    
2019/08/10  18:54:00  BASE  3.35748  89   3.86904  86   -6.8  40    -18.0 78    0     993.7    NA       0.0000   9999     0     0     0    
2019/08/10  18:55:00  BASE  3.1458   95   3.86904  86   -6.9  40    -18.1 77    0     993.8    NA       0.0000   9999     0     0     0    
2019/08/10  18:56:00  BASE  2.78712  103  3.86904  86   -6.9  40    -18.2 76    0     993.9    NA       0.0000   9999     0     0     0    
2019/08/10  18:57:00  BASE  2.77536  111  3.86904  86   -7.1  41    -18.2 75    0     993.9    NA       0.0000   9999     0     0     0    
2019/08/10  18:58:00  BASE  2.46372  116  3.86904  86   -7.1  41    -18.1 73    0     993.9    NA       0.0000   9999     0     0     0    
2019/08/10  18:59:00  BASE  2.15208  119  3.86904  86   -7.0  41    -18.1 72    0     994.0    NA       0.0000   9999     0     0     0    
2019/08/10  19:00:00  BASE  2.06388  119  3.86904  86   -6.8  40    -18.1 71    0     994.0    NA       0.0000   9999     0     0     0    
2019/08/10  19:01:00  BASE  2.18148  112  3.86904  86   -6.5  40    -18.1 70    0     994.0    NA       0.0000   9999     0     0     0    
2019/08/10  19:02:00  BASE  2.4402   100  3.86904  86   -6.4  39    -18.1 68    0     994.1    NA       0.0000   9999     0     0     0    
2019/08/10  19:03:00  BASE  2.53428  87   3.86904  86   -6.4  39    -18.2 67    0     994.0    NA       0.0000   9999     0     0     0    
2019/08/10  19:04:00  BASE  2.58132  81   3.234    85   -6.6  39    -18.3 66    0     994.0    NA       0.0000   9999     0     0     0    
2019/08/10  19:05:00  BASE  2.96352  83   3.53976  82   -6.8  40    -18.3 65    0     994.1    NA       0.0000   9999     0     0     0    
2019/08/10  19:06:00  BASE  2.95764  82   3.53976  82   -7.1  41    -18.2 63    0     994.1    NA       0.0000   9999     0     0     0    
2019/08/10  19:07:00  BASE  2.90472  73   3.53976  82   -7.3  42    -18.1 62    0     994.1    NA       0.0000   9999     0     0     0    
2019/08/10  19:08:00  BASE  3.29868  62   3.69264  54   -7.4  43    -17.9 61    0     994.1    NA       0.0000   9999     0     0     0    
2019/08/10  19:09:00  BASE  3.12816  54   3.69264  54   -7.4  44    -17.6 60    0     994.2    NA       0.0000   9999     0     0     0    
2019/08/10  19:10:00  BASE  2.71656  47   3.69264  54   -7.5  45    -17.3 59    0     994.2    NA       0.0000   9999     0     0     0    
2019/08/10  19:11:00  BASE  2.75184  46   3.69264  54   -7.5  47    -17.0 57    0     994.1    NA       0.0000   9999     0     0     0    
2019/08/10  19:12:00  BASE  2.90472  43   3.69264  54   -7.6  48    -16.7 56    0     994.1    NA       0.0000   9999     0     0     0    
2019/08/10  19:13:00  BASE  2.74596  32   3.69264  54   -7.6  49    -16.4 55    0     994.1    NA       0.0000   9999     0     0     0    
2019/08/10  19:14:00  BASE  2.62248  26   3.69264  54   -7.7  50    -16.3 54    0     994.1    NA       0.0000   9999     0     0     0    
2019/08/10  19:15:00  BASE  2.646    25   3.69264  54   -7.8  51    -16.1 53    0     994.1    NA       0.0000   9999     0     0     0    
2019/08/10  19:16:00  BASE  2.83416  24   3.69264  54   -7.9  52    -16.0 52    0     994.1    NA       0.0000   9999     0     0     0    
2019/08/10  19:17:00  BASE  2.91648  20   3.69264  54   -8.0  53    -15.9 50    0     994.2    NA       0.0000   9999     0     0     0    
2019/08/10  19:18:00  BASE  2.65776  16   3.29868  45   -8.0  54    -15.8 49    0     994.2    NA       0.0000   9999     0     0     0    
2019/08/10  19:19:00  BASE  2.40492  20   3.29868  45   -8.1  54    -15.7 48    0     994.2    NA       0.0000   9999     0     0     0    
2019/08/10  19:20:00  BASE  2.29908  22   3.29868  45   -8.1  55    -15.5 47    0     994.2    NA       0.0000   9999     0     0     0    
2019/08/10  19:21:00  BASE  2.5872   18   3.29868  14   -8.1  55    -15.4 46    0     994.2    NA       0.0000   9999     0     0     0    
2019/08/10  19:22:00  BASE  2.9694   15   3.75144  20   -8.0  55    -15.4 45    0     994.3    NA       0.0000   9999     0     0     0    
2019/08/10  19:23:00  BASE  2.86356  10   3.75144  20   -8.0  55    -15.4 44    0     994.3    NA       0.0000   9999     0     0     0    
2019/08/10  19:24:00  BASE  2.59308  12   3.75144  20   -7.9  55    -15.4 43    0     994.4    NA       0.0000   9999     0     0     0    
2019/08/10  19:25:00  BASE  2.33436  5    3.75144  20   -7.9  54    -15.5 42    0     994.4    NA       0.0000   9999     0     0     0    
2019/08/10  19:26:00  BASE  2.02272  4    3.75144  20   -7.8  54    -15.5 41    0     994.4    NA       0.0000   9999     0     0     0    
2019/08/10  19:27:00  BASE  2.0874   14   3.75144  20   -7.7  53    -15.6 40    0     994.4    NA       0.0000   9999     0     0     0    
2019/08/10  19:28:00  BASE  2.205    5    3.75144  20   -7.6  53    -15.6 39    0     994.4    NA       0.0000   9999     0     0     0    
2019/08/10  19:29:00  BASE  1.9404   356  3.75144  20   -7.5  52    -15.7 38    0     994.5    NA       0.0000   9999     0     0     0    
2019/08/10  19:30:00  BASE  1.87572  358  3.75144  20   -7.5  51    -15.8 37    0     994.5    NA       0.0000   9999     0     0     0    
2019/08/10  19:31:00  BASE  1.80516  3    3.75144  20   -7.5  51    -15.8 36    0     994.6    NA       0.0000   9999     0     0     0    
2019/08/10  19:32:00  BASE  1.92276  11   3.1752   15   -7.4  52    -15.6 35    0     994.6    NA       0.0000   9999     0     0     0    
2019/08/10  19:33:00  BASE  2.78124  29   3.69264  34   -7.5  53    -15.5 34    0     994.6    NA       0.0000   9999     0     0     0    
2019/08/10  19:34:00  BASE  3.26928  35   3.93372  29   -7.7  54    -15.3 33    0     994.7    NA       0.0000   9999     0     0     0    
2019/08/10  19:35:00  BASE  2.75184  27   3.93372  29   -7.8  56    -15.1 32    0     994.7    NA       0.0000   9999     0     0     0    
2019/08/10  19:36:00  BASE  2.499    27   3.93372  29   -7.9  57    -15.0 31    0     994.7    NA       0.0000   9999     0     0     0    
2019/08/10  19:37:00  BASE  2.88708  36   3.93372  29   -8.1  58    -15.0 30    0     994.7    NA       0.0000   9999     0     0     0    
2019/08/10  19:38:00  BASE  2.8812   42   3.93372  29   -8.2  59    -14.9 30    0     994.7    NA       0.0000   9999     0     0     0    
2019/08/10  19:39:00  BASE  2.793    46   3.93372  29   -8.3  59    -14.8 29    0     994.8    NA       0.0000   9999     0     0     0    
2019/08/10  19:40:00  BASE  2.92824  43   3.93372  29   -8.3  60    -14.8 28    0     994.8    NA       0.0000   9999     0     0     0    
2019/08/10  19:41:00  BASE  2.62836  38   3.93372  29   -8.4  60    -14.8 27    0     994.9    NA       0.0000   9999     0     0     0    
2019/08/10  19:42:00  BASE  2.39316  34   3.93372  29   -8.4  61    -14.6 27    0     994.9    NA       0.0000   9999     0     0     0    
2019/08/10  19:43:00  BASE  2.5284   37   3.93372  29   -8.3  61    -14.5 26    0     994.9    NA       0.0000   9999     0     0     0    
2019/08/10  19:44:00  BASE  2.31084  39   3.65736  45   -8.2  61    -14.4 25    0     994.9    NA       0.0000   9000     0     0     0    
2019/08/10  19:45:00  BASE  1.90512  43   3.65736  45   -8.2  62    -14.2 25    0     995.0    NA       0.0000   9999     0     0     0    
2019/08/10  19:46:00  BASE  2.03448  51   3.65736  45   -8.1  62    -14.2 24    0     995.1    NA       0.0000   9999     0     0     0    
2019/08/10  19:47:00  BASE  2.37552  52   3.29868  49   -8.1  62    -14.2 23    0     995.1    NA       0.0000   9999     0     0     0    
2019/08/10  19:48:00  BASE  2.41668  51   3.29868  49   -8.2  62    -14.2 22    0     995.1    NA       0.0000   9999     0     0     0    
2019/08/10  19:49:00  BASE  2.22852  54   3.087    43   -8.3  62    -14.2 22    0     995.1    NA       0.0000   9999     0     0     0    
2019/08/10  19:50:00  BASE  2.01096  57   2.96352  43   -8.3  63    -14.1 21    0     995.1    NA       0.0000   9999     0     0     0    
2019/08/10  19:51:00  BASE  1.8228   57   2.96352  43   -8.2  64    -13.9 20    0     995.1    NA       0.0000   9999     0     0     0    
2019/08/10  19:52:00  BASE  1.66992  58   2.96352  43   -8.2  64    -13.8 19    0     995.2    NA       0.0000   9999     0     0     0    
2019/08/10  19:53:00  BASE  1.54056  65   2.72244  58   -8.1  64    -13.7 18    0     995.2    NA       0.0000   9999     0     0     0    
2019/08/10  19:54:00  BASE  1.63464  71   2.72244  58   -7.9  64    -13.6 17    0     995.2    NA       0.0000   9999     0     0     0    
2019/08/10  19:55:00  BASE  1.66404  70   2.72244  58   -7.8  63    -13.6 17    0     995.2    NA       0.0000   9999     0     0     0    
2019/08/10  19:56:00  BASE  1.66992  65   2.72244  58   -7.8  63    -13.6 16    0     995.2    NA       0.0000   9999     0     0     0    
2019/08/10  19:57:00  BASE  2.09916  50   2.54016  53   -7.8  63    -13.7 16    0     995.2    NA       0.0000   9999     0     0     0    
2019/08/10  19:58:00  BASE  2.35788  35   2.56956  35   -7.9  63    -13.7 15    0     995.3    NA       0.0000   9999     0     0     0    
2019/08/10  19:59:00  BASE  2.28144  33   2.66364  43   -7.9  63    -13.7 15    0     995.3    NA       0.0000   9999     0     0     0    
2019/08/10  20:00:00  BASE  2.42256  48   2.81064  64   -8.0  64    -13.6 15    0     995.3    NA       0.0000   9999     0     0     0    
2019/08/10  20:01:00  BASE  2.44608  60   2.81064  64   -8.1  65    -13.6 14    0     995.3    NA       0.0000   9999     0     0     0    
2019/08/10  20:02:00  BASE  2.24028  50   2.81064  64   -8.2  65    -13.6 14    0     995.3    NA       0.0000   9999     0     0     0    
2019/08/10  20:03:00  BASE  2.22852  47   2.81064  64   -8.3  66    -13.6 14    0     995.4    NA       0.0000   9999     0     0     0    
2019/08/10  20:04:00  BASE  2.26968  52   2.81064  64   -8.4  66    -13.6 13    0     995.4    NA       0.0000   9999     0     0     0    
2019/08/10  20:05:00  BASE  2.22852  48   2.81064  64   -8.5  66    -13.7 13    0     995.4    NA       0.0000   9999     0     0     0    
2019/08/10  20:06:00  BASE  2.24028  44   2.81064  64   -8.5  66    -13.8 12    0     995.4    NA       0.0000   9999     0     0     0    
2019/08/10  20:07:00  BASE  2.28144  44   2.81064  64   -8.5  66    -13.8 12    0     995.4    NA       0.0000   9999     0     0     0    
2019/08/10  20:08:00  BASE  2.2344   51   2.81064  64   -8.5  66    -13.7 12    0     995.5    NA       0.0000   9999     0     0     0    
2019/08/10  20:09:00  BASE  2.16384  58   2.81064  64   -8.5  66    -13.6 12    0     995.5    NA       0.0000   9999     0     0     0    
2019/08/10  20:10:00  BASE  2.22852  61   2.63424  60   -8.4  66    -13.6 11    0     995.6    NA       0.0000   9999     0     0     0    
2019/08/10  20:11:00  BASE  2.45784  58   2.81064  58   -8.3  66    -13.5 11    0     995.6    NA       0.0000   9999     0     0     0    
2019/08/10  20:12:00  BASE  2.646    54   2.90472  51   -8.3  66    -13.5 10    0     995.5    NA       0.0000   9999     0     0     0    
2019/08/10  20:13:00  BASE  2.57544  52   2.90472  51   -8.2  66    -13.5 10    0     995.6    NA       0.0000   9999     0     0     0    
2019/08/10  20:14:00  BASE  2.35788  53   2.90472  51   -8.2  65    -13.5 10    0     995.6    NA       0.0000   9999     0     0     0    
2019/08/10  20:15:00  BASE  2.43432  55   2.90472  51   -8.2  65    -13.5 10    0     995.6    NA       0.0000   9999     0     0     0    
2019/08/10  20:16:00  BASE  2.43432  60   2.90472  51   -8.2  65    -13.6 9     0     995.6    NA       0.0000   9999     0     0     0    
2019/08/10  20:17:00  BASE  2.68128  58   3.44568  50   -8.2  65    -13.6 9     0     995.7    NA       0.0000   9999     0     0     0    
2019/08/10  20:18:00  BASE  3.1164   46   3.44568  50   -8.2  65    -13.6 9     0     995.6    NA       0.0000   9999     0     0     0    
2019/08/10  20:19:00  BASE  3.13404  36   3.44568  50   -8.1  65    -13.5 8     0     995.6    NA       0.0000   9999     0     0     0    
2019/08/10  20:20:00  BASE  3.03996  28   3.44568  50   -8.0  65    -13.5 8     0     995.6    NA       0.0000   9999     0     0     0    
2019/08/10  20:21:00  BASE  2.99292  24   3.44568  50   -7.9  65    -13.4 8     0     995.7    NA       0.0000   9999     0     0     0    
2019/08/10  20:22:00  BASE  2.9988   25   3.44568  50   -7.9  65    -13.4 7     0     995.7    NA       0.0000   9999     0     0     0    
2019/08/10  20:23:00  BASE  2.793    27   3.44568  50   -7.8  64    -13.4 7     0     995.7    NA       0.0000   9999     0     0     0    
2019/08/10  20:24:00  BASE  2.56956  25   3.44568  50   -7.8  64    -13.4 7     0     995.7    NA       0.0000   9999     0     0     0    
2019/08/10  20:25:00  BASE  2.18736  31   3.44568  50   -7.9  64    -13.5 7     0     995.7    NA       0.0000   9999     0     0     0    
2019/08/10  20:26:00  BASE  2.02272  52   3.44568  50   -7.9  64    -13.5 6     0     995.8    NA       0.0000   9999     0     0     0    
2019/08/10  20:27:00  BASE  2.68128  63   3.75144  52   -7.9  65    -13.4 6     0     995.8    NA       0.0000   9999     0     0     0    
2019/08/10  20:28:00  BASE  3.26928  61   3.75144  52   -7.9  65    -13.3 6     0     995.8    NA       0.0000   9999     0     0     0    
2019/08/10  20:29:00  BASE  3.3222   59   3.81024  55   -7.8  65    -13.2 5     0     995.9    NA       0.0000   9999     0     0     0    
2019/08/10  20:30:00  BASE  3.33984  56   3.81024  51   -7.7  65    -13.2 5     0     995.9    NA       0.0000   9999     0     0     0    
2019/08/10  20:31:00  BASE  3.2928   51   3.81024  51   -7.6  64    -13.1 5     0     995.9    NA       0.0000   9999     0     0     0    
2019/08/10  20:32:00  BASE  2.98116  49   3.81024  51   -7.5  64    -13.2 5     0     995.9    NA       0.0000   9999     0     0     0    
2019/08/10  20:33:00  BASE  2.81064  45   3.81024  51   -7.5  63    -13.4 4     0     995.9    NA       0.0000   9999     0     0     0    
2019/08/10  20:34:00  BASE  2.59896  40   3.81024  51   -7.5  63    -13.4 4     0     995.9    NA       0.0000   9999     0     0     0    
2019/08/10  20:35:00  BASE  2.15796  40   3.81024  51   -7.6  63    -13.5 4     0     995.9    NA       0.0000   9999     0     0     0    
2019/08/10  20:36:00  BASE  1.84632  51   3.81024  51   -7.7  63    -13.5 4     0     995.9    NA       0.0000   9999     0     0     0    
2019/08/10  20:37:00  BASE  1.42296  61   3.81024  51   -7.7  63    -13.5 4     0     995.9    NA       0.0000   9999     0     0     0    
2019/08/10  20:38:00  BASE  1.13484  68   3.81024  51   -7.8  64    -13.5 3     0     996.0    NA       0.0000   9999     0     0     0    
2019/08/10  20:39:00  BASE  1.10544  64   3.81024  51   -7.9  64    -13.5 3     0     996.0    NA       0.0000   9999     0     0     0    
2019/08/10  20:40:00  BASE  0.91728  72   3.48096  50   -7.9  64    -13.4 3     0     996.0    NA       0.0000   9999     0     0     0    
2019/08/10  20:41:00  BASE  1.10544  92   3.1458   36   -7.9  65    -13.4 3     0     996.0    NA       0.0000   9999     0     0     0    
2019/08/10  20:42:00  BASE  1.55232  93   3.1458   36   -7.9  65    -13.4 3     0     996.0    NA       0.0000   9999     0     0     0    
2019/08/10  20:43:00  BASE  1.74048  93   2.93412  36   -8.0  65    -13.4 2     0     996.0    NA       0.0000   9999     0     0     0    
2019/08/10  20:44:00  BASE  1.82868  96   2.42256  86   -8.1  65    -13.5 2     0     996.0    NA       0.0000   9999     0     0     0    
2019/08/10  20:45:00  BASE  1.88748  95   2.42256  86   -8.3  65    -13.6 2     0     996.1    NA       0.0000   9999     0     0     0    
2019/08/10  20:46:00  BASE  1.617    94   2.42256  86   -8.3  65    -13.7 2     0     996.1    NA       0.0000   9999     0     0     0    
2019/08/10  20:47:00  BASE  1.18776  92   2.42256  86   -8.4  66    -13.7 2     0     996.1    NA       0.0000   9999     0     0     0    
2019/08/10  20:48:00  BASE  1.10544  90   2.42256  86   -8.4  66    -13.6 2     0     996.1    NA       0.0000   9999     0     0     0    
2019/08/10  20:49:00  BASE  1.36416  95   2.42256  86   -8.3  66    -13.6 2     0     996.2    NA       0.0000   9999     0     0     0    
2019/08/10  20:50:00  BASE  1.32888  97   2.42256  86   -8.3  66    -13.6 1     0     996.3    NA       0.0000   9999     0     0     0    
2019/08/10  20:51:00  BASE  1.029    92   2.42256  86   -8.3  66    -13.6 1     0     996.3    NA       0.0000   9999     0     0     0    
2019/08/10  20:52:00  BASE  0.80556  79   2.42256  86   -8.3  66    -13.5 1     0     996.3    NA       0.0000   9999     0     0     0    
2019/08/10  20:53:00  BASE  0.47628  48   2.1462   89   -8.3  66    -13.5 1     0     996.4    NA       0.0000   9999     0     0     0    
2019/08/10  20:54:00  BASE  0.35868  1    2.1168   94   -8.2  66    -13.4 1     0     996.4    NA       0.0000   9999     0     0     0    
2019/08/10  20:55:00  BASE  0.83496  330  1.66404  320  -8.2  66    -13.4 1     0     996.4    NA       0.0000   9999     0     0     0    
2019/08/10  20:56:00  BASE  1.27596  327  1.69344  316  -8.2  66    -13.3 1     0     996.4    NA       0.0000   9999     0     0     0    
2019/08/10  20:57:00  BASE  1.37592  339  1.93452  347  -8.2  67    -13.3 1     0     996.5    NA       0.0000   9999     0     0     0    
2019/08/10  20:58:00  BASE  1.31124  352  1.93452  347  -8.2  67    -13.3 1     0     996.5    NA       0.0000   9999     0     0     0    
2019/08/10  20:59:00  BASE  1.176    15   1.93452  347  -8.2  67    -13.2 0     0     996.5    NA       0.0000   9999     0     0     0    
2019/08/10  21:00:00  BASE  0.65856  18   1.93452  347  -8.2  68    -13.1 0     0     996.5    NA       0.0000   9999     0     0     0    
2019/08/10  21:01:00  BASE  0.06468  38   1.93452  347  -8.2  68    -13.1 0     0     996.5    NA       0.0000   9999     0     0     0    
2019/08/10  21:02:00  BASE  0.24696  59   1.93452  347  -8.3  68    -13.0 0     0     996.5    NA       0.0000   9999     0     0     0    
2019/08/10  21:03:00  BASE  0.57036  45   1.93452  347  -8.3  69    -13.1 0     0     996.5    NA       0.0000   9999     0     0     0    
2019/08/10  21:04:00  BASE  0.32928  56   1.93452  347  -8.3  69    -13.0 0     0     996.6    NA       0.0000   9999     0     0     0    
2019/08/10  21:05:00  BASE  0        93   1.93452  347  -8.3  69    -12.9 0     0     996.6    NA       0.0000   9999     0     0     0    
2019/08/10  21:06:00  BASE  0        181  1.93452  347  -8.2  70    -12.8 0     0     996.6    NA       0.0000   9999     0     0     0    
2019/08/10  21:07:00  BASE  0.34104  83   1.57584  21   -8.1  70    -12.7 0     0     996.6    NA       0.0000   9999     0     0     0    
2019/08/10  21:08:00  BASE  0.87612  63   1.57584  21   -8.0  70    -12.6 0     0     996.6    NA       0.0000   9999     0     0     0    
2019/08/10  21:09:00  BASE  0.9114   32   1.45236  13   -8.1  69    -12.7 0     0     996.6    NA       0.0000   9999     0     0     0    
2019/08/10  21:10:00  BASE  0.40572  23   1.45236  13   -8.1  69    -12.7 0     0     996.6    NA       0.0000   9999     0     0     0    
2019/08/10  21:11:00  BASE  0.81144  37   2.32848  44   -8.2  69    -12.9 0     0     996.6    NA       0.0000   9999     0     0     0    
2019/08/10  21:12:01  BASE  1.86396  44   2.48136  37   -8.3  69    -13.0 0     0     996.6    NA       0.0000   9999     0     0     0    
2019/08/10  21:13:00  BASE  2.2344   39   2.59896  37   -8.4  69    -13.1 0     0     996.6    NA       0.0000   9999     0     0     0    
2019/08/10  21:14:00  BASE  2.32848  41   2.59896  37   -8.5  69    -13.1 0     0     996.6    NA       0.0000   9999     0     0     0    
2019/08/10  21:15:00  BASE  2.42844  48   3.0576   46   -8.6  69    -13.2 0     0     996.6    NA       0.0000   9999     0     0     0    
2019/08/10  21:16:00  BASE  2.75184  49   3.29868  45   -8.6  70    -13.2 0     0     996.6    NA       0.0000   9999     0     0     0    
2019/08/10  21:17:00  BASE  2.9106   52   3.29868  45   -8.7  70    -13.1 0     0     996.6    NA       0.0000   9999     0     0     0    
2019/08/10  21:18:00  BASE  3.02232  49   3.62796  39   -8.7  71    -13.1 0     0     996.7    NA       0.0000   9999     0     0     0    
2019/08/10  21:19:00  BASE  3.07524  44   3.62796  39   -8.8  71    -13.1 0     0     996.7    NA       0.0000   9999     0     0     0    
2019/08/10  21:20:00  BASE  2.85768  47   3.62796  39   -8.8  71    -13.1 0     0     996.7    NA       0.0000   9999     0     0     0    
2019/08/10  21:21:00  BASE  2.96352  40   3.62796  39   -8.9  71    -13.1 0     0     996.7    NA       0.0000   9999     0     0     0    
2019/08/10  21:22:00  BASE  2.9694   40   3.62796  39   -8.9  71    -13.1 0     0     996.7    NA       0.0000   9999     0     0     0    
2019/08/10  21:23:00  BASE  2.63424  45   3.62796  39   -9.0  72    -13.2 0     0     996.7    NA       0.0000   9999     0     0     0    
2019/08/10  21:24:00  BASE  2.71068  51   3.62796  39   -9.0  72    -13.2 0     0     996.7    NA       0.0000   9999     0     0     0    
2019/08/10  21:25:00  BASE  3.0576   62   3.62796  39   -9.0  72    -13.1 0     0     996.7    NA       0.0000   9999     0     0     0    
2019/08/10  21:26:00  BASE  3.44568  63   4.263    56   -9.0  72    -13.1 0     0     996.7    NA       0.0000   9999     0     0     0    
2019/08/10  21:27:00  BASE  3.9396   59   4.38648  54   -9.0  72    -13.1 0     0     996.7    NA       0.0000   9999     0     0     0    
2019/08/10  21:28:00  BASE  4.04544  58   4.38648  54   -9.0  72    -13.1 0     0     996.7    NA       0.0000   9999     0     0     0    
2019/08/10  21:29:00  BASE  3.91608  57   4.38648  54   -8.9  72    -12.9 0     0     996.7    NA       0.0000   9999     0     0     0    
2019/08/10  21:30:00  BASE  3.63972  53   4.38648  54   -8.8  72    -13.0 0     0     996.7    NA       0.0000   9999     0     0     0    
2019/08/10  21:31:00  BASE  3.4692   53   4.38648  54   -8.8  72    -13.0 0     0     996.7    NA       0.0000   9999     0     0     0    
2019/08/10  21:32:00  BASE  3.3222   54   4.38648  54   -8.7  71    -12.9 0     0     996.8    NA       0.0000   9999     0     0     0    
2019/08/10  21:33:00  BASE  2.78712  49   4.38648  54   -8.6  71    -12.9 0     0     996.8    NA       0.0000   9999     0     0     0    
2019/08/10  21:34:00  BASE  2.59896  46   4.38648  54   -8.5  70    -12.9 0     0     996.9    NA       0.0000   9999     0     0     0    
2019/08/10  21:35:00  BASE  2.69892  44   4.38648  54   -8.4  70    -12.9 0     0     996.9    NA       0.0000   9999     0     0     0    
2019/08/10  21:36:00  BASE  2.58132  46   4.38648  54   -8.4  69    -13.0 0     0     997.0    NA       0.0000   9999     0     0     0    
2019/08/10  21:37:00  BASE  2.39316  50   4.2336   60   -8.3  69    -13.1 0     0     997.0    NA       0.0000   9999     0     0     0    
2019/08/10  21:38:00  BASE  2.56368  52   4.2336   60   -8.4  68    -13.2 0     0     997.0    NA       0.0000   9999     0     0     0    
2019/08/10  21:39:00  BASE  2.45784  49   3.83964  61   -8.4  68    -13.2 0     0     997.0    NA       0.0000   9999     0     0     0    
2019/08/10  21:40:00  BASE  2.058    48   3.83964  61   -8.4  68    -13.2 0     0     997.0    NA       0.0000   9999     0     0     0    
2019/08/10  21:41:00  BASE  2.12856  48   3.83964  61   -8.4  68    -13.3 0     0     997.1    NA       0.0000   9999     0     0     0    
2019/08/10  21:42:00  BASE  2.03448  49   3.29868  44   -8.4  68    -13.3 0     0     997.1    NA       0.0000   9999     0     0     0    
2019/08/10  21:43:00  BASE  1.8522   44   3.29868  44   -8.4  68    -13.2 0     0     997.1    NA       0.0000   9999     0     0     0    
2019/08/10  21:44:00  BASE  1.84044  42   3.26928  36   -8.4  68    -13.2 0     0     997.1    NA       0.0000   9999     0     0     0    
2019/08/10  21:45:00  BASE  1.8522   47   3.234    54   -8.4  69    -13.2 0     0     997.1    NA       0.0000   9999     0     0     0    
2019/08/10  21:46:00  BASE  1.8522   50   3.234    54   -8.4  69    -13.1 0     0     997.2    NA       0.0000   9999     0     0     0    
2019/08/10  21:47:00  BASE  1.66404  51   3.234    54   -8.4  69    -13.1 0     0     997.2    NA       0.0000   9999     0     0     0    
2019/08/10  21:48:00  BASE  1.45824  44   2.48136  53   -8.3  69    -13.0 0     0     997.3    NA       0.0000   9999     0     0     0    
2019/08/10  21:49:00  BASE  1.59348  38   2.48136  53   -8.3  69    -13.0 0     0     997.3    NA       0.0000   9999     0     0     0    
2019/08/10  21:50:00  BASE  1.8228   33   2.35788  48   -8.2  69    -12.9 0     0     997.3    NA       0.0000   9999     0     0     0    
2019/08/10  21:51:00  BASE  1.72872  31   2.24028  30   -8.2  69    -12.9 0     0     997.3    NA       0.0000   9999     0     0     0    
2019/08/10  21:52:00  BASE  1.79928  32   2.48136  37   -8.2  68    -13.0 0     0     997.3    NA       0.0000   9999     0     0     0    
2019/08/10  21:53:00  BASE  2.02272  30   2.48136  37   -8.2  68    -13.0 0     0     997.3    NA       0.0000   9999     0     0     0    
2019/08/10  21:54:00  BASE  1.9992   28   2.48136  37   -8.2  69    -13.0 0     0     997.4    NA       0.0000   9999     0     0     0    
2019/08/10  21:55:00  BASE  2.2638   32   2.84592  43   -8.3  69    -13.1 0     0     997.5    NA       0.0000   9999     0     0     0    
2019/08/10  21:56:00  BASE  2.64012  34   3.0576   35   -8.4  69    -13.1 0     0     997.5    NA       0.0000   9999     0     0     0    
2019/08/10  21:57:00  BASE  2.80476  36   3.1164   34   -8.5  69    -13.2 0     0     997.5    NA       0.0000   9999     0     0     0    
2019/08/10  21:58:00  BASE  2.5284   32   3.1164   34   -8.6  69    -13.2 0     0     997.5    NA       0.0000   9999     0     0     0    
2019/08/10  21:59:00  BASE  2.28144  27   3.1164   34   -8.6  69    -13.2 0     0     997.5    NA       0.0000   9999     0     0     0    
2019/08/10  22:00:00  BASE  2.16384  22   3.1164   34   -8.5  70    -13.1 0     0     997.6    NA       0.0000   9999     0     0     0    
2019/08/10  22:01:00  BASE  2.21088  19   3.1164   34   -8.4  70    -12.9 0     0     997.6    NA       0.0000   9999     0     0     0    
2019/08/10  22:02:00  BASE  2.47548  26   3.1164   34   -8.3  70    -12.8 0     0     997.6    NA       0.0000   9999     0     0     0    
2019/08/10  22:03:00  BASE  2.3814   32   3.1164   34   -8.3  70    -12.8 0     0     997.6    NA       0.0000   9999     0     0     0    
2019/08/10  22:04:00  BASE  2.12856  41   3.1164   34   -8.2  69    -12.8 0     0     997.6    NA       0.0000   9999     0     0     0    
2019/08/10  22:05:00  BASE  1.8816   42   3.1164   34   -8.3  69    -12.9 0     0     997.6    NA       0.0000   9999     0     0     0    
2019/08/10  22:06:00  BASE  1.8522   36   3.1164   34   -8.3  69    -12.9 0     0     997.7    NA       0.0000   9999     0     0     0    
2019/08/10  22:07:00  BASE  1.92864  39   2.99292  25   -8.4  70    -12.9 0     0     997.7    NA       0.0000   9999     0     0     0    
2019/08/10  22:08:00  BASE  1.99332  46   2.99292  25   -8.4  70    -12.9 0     0     997.7    NA       0.0000   9999     0     0     0    
2019/08/10  22:09:00  BASE  1.89336  47   2.99292  25   -8.4  70    -12.9 0     0     997.7    NA       0.0000   9999     0     0     0    
2019/08/10  22:10:00  BASE  1.84044  44   2.99292  25   -8.5  70    -13.0 0     0     997.7    NA       0.0000   9999     0     0     0    
2019/08/10  22:11:00  BASE  1.85808  44   2.87532  22   -8.5  70    -13.0 0     0     997.7    NA       0.0000   9999     0     0     0    
2019/08/10  22:12:00  BASE  1.6758   45   2.45196  36   -8.5  70    -13.0 0     0     997.7    NA       0.0000   9999     0     0     0    
2019/08/10  22:13:00  BASE  1.51704  44   2.26968  41   -8.4  70    -13.0 0     0     997.7    NA       0.0000   9999     0     0     0    
2019/08/10  22:14:00  BASE  1.56996  44   2.21088  52   -8.4  69    -13.0 0     0     997.7    NA       0.0000   9999     0     0     0    
2019/08/10  22:15:00  BASE  1.81104  43   2.21088  52   -8.4  69    -13.0 0     0     997.8    NA       0.0000   9999     0     0     0    
2019/08/10  22:16:00  BASE  1.95216  40   2.21088  52   -8.4  69    -13.1 0     0     997.8    NA       0.0000   9999     0     0     0    
2019/08/10  22:17:00  BASE  2.03448  42   2.48136  44   -8.4  69    -13.1 0     0     997.8    NA       0.0000   9999     0     0     0    
2019/08/10  22:18:00  BASE  2.26968  44   2.56956  40   -8.5  69    -13.1 0     0     997.8    NA       0.0000   9999     0     0     0    
2019/08/10  22:19:00  BASE  2.21088  46   2.56956  40   -8.5  69    -13.2 0     0     997.8    NA       0.0000   9999     0     0     0    
2019/08/10  22:20:00  BASE  1.97568  46   2.56956  40   -8.6  69    -13.2 0     0     997.8    NA       0.0000   9999     0     0     0    
2019/08/10  22:21:00  BASE  2.058    44   2.56956  40   -8.6  70    -13.1 0     0     997.8    NA       0.0000   9999     0     0     0    
2019/08/10  22:22:00  BASE  2.13444  42   2.56956  40   -8.6  70    -13.1 0     0     997.8    NA       0.0000   9999     0     0     0    
2019/08/10  22:23:00  BASE  2.01684  39   2.56956  40   -8.6  70    -13.0 0     0     997.8    NA       0.0000   9999     0     0     0    
2019/08/10  22:24:00  BASE  1.9992   39   2.56956  40   -8.6  70    -13.0 0     0     997.8    NA       0.0000   9999     0     0     0    
2019/08/10  22:25:00  BASE  2.16972  41   2.56956  40   -8.5  70    -12.9 0     0     997.8    NA       0.0000   9999     0     0     0    
2019/08/10  22:26:00  BASE  2.40492  42   2.72244  33   -8.5  71    -12.9 0     0     997.8    NA       0.0000   9999     0     0     0    
2019/08/10  22:27:00  BASE  2.61072  37   2.81064  35   -8.5  70    -12.9 0     0     997.8    NA       0.0000   9999     0     0     0    
2019/08/10  22:28:00  BASE  2.7048   34   2.93412  39   -8.5  71    -12.9 0     0     997.8    NA       0.0000   9999     0     0     0    
2019/08/10  22:29:00  BASE  2.53428  38   2.93412  39   -8.5  71    -12.9 0     0     997.9    NA       0.0000   9999     0     0     0    
2019/08/10  22:30:00  BASE  2.26968  38   2.93412  39   -8.6  71    -13.0 0     0     997.9    NA       0.0000   9999     0     0     0    
2019/08/10  22:31:00  BASE  2.1462   33   2.93412  39   -8.6  71    -13.0 0     0     998.0    NA       0.0000   9999     0     0     0    
2019/08/10  22:32:00  BASE  2.06976  31   2.93412  39   -8.7  71    -13.0 0     0     998.0    NA       0.0000   9999     0     0     0    
2019/08/10  22:33:00  BASE  2.11092  35   2.93412  39   -8.7  71    -13.1 0     0     998.0    NA       0.0000   9999     0     0     0    
2019/08/10  22:34:00  BASE  2.37552  38   2.93412  39   -8.7  71    -13.0 0     0     998.0    NA       0.0000   9999     0     0     0    
2019/08/10  22:35:00  BASE  2.7636   39   3.234    38   -8.7  71    -13.0 0     0     998.1    NA       0.0000   9999     0     0     0    
2019/08/10  22:36:00  BASE  2.91648  40   3.234    38   -8.7  71    -13.0 0     0     998.2    NA       0.0000   9999     0     0     0    
2019/08/10  22:37:00  BASE  2.793    42   3.234    38   -8.6  71    -13.0 0     0     998.2    NA       0.0000   9999     0     0     0    
2019/08/10  22:38:00  BASE  2.78712  42   3.234    38   -8.6  71    -12.9 0     0     998.2    NA       0.0000   9999     0     0     0    
2019/08/10  22:39:00  BASE  2.75184  40   3.234    38   -8.6  71    -12.9 0     0     998.2    NA       0.0000   9999     0     0     0    
2019/08/10  22:40:00  BASE  2.62836  41   3.234    38   -8.6  71    -12.8 0     0     998.2    NA       0.0000   9999     0     0     0    
2019/08/10  22:41:00  BASE  2.65776  42   3.234    38   -8.6  71    -12.8 0     0     998.3    NA       0.0000   9999     0     0     0    
2019/08/10  22:42:00  BASE  2.74008  43   3.234    38   -8.6  71    -12.8 0     0     998.3    NA       0.0000   9999     0     0     0    
2019/08/10  22:43:00  BASE  2.79888  44   3.234    38   -8.5  71    -12.8 0     0     998.3    NA       0.0000   9999     0     0     0    
2019/08/10  22:44:00  BASE  2.86356  45   3.234    38   -8.5  71    -12.9 0     0     998.3    NA       0.0000   9999     0     0     0    
2019/08/10  22:45:00  BASE  2.8518   47   3.1164   39   -8.6  71    -12.9 0     0     998.3    NA       0.0000   9999     0     0     0    
2019/08/10  22:46:00  BASE  2.83416  48   3.1164   39   -8.6  71    -12.9 0     0     998.4    NA       0.0000   9999     0     0     0    
2019/08/10  22:47:00  BASE  2.89296  48   3.1458   48   -8.6  70    -13.0 0     0     998.4    NA       0.0000   9999     0     0     0    
2019/08/10  22:48:00  BASE  2.87532  50   3.1458   48   -8.6  70    -13.0 0     0     998.4    NA       0.0000   9999     0     0     0    
2019/08/10  22:49:00  BASE  2.8224   51   3.1458   48   -8.6  70    -13.1 0     0     998.4    NA       0.0000   9999     0     0     0    
2019/08/10  22:50:00  BASE  2.79888  51   3.1458   48   -8.6  70    -13.1 0     0     998.4    NA       0.0000   9999     0     0     0    
2019/08/10  22:51:00  BASE  2.5872   54   3.1458   48   -8.6  70    -13.0 0     0     998.5    NA       0.0000   9999     0     0     0    
2019/08/10  22:52:00  BASE  2.3226   54   3.1458   48   -8.5  70    -12.9 0     0     998.5    NA       0.0000   9999     0     0     0    
2019/08/10  22:53:00  BASE  2.205    51   3.1458   48   -8.4  70    -12.9 0     0     998.5    NA       0.0000   9999     0     0     0    
2019/08/10  22:54:00  BASE  2.3226   51   3.1458   48   -8.3  70    -12.8 0     0     998.5    NA       0.0000   9999     0     0     0    
2019/08/10  22:55:00  BASE  2.45196  52   3.1458   48   -8.3  70    -12.8 0     0     998.5    NA       0.0000   9999     0     0     0    
2019/08/10  22:56:00  BASE  2.34024  52   3.1458   48   -8.2  70    -12.8 0     0     998.5    NA       0.0000   9999     0     0     0    
2019/08/10  22:57:00  BASE  2.205    49   3.087    50   -8.2  69    -12.8 0     0     998.5    NA       0.0000   9999     0     0     0    
2019/08/10  22:58:00  BASE  2.24028  44   3.087    50   -8.2  69    -12.9 0     0     998.5    NA       0.0000   9999     0     0     0    
2019/08/10  22:59:00  BASE  2.33436  42   2.90472  56   -8.2  69    -13.0 0     0     998.5    NA       0.0000   9999     0     0     0    
2019/08/10  23:00:00  BASE  2.2932   43   2.75184  44   -8.3  69    -13.0 0     0     998.5    NA       0.0000   9999     0     0     0    
2019/08/10  23:01:00  BASE  2.24028  43   2.75184  44   -8.3  69    -13.0 0     0     998.6    NA       0.0000   9999     0     0     0    
2019/08/10  23:02:00  BASE  2.19912  42   2.75184  44   -8.4  69    -13.1 0     0     998.6    NA       0.0000   9999     0     0     0    
2019/08/10  23:03:00  BASE  2.21088  42   2.75184  44   -8.4  69    -13.0 0     0     998.6    NA       0.0000   9999     0     0     0    
2019/08/10  23:04:00  BASE  2.28732  40   2.75184  44   -8.4  69    -13.0 0     0     998.6    NA       0.0000   9999     0     0     0    
2019/08/10  23:05:00  BASE  2.24616  36   2.75184  44   -8.3  69    -13.0 0     0     998.6    NA       0.0000   9999     0     0     0    
2019/08/10  23:06:00  BASE  2.1756   39   2.75184  44   -8.3  69    -13.0 0     0     998.6    NA       0.0000   9999     0     0     0    
2019/08/10  23:07:00  BASE  2.24028  42   2.75184  44   -8.4  69    -13.1 0     0     998.6    NA       0.0000   9999     0     0     0    
2019/08/10  23:08:00  BASE  2.36964  47   2.81064  52   -8.4  69    -13.1 0     0     998.6    NA       0.0000   9999     0     0     0    
2019/08/10  23:09:00  BASE  2.54016  50   2.81064  52   -8.4  69    -13.1 0     0     998.7    NA       0.0000   9999     0     0     0    
2019/08/10  23:10:00  BASE  2.646    50   2.81064  52   -8.4  69    -13.1 0     0     998.7    NA       0.0000   9999     0     0     0    
2019/08/10  23:11:00  BASE  2.59896  52   2.81064  52   -8.3  69    -13.1 0     0     998.8    NA       0.0000   9999     0     0     0    
2019/08/10  23:12:00  BASE  2.56368  50   2.81064  52   -8.3  69    -13.0 0     0     998.8    NA       0.0000   9999     0     0     0    
2019/08/10  23:13:00  BASE  2.46372  46   2.81064  52   -8.3  69    -12.9 0     0     998.8    NA       0.0000   9999     0     0     0    
2019/08/10  23:14:00  BASE  2.36376  46   2.81064  52   -8.3  69    -12.9 0     0     998.8    NA       0.0000   9999     0     0     0    
2019/08/10  23:15:00  BASE  2.34612  46   2.81064  52   -8.2  69    -12.9 0     0     998.8    NA       0.0000   9999     0     0     0    
2019/08/10  23:16:00  BASE  2.3226   46   2.81064  52   -8.2  69    -12.9 0     0     998.8    NA       0.0000   9999     0     0     0    
2019/08/10  23:17:00  BASE  2.28144  47   2.81064  52   -8.2  69    -12.9 0     0     998.9    NA       0.0000   9999     0     0     0    
2019/08/10  23:18:00  BASE  2.2932   48   2.75184  50   -8.2  69    -12.9 0     0     998.9    NA       0.0000   9999     0     0     0    
2019/08/10  23:19:00  BASE  2.34024  45   2.72244  48   -8.2  69    -12.9 0     0     998.9    NA       0.0000   9999     0     0     0    
2019/08/10  23:20:00  BASE  2.2638   45   2.72244  48   -8.2  69    -12.9 0     0     998.9    NA       0.0000   9999     0     0     0    
2019/08/10  23:21:00  BASE  2.21676  49   2.72244  48   -8.2  69    -12.9 0     0     998.9    NA       0.0000   9999     0     0     0    
2019/08/10  23:22:00  BASE  2.34024  49   2.56956  44   -8.2  69    -12.9 0     0     998.9    NA       0.0000   9999     0     0     0    
2019/08/10  23:23:00  BASE  2.34024  46   2.56956  44   -8.1  68    -12.9 0     0     999.0    NA       0.0000   9999     0     0     0    
2019/08/10  23:24:00  BASE  2.09916  44   2.56956  44   -8.1  68    -13.0 0     0     999.0    NA       0.0000   9999     0     0     0    
2019/08/10  23:25:00  BASE  2.06388  43   2.56956  44   -8.1  68    -13.0 0     0     999.1    NA       0.0000   9999     0     0     0    
2019/08/10  23:26:00  BASE  2.05212  43   2.56956  44   -8.1  67    -13.0 0     0     999.1    NA       0.0000   9999     0     0     0    
2019/08/10  23:27:00  BASE  2.04036  43   2.56956  44   -8.0  67    -13.0 0     0     999.1    NA       0.0000   9999     0     0     0    
2019/08/10  23:28:00  BASE  2.24028  42   2.56956  44   -8.0  67    -13.1 0     0     999.1    NA       0.0000   9999     0     0     0    
2019/08/10  23:29:00  BASE  2.31084  44   2.56956  44   -8.0  67    -13.1 0     0     999.1    NA       0.0000   9999     0     0     0    
2019/08/10  23:30:00  BASE  2.16384  45   2.56956  44   -8.0  66    -13.2 0     0     999.1    NA       0.0000   9999     0     0     0    
2019/08/10  23:31:00  BASE  2.00508  45   2.56956  44   -8.0  66    -13.2 0     0     999.1    NA       0.0000   9999     0     0     0    
2019/08/10  23:32:00  BASE  2.01096  42   2.48136  45   -8.1  66    -13.3 0     0     999.1    NA       0.0000   9999     0     0     0    
2019/08/10  23:33:00  BASE  2.12268  41   2.48136  45   -8.1  66    -13.3 0     0     999.1    NA       0.0000   9999     0     0     0    
2019/08/10  23:34:00  BASE  2.18148  41   2.48136  45   -8.1  66    -13.3 0     0     999.1    NA       0.0000   9999     0     0     0    
2019/08/10  23:35:00  BASE  2.16972  40   2.48136  45   -8.1  66    -13.3 0     0     999.1    NA       0.0000   9999     0     0     0    
2019/08/10  23:36:00  BASE  2.0874   41   2.48136  45   -8.1  66    -13.3 0     0     999.1    NA       0.0000   9999     0     0     0    
2019/08/10  23:37:00  BASE  1.93452  42   2.48136  45   -8.1  66    -13.3 0     0     999.1    NA       0.0000   9999     0     0     0    
2019/08/10  23:38:00  BASE  1.83456  41   2.42256  47   -8.1  66    -13.3 0     0     999.1    NA       0.0000   9999     0     0     0    
2019/08/10  23:39:00  BASE  1.84632  41   2.29908  44   -8.0  66    -13.3 0     0     999.2    NA       0.0000   9999     0     0     0    
2019/08/10  23:40:00  BASE  1.764    42   2.29908  44   -8.0  66    -13.3 0     0     999.2    NA       0.0000   9999     0     0     0    
2019/08/10  23:41:00  BASE  1.7052   40   2.29908  44   -8.0  65    -13.3 0     0     999.2    NA       0.0000   9999     0     0     0    
2019/08/10  23:42:00  BASE  1.77576  36   2.29908  44   -8.0  65    -13.4 0     0     999.3    NA       0.0000   9999     0     0     0    
2019/08/10  23:43:00  BASE  1.77576  35   2.24028  40   -7.9  65    -13.4 0     0     999.3    NA       0.0000   9999     0     0     0    
2019/08/10  23:44:00  BASE  1.764    37   2.24028  40   -7.9  65    -13.4 0     0     999.3    NA       0.0000   9999     0     0     0    
2019/08/10  23:45:00  BASE  1.8228   37   2.1168   40   -7.9  64    -13.5 0     0     999.3    NA       0.0000   9999     0     0     0    
2019/08/10  23:46:00  BASE  1.8228   35   2.0286   40   -7.9  64    -13.5 0     0     999.2    NA       0.0000   9999     0     0     0    
2019/08/10  23:47:00  BASE  1.76988  38   1.96392  41   -7.9  64    -13.5 0     0     999.2    NA       0.0000   9999     0     0     0    
2019/08/10  23:48:00  BASE  1.7934   41   1.96392  41   -7.9  64    -13.6 0     0     999.2    NA       0.0000   9999     0     0     0    
2019/08/10  23:49:00  BASE  1.76988  41   1.93452  33   -8.0  64    -13.6 0     0     999.2    NA       0.0000   9999     0     0     0    
2019/08/10  23:50:00  BASE  1.71696  41   1.93452  33   -8.0  64    -13.6 0     0     999.2    NA       0.0000   9999     0     0     0    
2019/08/10  23:51:00  BASE  1.6758   42   1.93452  33   -8.0  64    -13.6 0     0     999.2    NA       0.0000   9999     0     0     0    
2019/08/10  23:52:00  BASE  1.69932  46   1.87572  40   -7.9  64    -13.6 0     0     999.2    NA       0.0000   9999     0     0     0    
2019/08/10  23:53:00  BASE  1.83456  47   2.0874   47   -7.9  64    -13.6 0     0     999.2    NA       0.0000   9999     0     0     0    
2019/08/10  23:54:00  BASE  1.93452  47   2.0874   47   -7.9  64    -13.6 0     0     999.2    NA       0.0000   9999     0     0     0    
2019/08/10  23:55:00  BASE  1.83456  44   2.0874   47   -7.8  63    -13.6 0     0     999.2    NA       0.0000   9999     0     0     0    
2019/08/10  23:56:00  BASE  1.45236  35   2.0874   47   -7.8  63    -13.6 0     0     999.3    NA       0.0000   9999     0     0     0    
2019/08/10  23:57:00  BASE  1.11132  26   2.0874   47   -7.8  63    -13.6 0     0     999.4    NA       0.0000   9999     0     0     0    
2019/08/10  23:58:00  BASE  1.12896  27   2.0874   47   -7.8  63    -13.7 0     0     999.4    NA       0.0000   9999     0     0     0    
2019/08/10  23:59:00  BASE  1.31124  31   2.0874   47   -7.9  63    -13.7 0     0     999.4    NA       0.0000   9999     0     0     0